[[{"header":{"parameterUnit":"m.s-1","parameterCategory":1,"la1":31.0,"la2":29.5877,"lo1":-88.7671,"lo2":-86.6584,"dy":0.0162,"dx":0.0185,"nx":115,"ny":88,"refTime":"2023-07-25T06:00:00:Z","depth":0,"parameterNumber":2,"parameterNumberName":"U-component_of_WINDS"},"data":[0.0,0.0,0.0,0.0,0.0,0.0,0.0,0.0,0.0,0.0,0.0,0.0,0.0,0.0,0.0,0.0,0.0,0.0,0.0,0.0,0.0,0.0,0.0,0.0,0.0,0.0,0.0,0.0,0.0,0.0,0.0,0.0,0.0,0.0,0.0,0.0,0.0,0.0,0.0,0.0,0.0,0.0,0.0,0.0,0.0,0.0,0.0,0.0,0.0,0.0,0.0,0.0,0.0,0.0,0.0,0.0,0.0,0.0,0.0,0.0,0.0,0.0,0.0,0.0,0.0,0.0,0.0,0.0,0.0,0.0,0.0,0.0,0.0,0.0,0.0,0.0,0.0,0.0,0.0,0.0,0.0,0.0,0.0,0.0,0.0,0.0,0.0,0.0,0.0,0.0,0.0,0.0,0.0,0.0,0.0,0.0,0.0,0.0,0.0,0.0,0.0,0.0,0.0,0.0,0.0,0.0,0.0,0.0,0.0,0.0,0.0,0.0,0.0,0.0,0.0,0.0,0.0,0.0,0.0,0.0,0.0,0.0,0.0,0.0,0.0,0.0,0.0,0.0,0.0,0.0,0.0,0.0,0.0,0.0,0.0,0.0,0.0,0.0,0.0,0.0,0.0,0.0,0.0,0.0,0.0,0.0,0.0,0.0,0.0,0.0,0.0,0.0,0.0,0.0,0.0,0.0,0.0,0.0,0.0,0.0,0.0,0.0,0.0,0.0,0.0,0.0,0.0,0.0,0.0,0.0,0.0,0.0,0.0,0.0,0.0,0.0,0.0,0.0,0.0,0.0,0.0,0.0,0.0,0.0,0.0,0.0,0.0,0.0,0.0,0.0,0.0,0.0,0.0,0.0,0.0,0.0,0.0,0.0,0.0,0.0,0.0,0.0,0.0,0.0,0.0,0.0,0.0,0.0,0.0,0.0,0.0,0.0,0.0,0.0,0.0,0.0,0.0,0.0,0.0,0.0,0.0,0.0,0.0,0.0,0.0,0.0,0.0,0.0,0.0,0.0,0.0,0.0,0.0,0.0,0.0,0.0,0.0,0.0,0.0,0.0,0.0,0.0,0.0,0.0,0.0,0.0,0.0,0.0,0.0,0.0,0.0,0.0,0.0,0.0,0.0,0.0,0.0,0.0,0.0,0.0,0.0,0.0,0.0,0.0,0.0,0.0,0.0,0.0,0.0,0.0,0.0,0.0,0.0,0.0,0.0,0.0,0.0,0.0,0.0,0.0,0.0,0.0,0.0,0.0,0.0,0.0,0.0,0.0,0.0,0.0,0.0,0.0,0.0,0.0,0.0,0.0,0.0,0.0,0.0,0.0,0.0,0.0,0.0,0.0,0.0,0.0,0.0,0.0,0.0,0.0,0.0,0.0,0.0,0.0,0.0,0.0,0.0,0.0,0.0,0.0,0.0,0.0,0.0,0.0,0.0,0.0,0.0,0.0,0.0,0.0,0.0,0.0,0.0,0.0,0.0,0.0,0.0,0.0,0.0,0.0,0.0,0.0,0.0,0.0,0.0,0.0,0.0,0.0,0.0,0.0,0.0,0.0,0.0,0.0,0.0,0.0,0.0,0.0,0.0,0.0,0.0,0.0,0.0,0.0,0.0,0.0,0.0,0.0,0.0,0.0,0.0,0.0,0.0,0.0,0.0,0.0,0.0,0.0,0.0,0.0,0.0,0.0,0.0,0.0,0.0,0.0,0.0,0.0,0.0,0.0,0.0,0.0,0.0,0.0,0.0,0.0,0.0,0.0,0.0,0.0,0.0,0.0,0.0,0.0,0.0,0.0,0.0,0.0,0.0,0.0,0.0,0.0,0.0,0.0,0.0,0.0,0.0,0.0,0.0,0.0,0.0,0.0,0.0,0.0,0.0,0.0,0.0,0.0,0.0,0.0,0.0,0.0,0.0,0.0,0.0,0.0,0.0,0.0,0.0,0.0,0.0,0.0,0.0,0.0,0.0,0.0,0.0,0.0,0.0,0.0,0.0,0.0,0.0,0.0,0.0,0.0,0.0,0.0,0.0,0.0,0.0,0.0,0.0,0.0,0.0,0.0,0.0,0.0,0.0,0.0,0.0,0.0,0.0,0.0,0.0,0.0,0.0,0.0,0.0,0.0,0.0,0.0,0.0,0.0,0.0,0.0,0.0,0.0,0.0,0.0,0.0,0.0,0.0,0.0,0.0,0.0,0.0,0.0,0.0,0.0,0.0,0.0,0.0,0.0,0.0,0.0,0.0,0.0,0.0,0.0,0.0,0.0,0.0,0.0,0.0,0.0,0.0,0.0,0.0,0.0,0.0,0.0,0.0,0.0,0.0,0.0,0.0,0.0,0.0,0.0,0.0,0.0,0.0,0.0,0.0,0.0,0.0,0.0,0.0,0.0,0.0,0.0,0.0,0.0,0.0,0.0,0.0,0.0,0.0,0.0,0.0,0.0,0.0,0.0,0.0,0.0,0.0,0.0,0.0,0.0,0.0,0.0,0.0,0.0,0.0,0.0,0.0,0.0,0.0,0.0,0.0,0.0,0.0,0.0,0.0,0.0,0.0,0.0,0.0,0.0,0.0,0.0,0.0,0.0,0.0,0.0,0.0,0.0,0.0,0.0,0.0,0.0,0.0,0.0,0.0,0.0,0.0,0.0,0.0,0.0,0.0,0.0,0.0,0.0,0.0,0.0,0.0,0.0,0.0,0.0,0.0,0.0,0.0,0.0,0.0,0.0,0.0,0.0,0.0,0.0,0.0,0.0,0.0,0.0,0.0,0.0,0.0,0.0,0.0,0.0,0.0,0.0,0.0,0.0,0.0,0.0,0.0,0.0,0.0,0.0,0.0,0.0,0.0,0.0,0.0,0.0,0.0,0.0,0.0,0.0,0.0,0.0,0.0,0.0,0.0,0.0,0.0,0.0,0.0,0.0,0.0,0.0,0.0,0.0,0.0,0.0,0.0,0.0,0.0,0.0,0.0,0.0,0.0,0.0,0.0,0.0,0.0,0.0,0.0,0.0,0.0,0.0,0.0,0.0,0.0,0.0,0.0,0.0,0.0,0.0,0.0,0.0,0.0,0.0,0.0,0.0,0.0,0.0,0.0,0.0,0.0,0.0,0.0,0.0,0.0,0.0,0.0,0.0,0.0,0.0,0.0,0.0,0.0,0.0,0.0,0.0,0.0,0.0,0.0,0.0,0.0,0.0,0.0,0.0,0.0,0.0,0.0,0.0,0.0,0.0,0.0,0.0,0.0,0.0,0.0,0.0,0.0,0.0,0.0,0.0,0.0,0.0,0.0,0.0,0.0,0.0,0.0,0.0,0.0,0.0,0.0,0.0,0.0,0.0,0.0,0.0,0.0,0.0,0.0,0.0,0.0,0.0,0.0,0.0,0.0,0.0,0.0,0.0,0.0,0.0,0.0,0.0,0.0,0.0,0.0,0.0,0.0,0.0,0.0,0.0,0.0,0.0,0.0,0.0,0.0,0.0,0.0,0.0,0.0,0.0,0.0,0.0,0.0,0.0,0.0,0.0,0.0,0.0,0.0,0.0,0.0,0.0,0.0,0.0,0.0,0.0,0.0,0.0,0.0,0.0,0.0,0.0,0.0,0.0,0.0,0.0,0.0,0.0,0.0,0.0,0.0,0.0,0.0,0.0,0.0,0.0,0.0,0.0,0.0,0.0,0.0,0.0,0.0,0.0,0.0,0.0,0.0,0.0,0.0,0.0,0.0,0.0,0.0,0.0,0.0,0.0,0.0,0.0,0.0,0.0,0.0,0.0,0.0,0.0,0.0,0.0,0.0,0.0,0.0,0.0,0.0,0.0,0.0,0.0,0.0,0.0,0.0,0.0,0.0,0.0,0.0,0.0,0.0,0.0,0.0,0.0,0.0,0.0,0.0,0.0,0.0,0.0,0.0,0.0,0.0,0.0,0.0,0.0,0.0,0.0,0.0,0.0,0.0,0.0,0.0,0.0,0.0,0.0,0.0,0.0,0.0,0.0,0.0,0.0,0.0,0.0,0.0,0.0,0.0,0.0,0.0,0.0,0.0,0.0,0.0,0.0,0.0,0.0,0.0,0.0,0.0,0.0,0.0,0.0,0.0,0.0,0.0,0.0,0.0,0.0,0.0,0.0,0.0,0.0,0.0,0.0,0.0,0.0,0.0,0.0,0.0,0.0,0.0,0.0,0.0,0.0,0.0,0.0,0.0,0.0,0.0,0.0,0.0,0.0,0.0,0.0,0.0,0.0,0.0,0.0,0.0,0.0,0.0,0.0,0.0,0.0,-2.3119,0.0,0.0,0.0,0.0,0.0,0.0,0.0,0.0,0.0,0.0,0.0,0.0,0.0,0.0,0.0,0.0,0.0,0.0,0.0,0.0,0.0,0.0,0.0,0.0,0.0,0.0,0.0,0.0,0.0,0.0,0.0,0.0,0.0,0.0,0.0,0.0,0.0,0.0,0.0,0.0,0.0,0.0,0.0,0.0,0.0,0.0,0.0,0.0,0.0,0.0,0.0,0.0,0.0,0.0,0.0,0.0,0.0,0.0,0.0,0.0,0.0,0.0,0.0,0.0,0.0,0.0,0.0,0.0,0.0,0.0,0.0,0.0,0.0,0.0,0.0,0.0,0.0,0.0,0.0,0.0,0.0,0.0,0.0,0.0,0.0,0.0,0.0,0.0,0.0,0.0,0.0,0.0,0.0,0.0,0.0,0.0,0.0,0.0,0.0,0.0,0.0,0.0,0.0,0.0,0.0,0.0,0.0,0.0,0.0,0.0,-2.3119,-2.3119,-2.3119,-2.3119,-2.3119,0.0,0.0,0.0,0.0,0.0,0.0,0.0,0.0,0.0,0.0,0.0,0.0,0.0,0.0,0.0,0.0,0.0,0.0,0.0,0.0,0.0,0.0,0.0,0.0,0.0,0.0,0.0,0.0,0.0,0.0,0.0,0.0,0.0,0.0,0.0,0.0,0.0,0.0,0.0,0.0,0.0,0.0,0.0,0.0,0.0,0.0,0.0,0.0,0.0,0.0,0.0,0.0,0.0,0.0,0.0,0.0,0.0,0.0,0.0,0.0,0.0,0.0,0.0,0.0,0.0,0.0,0.0,0.0,0.0,0.0,0.0,0.0,0.0,0.0,0.0,0.0,0.0,0.0,0.0,0.0,0.0,0.0,0.0,0.0,0.0,0.0,0.0,0.0,0.0,0.0,0.0,0.0,0.0,0.0,0.0,0.0,0.0,0.0,0.0,0.0,0.0,0.0,0.0,0.0,0.0,0.0,0.0,0.0,0.0,0.0,0.0,0.0,-2.3207,-2.3119,-2.3119,0.0,0.0,0.0,0.0,0.0,0.0,0.0,0.0,0.0,0.0,0.0,0.0,0.0,0.0,0.0,0.0,0.0,0.0,0.0,0.0,0.0,0.0,0.0,0.0,0.0,0.0,0.0,0.0,0.0,0.0,0.0,0.0,0.0,0.0,0.0,0.0,0.0,0.0,0.0,0.0,0.0,0.0,0.0,0.0,0.0,0.0,0.0,0.0,0.0,0.0,0.0,0.0,0.0,0.0,0.0,0.0,0.0,0.0,0.0,0.0,0.0,0.0,0.0,0.0,0.0,0.0,0.0,0.0,0.0,0.0,0.0,0.0,0.0,0.0,0.0,0.0,0.0,0.0,0.0,0.0,0.0,0.0,0.0,0.0,0.0,0.0,0.0,0.0,0.0,0.0,0.0,0.0,0.0,0.0,0.0,0.0,0.0,0.0,0.0,0.0,0.0,0.0,0.0,0.0,0.0,0.0,0.0,0.0,0.0,0.0,-2.3453,-2.4163,-2.3488,0.0,-2.3119,0.0,0.0,0.0,0.0,0.0,0.0,0.0,0.0,0.0,0.0,0.0,0.0,0.0,0.0,0.0,0.0,0.0,0.0,0.0,0.0,0.0,0.0,0.0,0.0,0.0,0.0,0.0,0.0,0.0,0.0,0.0,0.0,0.0,0.0,0.0,0.0,0.0,0.0,0.0,0.0,0.0,0.0,0.0,0.0,0.0,0.0,0.0,0.0,0.0,0.0,0.0,0.0,0.0,0.0,0.0,0.0,0.0,0.0,0.0,0.0,0.0,0.0,0.0,0.0,0.0,0.0,0.0,0.0,0.0,0.0,0.0,0.0,0.0,0.0,0.0,0.0,0.0,0.0,0.0,0.0,0.0,0.0,0.0,0.0,0.0,0.0,0.0,0.0,0.0,0.0,0.0,0.0,0.0,0.0,0.0,0.0,0.0,0.0,0.0,0.0,0.0,0.0,0.0,0.0,0.0,0.0,0.0,0.0,0.0,0.0,-2.3334,-2.3821,-2.3502,-2.3265,0.0,0.0,0.0,0.0,0.0,0.0,0.0,0.0,0.0,0.0,0.0,0.0,0.0,0.0,0.0,0.0,0.0,0.0,0.0,0.0,0.0,0.0,0.0,0.0,0.0,0.0,0.0,0.0,0.0,0.0,0.0,0.0,0.0,0.0,0.0,0.0,0.0,0.0,0.0,0.0,0.0,0.0,0.0,0.0,0.0,0.0,0.0,0.0,0.0,0.0,0.0,0.0,0.0,0.0,0.0,0.0,0.0,0.0,0.0,0.0,0.0,0.0,0.0,0.0,0.0,0.0,0.0,0.0,0.0,0.0,0.0,0.0,0.0,0.0,0.0,0.0,0.0,0.0,0.0,0.0,0.0,0.0,0.0,0.0,0.0,0.0,0.0,0.0,0.0,0.0,0.0,0.0,0.0,0.0,0.0,0.0,0.0,0.0,0.0,0.0,0.0,0.0,0.0,0.0,0.0,0.0,0.0,0.0,0.0,0.0,-2.3541,-2.3541,-2.3784,-2.3611,-2.3394,-2.3199,0.0,0.0,0.0,0.0,0.0,0.0,0.0,0.0,0.0,0.0,0.0,0.0,0.0,0.0,0.0,0.0,0.0,0.0,0.0,0.0,0.0,0.0,0.0,0.0,0.0,0.0,0.0,0.0,0.0,0.0,0.0,0.0,0.0,0.0,0.0,0.0,0.0,0.0,0.0,0.0,0.0,0.0,0.0,0.0,0.0,0.0,0.0,0.0,0.0,0.0,0.0,0.0,0.0,0.0,0.0,0.0,0.0,0.0,0.0,0.0,0.0,0.0,0.0,0.0,0.0,0.0,0.0,0.0,0.0,0.0,0.0,0.0,0.0,0.0,0.0,0.0,0.0,0.0,0.0,0.0,0.0,0.0,0.0,0.0,0.0,0.0,0.0,0.0,0.0,0.0,0.0,0.0,0.0,0.0,0.0,0.0,0.0,0.0,0.0,0.0,0.0,0.0,0.0,0.0,0.0,0.0,0.0,0.0,-2.5173,-2.4585,-2.4317,-2.4492,-2.3897,-2.3504,0.0,0.0,0.0,0.0,0.0,0.0,0.0,0.0,0.0,0.0,0.0,0.0,0.0,0.0,0.0,0.0,0.0,0.0,0.0,0.0,0.0,0.0,0.0,0.0,0.0,0.0,0.0,0.0,0.0,0.0,0.0,0.0,0.0,0.0,0.0,0.0,0.0,0.0,0.0,0.0,0.0,0.0,0.0,0.0,0.0,0.0,0.0,0.0,0.0,0.0,0.0,0.0,0.0,0.0,0.0,0.0,0.0,0.0,0.0,0.0,0.0,0.0,0.0,0.0,0.0,0.0,0.0,0.0,0.0,0.0,0.0,0.0,0.0,0.0,0.0,0.0,0.0,0.0,0.0,0.0,0.0,0.0,0.0,0.0,0.0,0.0,0.0,0.0,0.0,0.0,0.0,0.0,0.0,0.0,0.0,0.0,0.0,0.0,0.0,0.0,0.0,0.0,0.0,0.0,0.0,0.0,0.0,0.0,0.0,-2.3909,-2.4297,-2.4295,-2.3927,-2.4088,-2.3981,0.0,0.0,0.0,0.0,0.0,0.0,0.0,0.0,0.0,0.0,0.0,0.0,0.0,0.0,0.0,0.0,0.0,0.0,0.0,0.0,0.0,0.0,0.0,0.0,0.0,0.0,0.0,0.0,0.0,0.0,0.0,0.0,0.0,0.0,0.0,0.0,0.0,0.0,0.0,0.0,0.0,0.0,0.0,0.0,0.0,0.0,0.0,0.0,0.0,0.0,0.0,0.0,0.0,0.0,0.0,0.0,0.0,0.0,0.0,0.0,0.0,0.0,0.0,0.0,0.0,0.0,0.0,0.0,0.0,0.0,0.0,0.0,0.0,0.0,0.0,0.0,0.0,0.0,0.0,0.0,0.0,0.0,0.0,0.0,0.0,0.0,0.0,0.0,0.0,0.0,0.0,0.0,0.0,0.0,0.0,0.0,0.0,0.0,0.0,0.0,0.0,0.0,0.0,0.0,0.0,0.0,0.0,0.0,0.0,-2.3857,0.0,-2.5147,-2.4764,-2.4705,-2.4472,0.0,0.0,0.0,0.0,0.0,0.0,0.0,0.0,0.0,0.0,0.0,0.0,0.0,0.0,0.0,0.0,0.0,0.0,0.0,0.0,0.0,0.0,0.0,0.0,0.0,0.0,0.0,0.0,0.0,0.0,0.0,0.0,0.0,0.0,0.0,0.0,0.0,0.0,0.0,0.0,0.0,0.0,0.0,0.0,0.0,0.0,0.0,0.0,0.0,0.0,0.0,0.0,0.0,0.0,0.0,0.0,0.0,0.0,0.0,0.0,0.0,0.0,0.0,0.0,0.0,0.0,0.0,0.0,0.0,0.0,0.0,0.0,0.0,0.0,0.0,0.0,0.0,0.0,0.0,0.0,0.0,0.0,0.0,0.0,0.0,0.0,0.0,0.0,0.0,0.0,0.0,0.0,0.0,0.0,0.0,0.0,0.0,0.0,0.0,0.0,0.0,0.0,0.0,0.0,0.0,0.0,0.0,0.0,-2.3857,-2.5314,-2.6313,-2.6859,-2.7188,-2.5682,-2.491,0.0,0.0,0.0,0.0,0.0,0.0,0.0,0.0,0.0,0.0,0.0,0.0,0.0,0.0,0.0,0.0,0.0,0.0,0.0,0.0,0.0,0.0,0.0,0.0,0.0,0.0,0.0,0.0,0.0,0.0,0.0,0.0,0.0,0.0,0.0,0.0,0.0,0.0,0.0,0.0,0.0,0.0,0.0,0.0,0.0,0.0,0.0,0.0,0.0,0.0,0.0,0.0,0.0,0.0,0.0,0.0,0.0,0.0,0.0,0.0,0.0,0.0,0.0,0.0,0.0,0.0,0.0,0.0,0.0,0.0,0.0,0.0,0.0,0.0,0.0,0.0,0.0,0.0,0.0,0.0,0.0,0.0,0.0,0.0,0.0,0.0,0.0,0.0,0.0,0.0,0.0,0.0,0.0,0.0,0.0,0.0,0.0,0.0,0.0,0.0,0.0,0.0,0.0,0.0,0.0,0.0,0.0,0.0,0.0,-2.4673,-2.5975,-2.6278,-2.5506,-2.5481,-2.5093,0.0,0.0,0.0,0.0,0.0,0.0,0.0,0.0,0.0,0.0,0.0,0.0,0.0,0.0,0.0,0.0,0.0,0.0,0.0,0.0,0.0,0.0,0.0,0.0,0.0,0.0,0.0,0.0,0.0,0.0,0.0,0.0,0.0,0.0,0.0,0.0,0.0,0.0,0.0,0.0,0.0,0.0,0.0,0.0,0.0,0.0,0.0,0.0,0.0,0.0,0.0,0.0,0.0,0.0,0.0,0.0,0.0,0.0,0.0,0.0,0.0,0.0,0.0,0.0,0.0,0.0,0.0,0.0,0.0,0.0,0.0,0.0,0.0,0.0,0.0,0.0,0.0,0.0,0.0,0.0,0.0,0.0,0.0,0.0,0.0,0.0,0.0,0.0,0.0,0.0,0.0,0.0,0.0,0.0,0.0,0.0,0.0,0.0,0.0,0.0,0.0,0.0,0.0,0.0,0.0,0.0,0.0,0.0,0.0,-2.5946,-2.713,-2.7298,-2.626,-2.6417,-2.5832,-2.4465,0.0,0.0,0.0,0.0,0.0,0.0,0.0,0.0,0.0,0.0,0.0,0.0,0.0,0.0,0.0,0.0,0.0,0.0,0.0,0.0,0.0,0.0,0.0,0.0,0.0,0.0,0.0,0.0,0.0,0.0,0.0,0.0,0.0,0.0,0.0,0.0,0.0,0.0,0.0,0.0,0.0,0.0,0.0,0.0,0.0,0.0,0.0,0.0,0.0,0.0,0.0,0.0,0.0,0.0,0.0,0.0,0.0,0.0,0.0,0.0,0.0,0.0,0.0,0.0,0.0,0.0,0.0,0.0,0.0,0.0,0.0,0.0,0.0,0.0,0.0,0.0,0.0,0.0,0.0,0.0,0.0,0.0,0.0,0.0,0.0,0.0,0.0,0.0,0.0,0.0,0.0,0.0,0.0,0.0,0.0,0.0,0.0,0.0,0.0,0.0,0.0,0.0,0.0,0.0,0.0,0.0,0.0,0.0,-2.8669,-2.9522,-2.9624,-2.8938,-2.8095,-2.6979,0.0,0.0,0.0,0.0,0.0,0.0,0.0,0.0,0.0,0.0,0.0,0.0,0.0,0.0,0.0,0.0,0.0,0.0,0.0,0.0,0.0,0.0,0.0,0.0,0.0,0.0,0.0,0.0,0.0,0.0,0.0,0.0,0.0,0.0,0.0,0.0,0.0,0.0,0.0,0.0,0.0,0.0,0.0,0.0,0.0,0.0,0.0,0.0,0.0,0.0,0.0,0.0,0.0,0.0,0.0,0.0,0.0,0.0,0.0,0.0,0.0,0.0,0.0,0.0,0.0,0.0,0.0,0.0,0.0,0.0,0.0,0.0,0.0,0.0,0.0,0.0,0.0,0.0,0.0,0.0,0.0,0.0,0.0,0.0,0.0,0.0,0.0,0.0,0.0,0.0,0.0,0.0,0.0,0.0,0.0,0.0,0.0,0.0,0.0,0.0,0.0,0.0,0.0,0.0,0.0,0.0,0.0,0.0,0.0,-2.974,-3.1323,-3.1054,-2.8804,-2.8064,-2.6961,0.0,0.0,0.0,0.0,0.0,0.0,0.0,0.0,0.0,0.0,0.0,0.0,0.0,0.0,0.0,0.0,0.0,0.0,0.0,0.0,0.0,0.0,0.0,0.0,0.0,0.0,0.0,0.0,0.0,0.0,0.0,0.0,0.0,0.0,0.0,0.0,0.0,0.0,0.0,0.0,0.0,0.0,0.0,0.0,0.0,0.0,0.0,0.0,0.0,0.0,0.0,0.0,0.0,0.0,0.0,0.0,0.0,0.0,0.0,0.0,0.0,0.0,0.0,0.0,0.0,0.0,0.0,0.0,0.0,0.0,0.0,0.0,0.0,0.0,0.0,0.0,0.0,0.0,0.0,0.0,0.0,0.0,0.0,0.0,0.0,0.0,0.0,0.0,0.0,0.0,0.0,0.0,0.0,0.0,0.0,0.0,0.0,0.0,0.0,0.0,0.0,0.0,0.0,0.0,0.0,0.0,0.0,0.0,-2.8942,-3.084,-3.2609,-3.2519,-3.0503,-2.9126,-2.7643,0.0,0.0,0.0,0.0,0.0,0.0,0.0,0.0,0.0,0.0,0.0,0.0,0.0,0.0,0.0,0.0,0.0,0.0,0.0,0.0,0.0,0.0,0.0,0.0,0.0,0.0,0.0,0.0,0.0,0.0,0.0,0.0,0.0,0.0,0.0,0.0,0.0,0.0,0.0,0.0,0.0,0.0,0.0,0.0,0.0,0.0,0.0,0.0,0.0,0.0,0.0,0.0,0.0,0.0,0.0,0.0,0.0,0.0,0.0,0.0,0.0,0.0,0.0,0.0,0.0,0.0,0.0,0.0,0.0,0.0,0.0,0.0,0.0,0.0,0.0,0.0,0.0,0.0,0.0,0.0,0.0,0.0,0.0,0.0,0.0,0.0,0.0,0.0,0.0,0.0,0.0,0.0,0.0,0.0,0.0,0.0,0.0,0.0,0.0,0.0,0.0,0.0,0.0,0.0,0.0,0.0,0.0,0.0,-2.9764,-3.1894,-3.3417,-3.3863,-3.3083,-3.0708,-2.8663,0.0,0.0,0.0,0.0,0.0,0.0,0.0,0.0,0.0,0.0,0.0,0.0,0.0,0.0,0.0,0.0,0.0,0.0,0.0,0.0,0.0,0.0,0.0,0.0,0.0,0.0,0.0,0.0,0.0,0.0,0.0,0.0,0.0,0.0,0.0,0.0,0.0,0.0,0.0,0.0,0.0,0.0,0.0,0.0,0.0,0.0,0.0,0.0,0.0,0.0,0.0,0.0,0.0,0.0,0.0,0.0,0.0,0.0,0.0,0.0,0.0,0.0,0.0,0.0,0.0,0.0,0.0,0.0,0.0,0.0,0.0,0.0,0.0,0.0,0.0,0.0,0.0,0.0,0.0,0.0,0.0,0.0,0.0,0.0,0.0,0.0,0.0,0.0,0.0,0.0,0.0,0.0,0.0,0.0,0.0,0.0,0.0,0.0,0.0,0.0,0.0,0.0,0.0,0.0,0.0,0.0,0.0,0.0,-3.018,-3.2674,-3.3677,-3.4104,-3.3937,-3.0987,-2.8924,0.0,0.0,0.0,0.0,0.0,0.0,0.0,0.0,0.0,0.0,0.0,0.0,0.0,0.0,0.0,0.0,0.0,0.0,0.0,0.0,0.0,0.0,0.0,0.0,0.0,0.0,0.0,0.0,0.0,0.0,0.0,0.0,0.0,0.0,0.0,0.0,0.0,0.0,0.0,0.0,0.0,0.0,0.0,0.0,0.0,0.0,0.0,0.0,-1.7072,0.0,0.0,0.0,0.0,0.0,0.0,0.0,0.0,0.0,0.0,0.0,0.0,0.0,0.0,0.0,0.0,0.0,0.0,0.0,0.0,0.0,0.0,0.0,0.0,0.0,0.0,0.0,0.0,0.0,0.0,0.0,0.0,0.0,0.0,0.0,0.0,0.0,0.0,0.0,0.0,0.0,0.0,0.0,0.0,0.0,0.0,0.0,0.0,0.0,0.0,0.0,0.0,0.0,0.0,0.0,0.0,0.0,0.0,0.0,-3.0669,-3.2915,-3.3788,-3.4216,-3.4104,-3.1452,-2.9574,0.0,0.0,0.0,0.0,0.0,0.0,0.0,0.0,0.0,0.0,0.0,0.0,0.0,0.0,0.0,0.0,0.0,0.0,0.0,0.0,0.0,0.0,0.0,0.0,0.0,0.0,0.0,0.0,0.0,0.0,0.0,0.0,0.0,0.0,0.0,0.0,0.0,0.0,0.0,0.0,0.0,0.0,0.0,0.0,0.0,0.0,0.0,0.0,0.0,0.0,0.0,0.0,0.0,0.0,0.0,0.0,0.0,0.0,0.0,0.0,0.0,0.0,0.0,0.0,0.0,0.0,0.0,0.0,0.0,0.0,0.0,0.0,0.0,0.0,0.0,0.0,0.0,0.0,0.0,0.0,0.0,0.0,0.0,0.0,0.0,0.0,0.0,0.0,0.0,0.0,0.0,0.0,0.0,0.0,0.0,0.0,0.0,0.0,0.0,0.0,0.0,0.0,0.0,0.0,0.0,0.0,0.0,-2.925,-3.1038,-3.3101,-3.3844,-3.4216,-3.416,-3.1838,-3.0225,-2.9407,0.0,0.0,0.0,0.0,0.0,0.0,0.0,0.0,0.0,0.0,0.0,0.0,0.0,0.0,0.0,0.0,0.0,0.0,0.0,0.0,0.0,0.0,0.0,0.0,0.0,0.0,0.0,0.0,0.0,0.0,0.0,0.0,0.0,0.0,0.0,0.0,0.0,0.0,-1.3804,-1.4964,0.0,0.0,0.0,0.0,0.0,0.0,0.0,0.0,-1.7376,0.0,0.0,0.0,0.0,0.0,0.0,0.0,0.0,0.0,0.0,0.0,0.0,0.0,0.0,0.0,0.0,0.0,0.0,0.0,0.0,0.0,0.0,0.0,0.0,0.0,0.0,0.0,0.0,0.0,0.0,0.0,0.0,0.0,0.0,0.0,0.0,0.0,0.0,0.0,0.0,0.0,0.0,0.0,0.0,0.0,0.0,0.0,0.0,0.0,0.0,0.0,0.0,0.0,0.0,0.0,0.0,-2.9042,-2.9171,-3.0761,-3.39,-3.4123,-3.4216,-3.4141,-3.1857,-3.0225,-2.937,0.0,0.0,0.0,0.0,0.0,0.0,0.0,0.0,0.0,0.0,0.0,0.0,0.0,0.0,0.0,0.0,0.0,0.0,0.0,0.0,0.0,0.0,0.0,0.0,0.0,0.0,0.0,0.0,0.0,0.0,0.0,0.0,0.0,0.0,0.0,0.0,0.0,0.0,0.0,-1.6872,-1.7654,0.0,0.0,0.0,0.0,0.0,0.0,0.0,0.0,-1.7362,0.0,0.0,0.0,0.0,0.0,0.0,0.0,0.0,0.0,0.0,0.0,0.0,0.0,0.0,0.0,0.0,0.0,0.0,0.0,0.0,0.0,0.0,0.0,0.0,0.0,0.0,0.0,0.0,0.0,0.0,0.0,0.0,0.0,0.0,0.0,0.0,0.0,0.0,0.0,0.0,0.0,0.0,0.0,0.0,0.0,0.0,0.0,0.0,0.0,0.0,0.0,0.0,0.0,0.0,0.0,-2.9104,-3.0442,-3.208,-3.4123,-3.4216,-3.4216,-3.416,-3.1857,-3.0243,0.0,0.0,0.0,0.0,0.0,0.0,0.0,0.0,0.0,0.0,0.0,0.0,0.0,0.0,0.0,0.0,0.0,0.0,0.0,0.0,0.0,0.0,0.0,0.0,0.0,0.0,0.0,0.0,0.0,0.0,0.0,0.0,0.0,0.0,0.0,0.0,0.0,0.0,0.0,0.0,-1.7557,-1.8435,-1.9955,0.0,0.0,0.0,0.0,0.0,0.0,-1.8598,-1.7965,0.0,0.0,0.0,0.0,0.0,0.0,0.0,0.0,0.0,0.0,0.0,0.0,0.0,0.0,0.0,0.0,0.0,0.0,0.0,0.0,0.0,0.0,0.0,0.0,0.0,0.0,0.0,0.0,0.0,0.0,0.0,0.0,0.0,0.0,0.0,0.0,0.0,0.0,0.0,0.0,0.0,0.0,0.0,0.0,0.0,0.0,0.0,0.0,0.0,0.0,0.0,0.0,0.0,0.0,0.0,-2.913,-3.1464,-3.3208,-3.4141,-3.4216,-3.4216,-3.416,-3.1708,-3.0057,0.0,0.0,0.0,0.0,0.0,0.0,0.0,0.0,0.0,0.0,0.0,0.0,0.0,0.0,0.0,0.0,0.0,0.0,0.0,0.0,0.0,0.0,0.0,0.0,0.0,0.0,0.0,0.0,0.0,0.0,0.0,0.0,0.0,0.0,0.0,0.0,0.0,0.0,0.0,0.0,0.0,-1.9161,-2.0779,-2.0353,0.0,0.0,0.0,0.0,-1.9585,-1.9096,0.0,0.0,0.0,0.0,0.0,0.0,0.0,0.0,0.0,0.0,0.0,0.0,0.0,0.0,0.0,0.0,0.0,0.0,0.0,0.0,0.0,0.0,0.0,0.0,0.0,0.0,0.0,0.0,0.0,0.0,0.0,0.0,0.0,0.0,0.0,0.0,0.0,0.0,0.0,0.0,0.0,0.0,0.0,0.0,0.0,0.0,0.0,0.0,0.0,0.0,0.0,0.0,0.0,0.0,0.0,0.0,-2.9326,-3.0895,-3.2508,-3.4123,-3.4216,-3.4216,-3.416,-3.1191,-2.95,0.0,0.0,0.0,0.0,0.0,0.0,0.0,0.0,0.0,0.0,0.0,0.0,0.0,0.0,0.0,0.0,0.0,0.0,0.0,0.0,0.0,0.0,0.0,0.0,0.0,0.0,0.0,0.0,0.0,0.0,0.0,0.0,0.0,0.0,0.0,0.0,0.0,0.0,0.0,0.0,0.0,-2.0098,-2.1262,-2.0527,-1.9962,0.0,0.0,-2.0274,-2.05,-2.0522,0.0,0.0,0.0,0.0,0.0,0.0,0.0,0.0,0.0,0.0,0.0,0.0,0.0,0.0,0.0,0.0,0.0,0.0,0.0,0.0,0.0,0.0,0.0,0.0,0.0,0.0,0.0,0.0,0.0,0.0,0.0,0.0,0.0,0.0,0.0,0.0,0.0,0.0,0.0,0.0,0.0,0.0,0.0,0.0,0.0,0.0,0.0,0.0,0.0,0.0,0.0,0.0,0.0,0.0,0.0,-2.8479,-2.9442,-3.1788,-3.3438,-3.4179,-3.4216,-3.4216,-3.4197,-3.108,-2.9388,0.0,0.0,0.0,0.0,0.0,0.0,0.0,0.0,0.0,0.0,0.0,0.0,0.0,0.0,0.0,0.0,0.0,0.0,0.0,0.0,0.0,0.0,0.0,0.0,0.0,0.0,0.0,0.0,0.0,0.0,0.0,0.0,0.0,0.0,0.0,0.0,0.0,0.0,0.0,0.0,0.0,0.0,-2.1687,-2.1365,0.0,0.0,0.0,-2.0653,-2.039,0.0,0.0,0.0,0.0,0.0,0.0,0.0,0.0,0.0,0.0,0.0,0.0,0.0,0.0,0.0,0.0,0.0,0.0,0.0,0.0,0.0,0.0,0.0,0.0,0.0,0.0,0.0,0.0,0.0,0.0,0.0,0.0,0.0,0.0,0.0,0.0,0.0,0.0,0.0,0.0,0.0,0.0,0.0,0.0,0.0,0.0,0.0,0.0,0.0,0.0,0.0,0.0,0.0,0.0,0.0,0.0,0.0,-2.976,-3.2655,-3.4216,-3.4216,-3.4216,-3.4216,-3.416,-3.1262,0.0,0.0,0.0,0.0,0.0,0.0,0.0,0.0,0.0,0.0,0.0,0.0,0.0,0.0,0.0,0.0,0.0,0.0,0.0,0.0,0.0,0.0,0.0,0.0,0.0,0.0,0.0,-1.6334,0.0,0.0,0.0,0.0,0.0,0.0,0.0,0.0,0.0,0.0,0.0,0.0,0.0,0.0,-2.1424,-2.2041,-2.2118,-2.2179,0.0,0.0,-2.1145,-2.0892,-2.134,-2.1237,0.0,0.0,0.0,0.0,0.0,0.0,0.0,0.0,0.0,0.0,0.0,0.0,0.0,0.0,0.0,0.0,0.0,0.0,0.0,0.0,0.0,0.0,0.0,0.0,0.0,0.0,0.0,0.0,0.0,0.0,0.0,0.0,0.0,0.0,0.0,0.0,0.0,0.0,0.0,0.0,0.0,0.0,0.0,0.0,0.0,0.0,0.0,0.0,0.0,0.0,0.0,0.0,0.0,0.0,0.0,-3.0578,-3.2953,-3.4197,-3.4216,-3.4216,-3.4216,-3.416,-3.1801,-3.0169,0.0,0.0,0.0,0.0,0.0,0.0,0.0,0.0,0.0,0.0,0.0,0.0,0.0,0.0,0.0,0.0,0.0,0.0,0.0,0.0,0.0,0.0,0.0,0.0,0.0,0.0,0.0,0.0,0.0,0.0,0.0,0.0,0.0,0.0,0.0,0.0,0.0,0.0,0.0,0.0,0.0,-2.1624,-2.2362,-2.2468,-2.2669,0.0,0.0,-2.2137,-2.2707,-2.2886,-2.2498,-2.0994,0.0,0.0,0.0,0.0,0.0,0.0,0.0,0.0,0.0,0.0,0.0,0.0,0.0,0.0,0.0,0.0,0.0,0.0,0.0,0.0,0.0,0.0,0.0,0.0,0.0,0.0,0.0,0.0,0.0,0.0,0.0,0.0,0.0,0.0,0.0,0.0,0.0,0.0,0.0,0.0,0.0,0.0,0.0,0.0,0.0,0.0,0.0,0.0,0.0,0.0,0.0,0.0,0.0,-3.0344,-3.0804,-3.3045,-3.4269,-3.4427,-3.4288,-3.4269,-3.4431,-3.2058,-3.0452,0.0,0.0,0.0,0.0,0.0,0.0,0.0,0.0,0.0,0.0,0.0,0.0,0.0,0.0,0.0,0.0,0.0,0.0,0.0,0.0,0.0,0.0,0.0,0.0,0.0,0.0,0.0,0.0,-1.9048,-1.8931,-1.8078,0.0,0.0,0.0,0.0,0.0,0.0,0.0,0.0,0.0,0.0,-2.2348,-2.3033,-2.3111,0.0,0.0,-2.3031,-2.2565,-2.2413,-2.2327,-2.1873,-2.0666,-1.9809,0.0,0.0,0.0,0.0,0.0,0.0,0.0,0.0,0.0,0.0,0.0,0.0,0.0,0.0,0.0,0.0,0.0,0.0,0.0,0.0,0.0,0.0,0.0,0.0,0.0,0.0,0.0,0.0,0.0,0.0,0.0,0.0,0.0,0.0,0.0,0.0,0.0,0.0,0.0,0.0,0.0,0.0,0.0,0.0,0.0,0.0,0.0,0.0,0.0,0.0,0.0,0.0,-3.0878,-3.128,-3.3334,-3.4498,-3.4708,-3.452,-3.4498,-3.4614,-3.2505,-3.1011,0.0,0.0,0.0,0.0,0.0,0.0,0.0,0.0,0.0,0.0,0.0,0.0,0.0,0.0,0.0,0.0,0.0,0.0,0.0,0.0,0.0,0.0,0.0,0.0,0.0,0.0,0.0,0.0,-1.9632,-1.9278,-1.8431,0.0,0.0,0.0,0.0,0.0,0.0,0.0,0.0,0.0,0.0,-2.2992,-2.3295,-2.3288,-2.3288,-2.3227,-2.2755,-2.2306,-2.2048,-2.1902,-2.1586,-2.0784,0.0,0.0,0.0,0.0,0.0,0.0,0.0,0.0,0.0,0.0,0.0,0.0,0.0,0.0,0.0,0.0,0.0,0.0,0.0,0.0,0.0,0.0,0.0,0.0,0.0,0.0,0.0,0.0,0.0,0.0,-2.4698,0.0,0.0,0.0,0.0,0.0,0.0,0.0,0.0,0.0,0.0,0.0,0.0,0.0,0.0,0.0,0.0,0.0,0.0,0.0,0.0,0.0,0.0,-3.1299,-3.2107,-3.3923,-3.4889,-3.4908,-3.487,-3.4889,-3.4851,-3.3257,-3.2001,-3.1159,0.0,0.0,0.0,0.0,0.0,0.0,0.0,0.0,0.0,0.0,0.0,0.0,0.0,0.0,0.0,0.0,0.0,0.0,0.0,0.0,0.0,0.0,0.0,0.0,0.0,0.0,-1.8143,-1.8435,-1.8935,0.0,0.0,0.0,0.0,0.0,0.0,0.0,0.0,0.0,0.0,-2.2733,-2.3563,-2.3006,-2.2859,-2.2834,-2.2627,-2.1741,-2.131,-2.1934,-2.2017,-2.1901,0.0,0.0,0.0,0.0,0.0,0.0,0.0,0.0,0.0,0.0,0.0,0.0,0.0,0.0,0.0,0.0,0.0,0.0,0.0,0.0,0.0,0.0,0.0,0.0,0.0,0.0,0.0,-2.6069,-2.602,0.0,0.0,0.0,0.0,0.0,0.0,0.0,0.0,0.0,0.0,0.0,-2.7982,-2.8044,0.0,0.0,0.0,0.0,0.0,0.0,0.0,0.0,0.0,0.0,0.0,0.0,-3.1977,-3.2426,-3.4072,-3.5053,-3.5155,-3.5034,-3.5034,-3.5171,-3.4056,-3.2556,-3.0649,0.0,0.0,0.0,0.0,0.0,0.0,0.0,0.0,0.0,0.0,0.0,0.0,0.0,0.0,0.0,0.0,0.0,0.0,0.0,0.0,0.0,0.0,0.0,0.0,0.0,-2.0348,0.0,0.0,0.0,0.0,0.0,0.0,0.0,0.0,0.0,0.0,0.0,-2.1412,-2.2155,-2.2623,-2.2983,-2.3365,-2.3416,-2.3594,0.0,0.0,0.0,0.0,0.0,0.0,0.0,0.0,0.0,0.0,0.0,0.0,0.0,0.0,-2.0498,-1.8971,-1.8669,-1.8548,-1.82,0.0,0.0,0.0,0.0,0.0,0.0,0.0,0.0,0.0,0.0,0.0,0.0,0.0,0.0,-2.7748,0.0,-2.7437,0.0,0.0,0.0,0.0,0.0,0.0,0.0,0.0,-2.8529,-2.9242,-2.9906,-2.9963,-3.0221,0.0,-3.0787,-2.9906,0.0,0.0,0.0,0.0,0.0,0.0,0.0,0.0,-3.2435,-3.2661,-3.4327,-3.5281,-3.5388,-3.53,-3.5266,-3.5369,-3.4564,-3.307,-3.091,-2.9462,-2.8219,0.0,0.0,0.0,0.0,0.0,0.0,0.0,0.0,0.0,0.0,0.0,0.0,0.0,0.0,0.0,0.0,0.0,0.0,0.0,0.0,0.0,0.0,0.0,-2.1456,0.0,0.0,0.0,0.0,0.0,0.0,0.0,0.0,0.0,-2.0705,-2.1763,-2.2728,-2.3178,-2.3373,-2.3473,-2.3456,0.0,0.0,0.0,0.0,0.0,0.0,0.0,-2.1541,-2.1283,-2.1193,-2.1216,-2.1523,-2.2079,-2.2384,-2.2232,0.0,0.0,-2.0592,-2.0242,-2.0146,-1.9945,-1.9683,-1.9418,-1.9131,-1.9144,-1.9203,0.0,0.0,0.0,0.0,0.0,0.0,0.0,0.0,-3.0425,-2.9867,0.0,-2.9002,0.0,0.0,0.0,0.0,0.0,-2.872,0.0,0.0,-3.2174,-3.2628,-3.1903,-3.1884,-3.1884,-3.1913,-3.1961,-3.1951,-3.1853,-3.0953,0.0,0.0,0.0,0.0,0.0,0.0,-3.2752,-3.2894,-3.4661,-3.5604,-3.5604,-3.5591,-3.5604,-3.5584,-3.4759,-3.3545,-3.1961,-3.0942,-3.0029,-2.9162,-2.7281,0.0,0.0,0.0,0.0,0.0,0.0,0.0,0.0,0.0,0.0,0.0,0.0,0.0,0.0,0.0,0.0,0.0,0.0,0.0,0.0,-2.2377,0.0,0.0,0.0,0.0,0.0,0.0,0.0,0.0,0.0,0.0,-2.2572,-2.3453,-2.4173,-2.4125,0.0,0.0,0.0,0.0,-2.3445,-2.1933,-2.1411,-2.1274,-2.1245,-2.2019,-2.2704,-2.2908,0.0,0.0,-2.3382,-2.3092,-2.2828,-2.2385,-2.3165,-2.3498,-2.2471,-2.2015,-2.159,-2.1061,-2.1172,-2.1032,-2.0272,-2.0325,-2.0412,-3.2857,0.0,0.0,0.0,0.0,-3.0247,-3.0713,-3.1478,-3.1419,-3.1234,-3.0962,-3.0962,0.0,0.0,0.0,0.0,0.0,0.0,-3.0627,-3.1449,-3.1952,-3.2706,-3.3634,-3.3654,-3.3963,-3.4563,-3.4582,-3.4601,-3.4571,-3.4298,-3.3126,-3.1123,0.0,0.0,0.0,0.0,-3.307,-3.3769,-3.5013,-3.5681,-3.5681,-3.5681,-3.5681,-3.5681,-3.4823,-3.4156,-3.3654,-3.2202,-3.0992,-3.0048,-2.8833,0.0,0.0,0.0,0.0,0.0,0.0,0.0,0.0,0.0,0.0,0.0,0.0,0.0,0.0,0.0,0.0,0.0,0.0,0.0,-2.317,-2.383,-2.3488,0.0,0.0,0.0,0.0,0.0,0.0,0.0,0.0,0.0,-2.4211,-2.3836,-2.3452,0.0,0.0,-2.3124,-2.2524,-2.3283,-2.3996,-2.4184,-2.3984,0.0,0.0,-2.4026,-2.3718,-2.3704,-2.4121,-2.441,-2.4175,-2.4296,-2.4365,-2.421,-2.4445,-2.4524,-2.4273,-2.3686,-2.3205,-2.3053,-2.2827,-2.2585,-2.2221,-2.2177,-2.2177,-3.6084,-3.4844,-3.3139,-3.2296,-3.215,-3.2152,-3.2618,-3.3403,-3.3364,-3.3161,-3.2841,-3.2841,-3.2184,-3.1043,-3.0752,0.0,0.0,0.0,-3.2222,-3.3344,-3.3344,-3.3905,-3.4872,-3.4911,-3.5182,-3.5684,-3.5704,-3.5704,-3.5704,-3.5356,-3.4345,-3.2685,0.0,0.0,-3.1979,-3.2917,-3.3653,-3.4236,-3.5206,-3.5704,-3.5704,-3.5704,-3.5704,-3.5684,-3.5182,-3.4756,-3.4389,-3.3073,-3.1883,-3.0981,-2.9732,-2.853,0.0,0.0,0.0,0.0,0.0,0.0,0.0,0.0,0.0,0.0,0.0,-2.2857,0.0,0.0,0.0,0.0,-2.3701,-2.3927,-2.4167,-2.4458,0.0,0.0,0.0,0.0,0.0,0.0,0.0,-2.3185,-2.4299,-2.5097,-2.5097,-2.454,-2.4167,-2.4215,-2.419,-2.3981,-2.3536,0.0,-2.5063,-2.5302,-2.5181,-2.5167,-2.5527,-2.5265,-2.4951,-2.483,-2.5005,-2.5053,-2.494,-2.5072,-2.5192,-2.5185,-2.5107,-2.5005,-2.5005,-2.4614,-2.4313,-2.4271,-2.4063,-2.3752,-2.3391,-2.3334,-2.3231,-3.8984,-3.9247,-3.5279,-3.4078,-3.4787,-3.4729,-3.5078,-3.5698,-3.5688,-3.5271,-3.4515,-3.4515,-3.3596,-3.2077,-3.1352,0.0,-3.3295,-3.3314,-3.4176,-3.5704,-3.5704,-3.5704,-3.5704,-3.5704,-3.5704,-3.5704,-3.5704,-3.5704,-3.5665,-3.4911,-3.4447,-3.4389,-3.4328,-3.3892,-3.3177,-3.3834,-3.429,-3.4418,-3.5182,-3.5626,-3.5704,-3.5704,-3.5704,-3.5704,-3.5704,-3.5317,-3.4524,-3.3673,-3.2812,-3.1903,-3.0248,-2.922,-2.8986,0.0,0.0,0.0,0.0,0.0,0.0,0.0,0.0,0.0,0.0,0.0,0.0,0.0,0.0,0.0,-2.564,0.0,-2.5534,-2.4689,0.0,0.0,0.0,-2.3816,-2.4479,-2.4842,-2.5011,-2.4942,0.0,0.0,-2.5507,-2.5489,-2.5788,-2.6595,-2.6595,-2.6216,-2.548,-2.5978,-2.6349,-2.5647,-2.5522,-2.5502,-2.5656,-2.5993,-2.623,-2.6133,-2.6158,-2.5983,-2.5603,-2.5545,-2.554,-2.5503,-2.5246,-2.5029,-2.5029,-2.4989,-2.4982,-2.4806,-2.4782,-2.4605,-2.4051,-2.3867,-2.3739,-3.9664,-3.8615,-3.7597,-3.7286,-3.7413,-3.6754,-3.6221,-3.5785,-3.5728,-3.5592,-3.5387,-3.5387,-3.5145,-3.4756,-3.4563,-3.4717,-3.5085,-3.5085,-3.5298,-3.5684,-3.5704,-3.5704,-3.5704,-3.5704,-3.5704,-3.5704,-3.5704,-3.5704,-3.5704,-3.5472,-3.5046,-3.4427,-3.4389,-3.3953,-3.314,-3.3295,-3.3721,-3.4399,-3.4612,-3.5027,-3.5684,-3.5704,-3.5704,-3.5704,-3.5704,-3.5607,-3.5394,-3.4563,-3.3692,-3.2812,-3.1758,-3.0559,-2.9284,-2.7996,0.0,0.0,0.0,0.0,0.0,0.0,0.0,0.0,0.0,-2.4563,-2.4039,0.0,-2.4813,0.0,-2.6165,-2.6785,-2.6632,-2.6402,0.0,0.0,-2.509,-2.5,-2.5192,-2.5806,-2.5974,-2.5362,-2.589,-2.6332,-2.6332,-2.6332,-2.6595,-2.7297,-2.642,-2.553,-2.512,-2.5917,-2.6542,-2.6391,-2.6702,-2.7058,-2.6993,-2.7083,-2.7072,-2.7038,-2.6775,-2.6436,-2.6016,-2.5944,-2.5855,-2.5577,-2.5427,-2.5368,-2.5368,-2.5169,-2.5005,-2.4982,-2.4982,-2.4886,-2.4605,-2.4482,-2.4343,-4.2422,-4.1218,-4.083,-4.0228,-3.9431,-3.8626,-3.818,-3.8035,-3.7628,-3.7434,-3.7394,-3.6609,-3.6065,-3.5704,-3.5704,-3.5704,-3.5704,-3.5704,-3.5704,-3.5704,-3.5704,-3.5704,-3.5704,-3.5704,-3.5704,-3.5704,-3.5704,-3.5704,-3.5704,-3.5704,-3.5452,-3.4988,-3.4969,-3.4543,-3.3712,-3.3276,-3.3344,-3.3828,-3.4195,-3.4988,-3.6168,-3.6226,-3.6071,-3.5723,-3.5704,-3.5336,-3.4582,-3.3712,-3.3015,-3.2551,-3.1719,-3.0675,-2.936,-2.8327,-2.7396,0.0,0.0,0.0,0.0,0.0,0.0,0.0,0.0,0.0,0.0,0.0,-2.555,-2.5546,-2.6649,-2.7176,-2.6687,-2.6626,-2.6541,-2.6318,-2.6206,-2.6242,-2.6587,-2.6891,-2.6929,-2.6472,-2.6823,-2.7104,-2.7087,-2.7104,-2.7227,-2.7648,-2.6981,-2.6363,-2.6225,-2.6708,-2.7087,-2.7122,-2.7367,-2.7587,-2.7557,-2.7496,-2.7359,-2.7137,-2.704,-2.6842,-2.647,-2.635,-2.628,-2.6052,-2.5908,-2.5762,-2.5762,-2.5631,-2.546,-2.5285,-2.5208,-2.5146,-2.4862,-2.4742,-2.4645,-4.5705,-4.4889,-4.4151,-4.2889,-4.1354,-4.0752,-4.0548,-4.0529,-3.9791,-3.95,-3.9499,-3.7975,-3.6878,-3.6198,-3.6071,-3.6013,-3.6013,-3.6013,-3.6013,-3.6013,-3.6013,-3.5955,-3.5858,-3.5839,-3.58,-3.5704,-3.5704,-3.5704,-3.5704,-3.5704,-3.5626,-3.5549,-3.553,-3.5085,-3.4234,-3.3596,-3.3267,-3.3286,-3.4118,-3.5278,-3.669,-3.6535,-3.6071,-3.5414,-3.5356,-3.4659,-3.316,-3.2367,-3.1913,-3.1777,-3.1023,-3.025,-2.9476,-2.8519,-2.7672,0.0,-2.6091,0.0,0.0,0.0,0.0,0.0,0.0,0.0,0.0,-2.6764,-2.6683,-2.6523,-2.7177,-2.7319,-2.6631,-2.6577,-2.6845,-2.7459,-2.7327,-2.7433,-2.8013,-2.7869,-2.7701,-2.7701,-2.7701,-2.7701,-2.7666,-2.7701,-2.7701,-2.7701,-2.7631,-2.7543,-2.7648,-2.7631,-2.7648,-2.7701,-2.7642,-2.7617,-2.7526,-2.7478,-2.7386,-2.7021,-2.712,-2.7169,-2.6758,-2.6758,-2.6775,-2.6657,-2.6385,-2.6175,-2.6175,-2.6123,-2.5961,-2.5668,-2.5577,-2.5406,-2.495,-2.4822,-2.4782,-4.656,-4.5763,-4.5608,-4.4967,-4.4112,-4.4598,-4.2539,-3.8868,-3.8693,-3.8986,-3.9558,-3.9187,-3.8933,-3.8728,-3.8036,-3.7715,-3.7735,-3.7735,-3.7715,-3.7715,-3.7735,-3.7367,-3.669,-3.6671,-3.6323,-3.5723,-3.5704,-3.5704,-3.5704,-3.5704,-3.5336,-3.4659,-3.464,-3.4214,-3.3421,0.0,0.0,0.0,-3.5027,-3.5607,-3.5858,-3.4543,-3.375,-3.3596,-3.3585,0.0,-3.3121,-3.2947,-3.2502,-3.1835,-3.1043,0.0,0.0,0.0,0.0,0.0,0.0,0.0,0.0,0.0,0.0,0.0,-2.6998,-2.6841,-2.699,-2.7028,-2.7214,-2.7645,-2.7972,-2.827,-2.8544,-2.8577,-2.8503,-2.8385,-2.8126,-2.7996,-2.8084,-2.7869,-2.7701,-2.7701,-2.7701,-2.7701,-2.773,-2.7701,-2.7701,-2.7701,-2.7701,-2.7701,-2.7701,-2.7701,-2.7701,-2.7701,-2.7672,-2.763,-2.7526,-2.7574,-2.7526,-2.7404,-2.7359,-2.7233,-2.6891,-2.7023,-2.704,-2.6808,-2.6641,-2.659,-2.6573,-2.6332,-2.6123,-2.6016,-2.5997,-2.5779,-2.5107,-2.4846,-2.4798,-4.8496,0.0,-4.7348,-4.6633,0.0,-4.5936,-4.4397,-4.161,-4.1574,-4.1295,-4.0894,-4.0837,-4.0586,-4.013,-3.9267,-3.8868,-3.8822,-3.8404,-3.8218,-3.8218,-3.8218,-3.7967,-3.7541,-3.7541,-3.7096,-3.6303,-3.6303,-3.6091,-3.5723,-3.5704,-3.5472,-3.5057,-3.5046,-3.4814,-3.4447,-3.5646,-3.6071,-3.5646,-3.6071,-3.669,-3.7464,-3.6303,-3.5414,-3.4988,-3.4582,0.0,0.0,0.0,0.0,0.0,0.0,0.0,0.0,0.0,0.0,-2.8579,-2.8086,-2.7956,-2.831,-2.8281,-2.8365,-2.8613,-2.8474,-2.8201,-2.7772,-2.8146,-2.8484,-2.876,-2.8895,-2.9025,-2.9258,-2.9272,-2.9188,-2.9016,-2.8761,-2.8583,-2.8515,-2.829,-2.8102,-2.8075,-2.7964,-2.7897,-2.7897,-2.7754,-2.7701,-2.7701,-2.7701,-2.7701,-2.7701,-2.7701,-2.7701,-2.7701,-2.7701,-2.7672,-2.763,-2.7587,-2.7587,-2.7557,-2.7496,-2.7373,-2.7181,-2.7264,-2.7264,-2.7087,-2.7023,-2.699,-2.699,-2.6808,-2.664,-2.6504,-2.6686,-2.6654,-2.5976,-2.5619,-2.546,-5.0421,-4.9166,-4.9166,-4.8181,-4.6641,-4.6797,-4.6387,-4.5522,0.0,0.0,0.0,-4.2656,-4.226,-4.1526,-4.0694,-4.0279,-4.015,-3.9295,-3.8916,-3.8896,-3.8769,-3.8614,-3.8479,-3.8459,-3.8014,-3.7181,-3.7006,-3.6599,-3.596,-3.5786,-3.5728,-3.5708,-3.5708,-3.5883,-3.6251,-3.7549,-3.7964,-3.7403,-3.7215,-3.7746,-3.8988,-3.8056,-3.7127,-3.6248,-3.5599,-3.4563,-3.316,-3.3102,-3.3102,-3.3102,-3.2947,-3.2309,-3.1139,-3.0752,-3.0017,-2.8799,-2.8528,-2.8724,-2.9327,-2.9313,-2.9494,-2.9912,-2.9806,-2.9419,-2.8688,-2.9288,-2.9683,-2.9607,-2.9607,-2.9589,-2.9531,-2.9472,-2.9451,-2.9433,-2.9203,-2.9026,-2.8984,-2.8718,-2.8504,-2.8504,-2.8298,-2.8183,-2.8183,-2.7992,-2.7829,-2.78,-2.78,-2.7742,-2.773,-2.7701,-2.7701,-2.7701,-2.7701,-2.7701,-2.7701,-2.7659,-2.76,-2.76,-2.7539,-2.7509,-2.7496,-2.7452,-2.7459,-2.7636,-2.7552,-2.7575,-2.7678,-2.7749,-2.7564,-2.7266,-2.7657,-2.7906,-2.7271,-2.6932,-2.6676,-5.1123,-5.0937,-5.0937,-4.9926,-4.8415,-4.9153,-4.8978,-4.8005,-4.5863,-4.4747,-4.4536,-4.445,-4.4367,-4.4211,-4.3344,-4.2963,-4.2875,-4.2039,-4.1637,-4.1598,-4.0915,-4.0208,-3.9507,-3.9487,-3.9026,-3.817,-3.7449,-3.7001,-3.6845,-3.6158,-3.5788,-3.5781,-3.5788,-3.6521,-3.791,-3.8254,-3.8682,-3.9279,-3.8471,-3.7799,-3.7326,-3.5756,-3.4555,-3.3763,-3.3606,-3.3383,-3.3121,-3.3131,-3.3102,-3.3082,-3.2386,-3.2203,-3.2687,-3.141,-3.0791,-3.1178,-3.0617,-3.026,-3.0366,-3.0235,-3.0119,-3.0061,-2.9934,-2.9767,-2.9551,-2.9626,-2.9701,-2.9683,-2.9664,-2.9683,-2.9664,-2.9645,-2.9626,-2.9569,-2.9332,-2.9126,-2.9123,-2.8795,-2.8603,-2.8628,-2.8504,-2.8453,-2.8453,-2.8384,-2.8246,-2.8102,-2.802,-2.7936,-2.7771,-2.7701,-2.7701,-2.7701,-2.7701,-2.7701,-2.7701,-2.7701,-2.7689,-2.7683,-2.7665,-2.7692,-2.7674,-2.7639,-2.7788,-2.8241,-2.8263,-2.8472,-2.8954,-2.9196,-2.9024,-2.8922,-2.9059,-2.9127,-2.8934,-2.8902,-2.864,-5.1327,-5.1359,-5.1361,-5.0896,-5.0175,-5.0078,-4.9843,-4.9315,-4.7734,-4.6738,-4.6284,-4.5794,-4.5559,-4.5481,-4.4657,-4.4237,-4.4157,-4.3305,-4.2651,-4.2183,-4.1816,-4.1187,-4.0398,-4.0349,-3.992,-3.9087,-3.8717,-3.8029,-3.7141,-3.6679,-3.625,-3.583,-3.5797,-3.644,-3.7598,-3.7701,-3.811,-3.8974,-3.9007,-3.8602,-3.7778,-3.6522,-3.5694,-3.5321,-3.4839,-3.4571,-3.4571,-3.4571,-3.4548,-3.4516,-3.4138,-3.3887,-3.3789,-3.3073,-3.2396,-3.1835,-3.1449,-3.1062,-3.0636,-3.0419,-3.0271,-3.0209,-3.0095,-2.9969,-2.9825,-2.9738,-2.9701,-2.9701,-2.9701,-2.9701,-2.9701,-2.9683,-2.9645,-2.9607,-2.9453,-2.9353,-2.9314,-2.9191,-2.9104,-2.9082,-2.8906,-2.8772,-2.8772,-2.8603,-2.846,-2.8324,-2.8192,-2.8029,-2.7926,-2.7783,-2.773,-2.7701,-2.7701,-2.7701,-2.7701,-2.7701,-2.7701,-2.7701,-2.804,-2.8272,-2.8343,-2.8432,-2.8789,-2.9119,-2.9106,-2.9127,-2.9506,-2.9506,-2.9506,-2.9558,-2.9903,-3.0005,-2.9896,-3.008,-2.9932,-5.1346,-5.1385,-5.1385,-5.1398,-5.1355,-5.0692,-5.0399,-5.0301,-4.9442,-4.8714,-4.7986,-4.6971,-4.6424,-4.617,-4.5526,-4.5195,-4.5028,-4.424,-4.3359,-4.2575,-4.2331,-4.1784,-4.1007,-4.0941,-4.061,-4.0044,-3.9829,-3.9045,-3.7812,-3.7347,-3.6703,-3.5935,-3.5841,-3.627,-3.7117,-3.7145,-3.7472,-3.8146,-3.8809,-3.8839,-3.8135,-3.7448,-3.7019,-3.6776,-3.6167,-3.5791,-3.5791,-3.5791,-3.5768,-3.5733,-3.5725,-3.5402,-3.4759,-3.4517,-3.3732,-3.231,-3.1923,-3.1478,-3.0704,-3.0481,-3.037,-3.0362,-3.0234,-3.0117,-3.0011,-2.9891,-2.9792,-2.9701,-2.9701,-2.9701,-2.9701,-2.9645,-2.9626,-2.9607,-2.9569,-2.9531,-2.9531,-2.9531,-2.9512,-2.9492,-2.9291,-2.9104,-2.906,-2.8883,-2.87,-2.8603,-2.8376,-2.8192,-2.8166,-2.7992,-2.7897,-2.784,-2.78,-2.7701,-2.7701,-2.7701,-2.7789,-2.7894,-2.8456,-2.8877,-2.9109,-2.9557,-2.9878,-2.9967,-2.9953,-2.9989,-3.0041,-3.0196,-3.0265,-3.0404,-3.0786,-3.0922,-3.0629,-3.0857,-3.1014,-5.1385,-5.1398,-5.1402,-5.1398,-5.1375,-5.1297,-5.1258,-5.1141,-5.036,-4.995,-4.9622,-4.8177,-4.7048,-4.6365,-4.6189,-4.6114,-4.6058,-4.5263,-4.4386,-4.3528,-4.2749,-4.1911,-4.1151,-4.1092,-4.1052,-4.0858,-4.0252,-3.9804,-3.9414,-3.7987,-3.6854,-3.6073,-3.5975,-3.6386,-3.7167,-3.7245,-3.7323,-3.7401,-3.748,-3.7459,-3.7312,-3.7177,-3.6762,-3.6024,-3.5875,-3.5791,-3.5802,-3.5791,-3.5791,-3.5805,-3.5786,-3.5762,-3.5597,-3.4948,-3.4074,-3.3122,-3.2338,-3.1505,-3.0711,-3.0586,-3.0567,-3.0585,-3.0433,-3.0359,-3.034,-3.0241,-3.003,-2.979,-2.9701,-2.9701,-2.9701,-2.9683,-2.9683,-2.9683,-2.9683,-2.9664,-2.9664,-2.9626,-2.9588,-2.9588,-2.9472,-2.9434,-2.9394,-2.9314,-2.9206,-2.8966,-2.867,-2.8478,-2.8478,-2.8384,-2.835,-2.8298,-2.8047,-2.7771,-2.776,-2.7701,-2.8106,-2.8657,-2.889,-2.9374,-2.992,-3.012,-3.0117,-3.1017,-3.0938,-3.1045,-3.155,-3.1987,-3.2035,-3.1806,-3.1914,-3.2004,-3.1752,-3.1714,-3.1649,-5.1394,-5.1394,-5.1394,-5.1394,-5.1394,-5.1394,-5.1394,-5.1355,-5.1023,-5.0594,-5.0067,-4.9364,-4.8349,-4.7061,-4.6534,-4.63,-4.6261,-4.5932,-4.5288,-4.4429,-4.3579,-4.2702,-4.1878,-4.1316,-4.1103,-4.1103,-4.075,-4.0342,-3.9662,-3.8139,-3.7122,-3.6749,-3.6261,-3.6184,-3.6518,-3.6536,-3.6536,-3.6537,-3.6537,-3.6522,-3.6503,-3.6461,-3.6304,-3.5995,-3.5934,-3.5911,-3.593,-3.5912,-3.5908,-3.5874,-3.5874,-3.5838,-3.5791,-3.5464,-3.4865,-3.3981,-3.2663,-3.1504,-3.0671,-3.0613,-3.0621,-3.0602,-3.0557,-3.0482,-3.0392,-3.0337,-3.0228,-3.0041,-2.9888,-2.9825,-2.9806,-2.9737,-2.9701,-2.9701,-2.9701,-2.9701,-2.9701,-2.9664,-2.9645,-2.9645,-2.9607,-2.955,-2.955,-2.9492,-2.9412,-2.927,-2.9016,-2.8795,-2.8795,-2.8628,-2.8529,-2.8478,-2.8298,-2.8192,-2.8219,-2.8658,-2.9052,-2.9482,-3.027,-3.104,-3.119,-3.1696,-3.201,-3.2264,-3.2133,-3.214,-3.2488,-3.2663,-3.2759,-3.2727,-3.2745,-3.2634,-3.2318,-3.2385,-3.2401,-5.1394,-5.1394,-5.1394,-5.1394,-5.1394,-5.1394,-5.1394,-5.1394,-5.1394,-5.1023,-5.0457,-5.0223,-4.9306,-4.7939,-4.7022,-4.6554,-4.6319,-4.63,-4.5831,-4.5012,-4.4351,-4.3476,-4.2415,-4.1777,-4.1331,-4.1136,-4.1097,-4.067,-3.9813,-3.868,-3.776,-3.729,-3.6665,-3.6218,-3.6026,-3.6003,-3.6003,-3.6026,-3.6007,-3.6007,-3.6026,-3.6007,-3.6009,-3.601,-3.601,-3.601,-3.601,-3.601,-3.5975,-3.5917,-3.5936,-3.589,-3.5838,-3.5821,-3.5431,-3.4477,-3.2862,-3.1637,-3.0986,-3.0754,-3.0618,-3.0626,-3.0626,-3.0602,-3.052,-3.0501,-3.0442,-3.0325,-3.0131,-3.0007,-2.9905,-2.9823,-2.9737,-2.9701,-2.9701,-2.9701,-2.9701,-2.9701,-2.9701,-2.9701,-2.9645,-2.9607,-2.9588,-2.955,-2.9511,-2.9453,-2.9272,-2.9126,-2.9104,-2.8952,-2.8795,-2.879,-2.8918,-2.9047,-2.896,-2.9282,-2.9842,-3.0603,-3.1492,-3.2061,-3.2426,-3.2954,-3.3178,-3.2829,-3.3033,-3.3087,-3.3027,-3.3057,-3.316,-3.313,-3.313,-3.3039,-3.2731,-3.2903,-3.2854,-5.1394,-5.1394,-5.1394,-5.1394,-5.1394,-5.1394,-5.1394,-5.1394,-5.1394,-5.1355,-5.116,-5.0496,-4.9618,-4.872,-4.79,-4.7081,-4.6358,-4.63,-4.587,-4.5109,-4.4933,-4.4016,-4.2454,-4.2337,-4.1888,-4.115,-4.1111,-4.0681,-3.9881,-3.9683,-3.8863,-3.7419,-3.7243,-3.6813,-3.6189,-3.6052,-3.6013,-3.6013,-3.6013,-3.6013,-3.6013,-3.6013,-3.6021,-3.6009,-3.601,-3.601,-3.601,-3.601,-3.5992,-3.5992,-3.5992,-3.5957,-3.591,-3.588,-3.5471,-3.4486,-3.2923,-3.1945,-3.1786,-3.1185,-3.0766,-3.0741,-3.0703,-3.0695,-3.0665,-3.0657,-3.0629,-3.0593,-3.0433,-3.0239,-2.9984,-2.9912,-2.9836,-2.9756,-2.9701,-2.9701,-2.972,-2.972,-2.9701,-2.9701,-2.9719,-2.9683,-2.9626,-2.9607,-2.9589,-2.9569,-2.9492,-2.9454,-2.9435,-2.9434,-2.9394,-2.9524,-2.9893,-3.0379,-2.9885,-3.025,-3.0818,-3.1492,-3.2128,-3.2528,-3.2933,-3.3273,-3.3321,-3.335,-3.339,-3.339,-3.3379,-3.3419,-3.3532,-3.3542,-3.3542,-3.3382,-3.3136,-3.3039,-3.3009,-5.139,-5.1394,-5.1394,-5.1394,-5.1394,-5.1394,-5.1394,-5.1394,-5.1394,-5.1394,-5.1355,-5.1063,-5.0438,-4.9599,-4.874,-4.7608,-4.6378,-4.63,-4.6124,-4.5773,-4.5265,-4.4367,-4.3274,-4.2689,-4.1967,-4.1225,-4.1108,-4.0952,-4.062,-4.0093,-3.9527,-3.8804,-3.7809,-3.7106,-3.6774,-3.6264,-3.601,-3.601,-3.601,-3.601,-3.601,-3.601,-3.6016,-3.6018,-3.6021,-3.6021,-3.6021,-3.6021,-3.6021,-3.6021,-3.6021,-3.5987,-3.5956,-3.5929,-3.5518,-3.4633,-3.393,-3.3336,-3.28,-3.1996,-3.1538,-3.1487,-3.1001,-3.071,-3.0703,-3.0703,-3.0695,-3.0661,-3.0626,-3.0482,-3.0256,-3.0117,-3.0015,-2.9937,-2.9842,-2.9825,-2.9839,-2.9771,-2.9755,-2.9888,-2.9888,-2.9825,-2.9789,-2.9789,-2.9789,-2.9753,-2.9716,-2.968,-2.9681,-2.957,-2.9532,-2.972,-3.0225,-3.0831,-3.1273,-3.1681,-3.2188,-3.2582,-3.308,-3.343,-3.3821,-3.3805,-3.385,-3.3805,-3.3778,-3.3797,-3.3797,-3.3823,-3.3902,-3.3928,-3.3884,-3.3752,-3.356,-3.3524,-3.3496,-5.1386,-5.1394,-5.139,-5.139,-5.1394,-5.139,-5.139,-5.1394,-5.1394,-5.1394,-5.1394,-5.1394,-5.0926,-5.0048,-4.9189,-4.8076,-4.6768,-4.6456,-4.63,-4.6241,-4.5695,-4.4953,-4.4094,-4.3216,-4.2376,-4.1576,-4.1225,-4.1108,-4.1049,-4.0522,-4.0073,-3.9702,-3.8375,-3.7555,-3.7223,-3.644,-3.601,-3.601,-3.601,-3.601,-3.601,-3.601,-3.601,-3.601,-3.601,-3.601,-3.601,-3.601,-3.601,-3.601,-3.601,-3.5996,-3.5968,-3.5934,-3.563,-3.5076,-3.4711,-3.4309,-3.3738,-3.2919,-3.2302,-3.2011,-3.1487,-3.104,-3.0768,-3.069,-3.069,-3.069,-3.069,-3.0622,-3.0509,-3.0367,-3.0228,-3.0161,-3.0015,-2.9965,-3.0018,-2.995,-2.9969,-3.0071,-3.0022,-2.9965,-2.9984,-2.9965,-2.9965,-2.9946,-2.9934,-2.9915,-2.9883,-2.9801,-2.9715,-2.9912,-3.0785,-3.1487,-3.2127,-3.2746,-3.3187,-3.358,-3.3626,-3.4083,-3.4269,-3.4245,-3.4221,-3.4221,-3.4221,-3.4197,-3.4216,-3.4216,-3.4216,-3.4216,-3.4148,-3.3986,-3.3979,-3.403,-3.4012,-5.1386,-5.139,-5.1381,-5.1381,-5.139,-5.1401,-5.1386,-5.139,-5.1394,-5.1394,-5.1394,-5.1394,-5.0965,-5.0106,-4.9228,-4.8349,-4.7569,-4.671,-4.63,-4.628,-4.6222,-4.5734,-4.4855,-4.4075,-4.3157,-4.224,-4.1479,-4.1108,-4.1088,-4.0991,-4.06,-3.9839,-3.898,-3.8121,-3.734,-3.6521,-3.601,-3.601,-3.601,-3.601,-3.601,-3.601,-3.601,-3.601,-3.601,-3.601,-3.601,-3.601,-3.601,-3.601,-3.601,-3.5966,-3.5937,-3.5911,-3.5876,-3.5698,-3.51,-3.4667,-3.4539,-3.381,-3.2958,-3.2426,-3.2069,-3.172,-3.1195,-3.1001,-3.0982,-3.102,-3.0982,-3.0858,-3.0909,-3.0873,-3.0645,-3.0266,-3.0184,-3.0171,-3.0196,-3.0216,-3.0203,-3.0196,-3.0155,-3.0122,-3.0109,-3.0109,-3.0109,-3.0089,-3.0089,-3.0089,-3.0095,-3.0032,-3.008,-3.0438,-3.1295,-3.2224,-3.3016,-3.3756,-3.4111,-3.4427,-3.4304,-3.4394,-3.439,-3.4386,-3.434,-3.4298,-3.4245,-3.4245,-3.4221,-3.4221,-3.4269,-3.4269,-3.4221,-3.4274,-3.4344,-3.439,-3.4413,-5.1386,-5.1386,-5.1386,-5.1386,-5.1386,-5.1386,-5.1391,-5.1381,-5.1381,-5.1386,-5.1394,-5.1394,-5.1238,-5.0692,-4.9501,-4.8662,-4.831,-4.7002,-4.63,-4.63,-4.63,-4.5851,-4.5109,-4.4719,-4.3821,-4.2454,-4.1518,-4.1108,-4.1108,-4.1108,-4.0932,-4.0483,-3.9292,-3.8512,-3.8102,-3.6794,-3.601,-3.601,-3.601,-3.601,-3.601,-3.601,-3.601,-3.601,-3.601,-3.601,-3.601,-3.601,-3.601,-3.601,-3.601,-3.5996,-3.5968,-3.5918,-3.5896,-3.5856,-3.5664,-3.549,-3.5369,-3.4691,-3.4068,-3.3712,-3.3232,-3.2827,-3.2555,-3.2438,-3.2419,-3.2438,-3.2497,-3.2497,-3.2497,-3.2481,-3.1881,-3.0617,-3.0359,-3.0414,-3.0546,-3.053,-3.0381,-3.0253,-3.0247,-3.0302,-3.0328,-3.0328,-3.0278,-3.0247,-3.0234,-3.0247,-3.0253,-3.019,-3.045,-3.1066,-3.2067,-3.2809,-3.3379,-3.4048,-3.4685,-3.4794,-3.4736,-3.4614,-3.4591,-3.4545,-3.4502,-3.4435,-3.4367,-3.434,-3.4298,-3.4298,-3.4367,-3.4431,-3.4476,-3.4545,-3.4651,-3.4672,-3.4693,-5.1369,-5.1394,-5.1369,-5.1336,-5.1296,-5.1289,-5.1242,-5.1215,-5.1215,-5.1222,-5.1211,-5.1238,-5.1245,-5.0894,-4.9458,-4.8717,-4.8503,-4.6924,-4.6144,-4.6176,-4.6273,-4.5968,-4.5382,-4.4758,-4.3821,-4.2494,-4.1518,-4.1108,-4.1108,-4.1108,-4.1108,-4.0834,-3.9702,-3.8863,-3.8531,-3.7243,-3.6381,-3.6069,-3.601,-3.601,-3.601,-3.601,-3.601,-3.601,-3.601,-3.601,-3.601,-3.601,-3.601,-3.601,-3.601,-3.601,-3.5991,-3.5966,-3.5932,-3.5933,-3.5898,-3.5875,-3.5834,-3.5389,-3.4897,-3.4577,-3.4086,-3.3595,-3.34,-3.3304,-3.3301,-3.3297,-3.3257,-3.3293,-3.3274,-3.3274,-3.2714,-3.1781,-3.1564,-3.1468,-3.1523,-3.154,-3.1534,-3.1418,-3.1186,-3.1013,-3.0965,-3.0588,-3.0491,-3.0413,-3.0402,-3.0422,-3.04,-3.0344,-3.0791,-3.1361,-3.2165,-3.2852,-3.35,-3.4293,-3.5182,-3.5193,-3.5062,-3.4924,-3.4813,-3.4794,-3.4754,-3.4734,-3.4655,-3.4655,-3.4634,-3.4614,-3.4634,-3.4693,-3.4732,-3.4793,-3.4851,-3.487,-3.4908,-5.131,-5.1336,-5.1303,-5.1178,-5.1093,-5.1092,-5.1027,-5.0914,-5.0914,-5.0927,-5.0946,-5.1004,-5.1004,-5.0635,-4.9262,-4.8505,-4.8172,-4.6717,-4.592,-4.5987,-4.6131,-4.6167,-4.5987,-4.4738,-4.3587,-4.2591,-4.1693,-4.1205,-4.1108,-4.1108,-4.1108,-4.0987,-4.0141,-3.9367,-3.8544,-3.7708,-3.6765,-3.6105,-3.5985,-3.5985,-3.6007,-3.5985,-3.6007,-3.6007,-3.6007,-3.6007,-3.6007,-3.6007,-3.601,-3.601,-3.601,-3.6007,-3.602,-3.602,-3.5981,-3.5997,-3.594,-3.5911,-3.5895,-3.582,-3.5502,-3.4874,-3.4736,-3.4351,-3.3815,-3.379,-3.3796,-3.3756,-3.3698,-3.3614,-3.3626,-3.3658,-3.3553,-3.3448,-3.3114,-3.3017,-3.3208,-3.3114,-3.2876,-3.2837,-3.2469,-3.1967,-3.1919,-3.1261,-3.0864,-3.072,-3.0673,-3.0567,-3.0577,-3.054,-3.0608,-3.1313,-3.2268,-3.3048,-3.3747,-3.468,-3.5457,-3.5451,-3.5331,-3.5209,-3.5045,-3.5013,-3.498,-3.4925,-3.4943,-3.4961,-3.4925,-3.4851,-3.487,-3.4981,-3.4999,-3.5016,-3.5069,-3.5119,-3.5152,-5.1078,-5.0966,-5.0933,-5.0907,-5.0874,-5.0879,-5.0845,-5.0826,-5.0826,-5.0845,-5.0887,-5.092,-5.094,-5.0804,-4.9149,-4.8386,-4.7978,-4.6608,-4.5832,-4.5844,-4.5949,-4.6125,-4.6093,-4.5187,-4.4169,-4.329,-4.237,-4.1729,-4.1156,-4.109,-4.109,-4.1061,-4.0168,-3.9291,-3.8482,-3.759,-3.6737,-3.6099,-3.5899,-3.5904,-3.5962,-3.5899,-3.5924,-3.6009,-3.5994,-3.5994,-3.6013,-3.6013,-3.602,-3.601,-3.601,-3.6007,-3.6001,-3.5997,-3.6013,-3.599,-3.5974,-3.5981,-3.5949,-3.5929,-3.576,-3.5605,-3.5465,-3.5457,-3.5265,-3.5198,-3.5213,-3.5218,-3.5207,-3.5143,-3.5115,-3.5112,-3.5126,-3.4991,-3.4144,-3.3437,-3.341,-3.3285,-3.3285,-3.3247,-3.3103,-3.294,-3.2707,-3.2089,-3.1526,-3.1394,-3.1017,-3.0621,-3.0613,-3.0632,-3.0653,-3.1554,-3.2464,-3.3258,-3.4098,-3.5046,-3.5615,-3.5662,-3.5577,-3.5502,-3.5331,-3.5178,-3.5114,-3.5064,-3.5098,-3.513,-3.5047,-3.4978,-3.5083,-3.5232,-3.5247,-3.5258,-3.5383,-3.5476,-3.5451,-5.0898,-5.0809,-5.0809,-5.0778,-5.0711,-5.0731,-5.0677,-5.0585,-5.0585,-5.0622,-5.064,-5.0694,-5.0711,-5.0554,-4.8952,-4.8214,-4.7998,-4.6437,-4.5669,-4.5665,-4.5736,-4.5908,-4.587,-4.5228,-4.439,-4.3539,-4.2676,-4.1786,-4.1098,-4.0961,-4.0948,-4.0848,-4.0341,-3.9485,-3.8357,-3.7821,-3.6892,-3.6034,-3.5753,-3.576,-3.5807,-3.576,-3.576,-3.584,-3.5878,-3.5943,-3.6001,-3.6005,-3.6009,-3.602,-3.602,-3.5997,-3.597,-3.5966,-3.5962,-3.5953,-3.5953,-3.5953,-3.5934,-3.5919,-3.589,-3.5879,-3.5895,-3.5917,-3.5878,-3.5918,-3.5894,-3.5839,-3.5894,-3.5884,-3.5871,-3.5877,-3.5875,-3.5675,-3.4956,-3.4374,-3.4357,-3.4439,-3.4381,-3.4284,-3.4051,-3.3813,-3.3723,-3.2718,-3.2108,-3.1785,-3.1134,-3.0828,-3.0637,-3.0637,-3.0754,-3.1452,-3.2083,-3.2714,-3.3392,-3.4274,-3.5087,-3.5233,-3.5717,-3.566,-3.5554,-3.5393,-3.5372,-3.5325,-3.5316,-3.5283,-3.5249,-3.5264,-3.5366,-3.5463,-3.5463,-3.5512,-3.5609,-3.5658,-3.5649,-5.0758,-5.0761,-5.0761,-5.0678,-5.0586,-5.0567,-5.0485,-5.0329,-5.0329,-5.0329,-5.0352,-5.039,-5.044,-5.0298,-4.8758,-4.7969,-4.7894,-4.6225,-4.5573,-4.5437,-4.5524,-4.5694,-4.5735,-4.5267,-4.4345,-4.3423,-4.2498,-4.1694,-4.1044,-4.0761,-4.0729,-4.071,-4.0641,-3.9699,-3.8461,-3.8072,-3.7219,-3.5922,-3.5592,-3.5602,-3.564,-3.5602,-3.5611,-3.5659,-3.5729,-3.582,-3.5897,-3.5933,-3.5938,-3.5943,-3.5973,-3.5929,-3.5899,-3.588,-3.5899,-3.5914,-3.5914,-3.5894,-3.5889,-3.5899,-3.588,-3.588,-3.589,-3.5913,-3.5946,-3.5911,-3.5897,-3.5888,-3.5898,-3.5898,-3.5894,-3.5891,-3.5882,-3.5851,-3.5796,-3.5841,-3.5827,-3.5803,-3.5803,-3.5784,-3.5053,-3.4776,-3.4288,-3.3348,-3.2156,-3.2338,-3.1576,-3.0845,-3.0697,-3.0697,-3.0665,-3.0801,-3.1409,-3.1957,-3.2648,-3.3367,-3.4112,-3.4678,-3.5489,-3.5749,-3.5704,-3.5621,-3.5659,-3.5639,-3.5551,-3.5551,-3.56,-3.564,-3.5641,-3.564,-3.563,-3.5679,-3.5756,-3.5748,-3.5741,-5.0548,-5.0421,-5.0421,-5.0399,-5.0374,-5.0352,-5.0329,-5.0302,-5.0302,-5.0302,-5.0302,-5.0302,-5.0348,-5.0256,-4.8668,-4.7884,-4.7658,-4.6143,-4.5339,-4.538,-4.5341,-4.5419,-4.5519,-4.538,-4.4626,-4.3501,-4.3067,-4.2114,-4.1064,-4.0692,-4.0711,-4.0674,-4.0486,-3.9733,-3.8322,-3.7926,-3.7186,-3.5855,-3.5481,-3.55,-3.5566,-3.5488,-3.5488,-3.5588,-3.563,-3.565,-3.567,-3.5689,-3.5698,-3.5706,-3.5772,-3.5807,-3.5801,-3.5813,-3.5846,-3.5872,-3.5883,-3.5883,-3.5889,-3.5883,-3.5889,-3.5899,-3.589,-3.5929,-3.5904,-3.5899,-3.5892,-3.5899,-3.5892,-3.5882,-3.5895,-3.5898,-3.5895,-3.5894,-3.5891,-3.5906,-3.5893,-3.5861,-3.5864,-3.5806,-3.5689,-3.5584,-3.5474,-3.3965,-3.3083,-3.2859,-3.1975,-3.0973,-3.0751,-3.0743,-3.0711,-3.0691,-3.11,-3.1679,-3.1985,-3.2731,-3.3497,-3.4101,-3.4862,-3.5552,-3.5529,-3.5626,-3.5561,-3.5652,-3.5768,-3.5781,-3.5753,-3.5755,-3.5735,-3.5762,-3.5774,-3.5802,-3.5817,-3.5812,-3.5841,-5.0377,-5.0302,-5.0302,-5.0302,-5.0302,-5.0302,-5.0302,-5.0302,-5.0302,-5.0302,-5.0302,-5.0302,-5.0115,-4.9698,-4.843,-4.7649,-4.7021,-4.5948,-4.5317,-4.5338,-4.5317,-4.5338,-4.5227,-4.4991,-4.4241,-4.3173,-4.3003,-4.2063,-4.0911,-4.0511,-4.0504,-4.0504,-4.0447,-3.9487,-3.8161,-3.7836,-3.6953,-3.571,-3.5355,-3.5355,-3.5397,-3.5336,-3.5364,-3.547,-3.5507,-3.5519,-3.5588,-3.5618,-3.5585,-3.5543,-3.5579,-3.5631,-3.5697,-3.5717,-3.5735,-3.576,-3.5749,-3.5791,-3.5787,-3.5807,-3.5833,-3.5889,-3.5889,-3.5889,-3.5889,-3.5889,-3.5889,-3.5889,-3.588,-3.588,-3.589,-3.5882,-3.5911,-3.5933,-3.5934,-3.5954,-3.5935,-3.5916,-3.5882,-3.5884,-3.5862,-3.5554,-3.4992,-3.3957,-3.3154,-3.2531,-3.1719,-3.0774,-3.0771,-3.0765,-3.0768,-3.0843,-3.11,-3.1393,-3.1529,-3.2121,-3.2951,-3.3506,-3.4039,-3.4667,-3.4996,-3.5181,-3.5366,-3.5588,-3.5821,-3.5807,-3.5791,-3.5792,-3.5825,-3.5841,-3.5848,-3.5851,-3.5879,-3.5908,-3.593,-5.0302,-5.0302,-5.0302,-5.0302,-5.0302,-5.0302,-5.0302,-5.0302,-5.0302,-5.0302,-5.0302,-5.0302,-4.9901,-4.906,-4.8239,-4.7302,-4.6347,-4.5736,-4.5297,-4.5297,-4.5297,-4.5297,-4.5147,-4.4517,-4.3752,-4.2966,-4.2621,-4.1664,-4.0689,-4.031,-4.0364,-4.031,-4.031,-3.9372,-3.8093,-3.7634,-3.6905,-3.5487,-3.5223,-3.5223,-3.5223,-3.5207,-3.5285,-3.5355,-3.5364,-3.5391,-3.5457,-3.5502,-3.5457,-3.5383,-3.5369,-3.5418,-3.5495,-3.5554,-3.5577,-3.5607,-3.5639,-3.565,-3.5687,-3.5685,-3.5729,-3.5859,-3.5852,-3.5852,-3.5852,-3.5883,-3.5889,-3.5889,-3.5894,-3.5894,-3.5885,-3.588,-3.5923,-3.5962,-3.5966,-3.5962,-3.5974,-3.5954,-3.5918,-3.5898,-3.5644,-3.5253,-3.4589,-3.3711,-3.293,-3.2148,-3.1344,-3.079,-3.079,-3.0792,-3.0795,-3.0797,-3.0994,-3.1092,-3.1209,-3.1736,-3.2558,-3.2871,-3.3318,-3.3844,-3.4349,-3.4451,-3.4726,-3.5595,-3.5876,-3.5812,-3.5815,-3.586,-3.5888,-3.5894,-3.5916,-3.5915,-3.5957,-3.6011,-3.5992,-5.0302,-5.0302,-5.0302,-5.0302,-5.0302,-5.0302,-5.0302,-5.0302,-5.0302,-5.0302,-5.0302,-5.0283,-4.9843,-4.9003,-4.82,-4.6997,-4.5851,-4.5354,-4.5277,-4.5277,-4.5277,-4.5277,-4.4991,-4.4246,-4.3502,-4.2794,-4.2106,-4.117,-4.0539,-4.0329,-4.0329,-4.0329,-4.0329,-3.9412,-3.8228,-3.7597,-3.691,-3.5592,-3.5248,-3.519,-3.519,-3.519,-3.5209,-3.5254,-3.5235,-3.5254,-3.5258,-3.5277,-3.5248,-3.5179,-3.5162,-3.5176,-3.5239,-3.5369,-3.5457,-3.5531,-3.5562,-3.5554,-3.5579,-3.562,-3.562,-3.566,-3.5704,-3.5718,-3.5753,-3.5807,-3.584,-3.5852,-3.5852,-3.5864,-3.5889,-3.5858,-3.5889,-3.5914,-3.5894,-3.5894,-3.5899,-3.5802,-3.5763,-3.5689,-3.5282,-3.4705,-3.3929,-3.3229,-3.2508,-3.1864,-3.1244,-3.0837,-3.0798,-3.0797,-3.0795,-3.0792,-3.081,-3.0849,-3.0868,-3.1534,-3.2178,-3.2277,-3.2645,-3.3112,-3.348,-3.3556,-3.4017,-3.4863,-3.5547,-3.5742,-3.5781,-3.582,-3.5918,-3.5934,-3.5954,-3.5954,-3.5942,-3.5926,-3.5957,-5.0302,-5.0302,-5.0302,-5.0302,-5.0302,-5.0302,-5.0302,-5.0302,-5.0302,-5.0302,-5.0302,-5.0245,-4.9576,-4.8602,-4.8067,-4.6882,-4.566,-4.5277,-4.5277,-4.5277,-4.5277,-4.501,-4.4609,-4.3787,-4.2947,-4.2106,-4.1285,-4.075,-4.0348,-4.0329,-4.031,-4.0329,-4.031,-3.9642,-3.8534,-3.7903,-3.7063,-3.6012,-3.5441,-3.519,-3.519,-3.519,-3.519,-3.5193,-3.5176,-3.5179,-3.5181,-3.5147,-3.5147,-3.511,-3.5092,-3.5092,-3.5108,-3.5174,-3.5266,-3.534,-3.5355,-3.5378,-3.5425,-3.5451,-3.5488,-3.5607,-3.5621,-3.5611,-3.5621,-3.565,-3.5704,-3.5657,-3.5648,-3.5648,-3.5668,-3.5704,-3.5704,-3.5732,-3.5721,-3.5729,-3.5624,-3.5302,-3.5142,-3.5139,-3.4837,-3.4164,-3.3177,-3.2537,-3.1987,-3.1484,-3.1055,-3.0879,-3.0778,-3.0758,-3.0758,-3.0762,-3.0762,-3.0742,-3.0742,-3.1129,-3.1601,-3.1721,-3.1861,-3.2326,-3.2602,-3.2658,-3.3269,-3.4083,-3.4691,-3.5079,-3.5457,-3.5423,-3.5686,-3.5868,-3.5767,-3.5701,-3.5797,-3.5846,-3.5665,-5.0278,-5.0278,-5.0278,-5.0278,-5.0278,-5.0302,-5.0302,-5.0302,-5.0302,-5.0302,-5.0283,-5.0034,-4.9194,-4.8028,-4.7302,-4.65,-4.5297,-4.5277,-4.5277,-4.5239,-4.501,-4.4609,-4.3959,-4.3004,-4.2202,-4.1648,-4.0807,-4.0329,-4.0329,-4.0329,-4.0291,-4.0291,-4.0272,-3.9814,-3.8917,-3.804,-3.7276,-3.6455,-3.5634,-3.5196,-3.5176,-3.5176,-3.5141,-3.5124,-3.5126,-3.5127,-3.502,-3.5075,-3.5056,-3.5038,-3.5038,-3.5038,-3.5075,-3.5075,-3.5075,-3.5075,-3.5075,-3.5157,-3.5232,-3.5258,-3.5336,-3.5432,-3.5526,-3.5507,-3.5481,-3.5473,-3.5485,-3.5411,-3.5411,-3.5434,-3.5488,-3.5516,-3.5527,-3.5568,-3.5538,-3.5419,-3.5134,-3.4719,-3.411,-3.4078,-3.4127,-3.3544,-3.2512,-3.1831,-3.1281,-3.1164,-3.0761,-3.0748,-3.067,-3.0686,-3.0691,-3.0701,-3.0701,-3.0687,-3.0682,-3.0677,-3.0969,-3.1047,-3.1125,-3.1378,-3.1583,-3.1748,-3.2396,-3.2898,-3.3429,-3.3819,-3.4386,-3.48,-3.4715,-3.4787,-3.5171,-3.5178,-3.4815,-3.4724,-3.4653,-5.0212,-5.0212,-5.0212,-5.0212,-5.0212,-5.0278,-5.0302,-5.0302,-5.0302,-5.0302,-5.0149,-4.9538,-4.8713,-4.7583,-4.617,-4.5543,-4.5295,-4.5173,-4.5132,-4.5055,-4.4484,-4.4067,-4.3689,-4.2316,-4.1626,-4.111,-4.0539,-4.0368,-4.0234,-4.0234,-4.0273,-4.0234,-4.0139,-3.9814,-3.9033,-3.808,-3.7204,-3.6386,-3.553,-3.5092,-3.5092,-3.5092,-3.4964,-3.4889,-3.4927,-3.4945,-3.4753,-3.4831,-3.4908,-3.4889,-3.4908,-3.4927,-3.4927,-3.4927,-3.4927,-3.4945,-3.502,-3.511,-3.5126,-3.5143,-3.516,-3.5219,-3.5281,-3.5311,-3.5336,-3.5347,-3.5348,-3.5411,-3.5386,-3.5361,-3.5368,-3.5449,-3.5492,-3.5423,-3.5328,-3.4974,-3.4593,-3.3775,-3.3191,-3.2667,-3.2619,-3.2387,-3.1748,-3.1176,-3.0634,-3.0585,-3.0543,-3.056,-3.0583,-3.0586,-3.06,-3.0607,-3.0614,-3.062,-3.0601,-3.0594,-3.0594,-3.0587,-3.0626,-3.0658,-3.0892,-3.1093,-3.0892,-3.1397,-3.198,-3.2538,-3.3005,-3.3297,-3.3417,-3.374,-3.412,-3.3868,-3.3413,-3.3455,-3.3692,-5.0089,-5.0158,-5.0158,-5.0158,-5.0139,-5.0182,-5.0207,-5.0231,-5.0188,-4.994,-4.9563,-4.9177,-4.8172,-4.6681,-4.5237,-4.4624,-4.4606,-4.4657,-4.4631,-4.4449,-4.3788,-4.3164,-4.2516,-4.1539,-4.0797,-4.0299,-3.9909,-3.9651,-3.9747,-4.0058,-4.0215,-4.0176,-4.0138,-4.0022,-3.9257,-3.8194,-3.7451,-3.6556,-3.5528,-3.479,-3.4812,-3.4714,-3.4593,-3.4467,-3.4551,-3.4508,-3.4464,-3.448,-3.4542,-3.4524,-3.4609,-3.473,-3.4771,-3.4831,-3.4908,-3.4908,-3.4945,-3.5001,-3.5057,-3.5038,-3.5056,-3.5092,-3.5143,-3.5176,-3.5157,-3.5133,-3.5127,-3.5111,-3.5111,-3.5143,-3.5159,-3.5212,-3.5228,-3.5166,-3.4918,-3.4405,-3.3791,-3.2828,-3.2115,-3.1583,-3.1143,-3.1116,-3.1087,-3.0786,-3.0451,-3.0472,-3.0453,-3.0443,-3.0481,-3.0527,-3.0516,-3.0516,-3.0516,-3.0524,-3.0532,-3.0532,-3.0521,-3.0513,-3.0513,-3.0552,-3.0532,-3.0543,-3.0404,-3.0395,-3.0936,-3.1381,-3.169,-3.2307,-3.2878,-3.3006,-3.3074,-3.2782,-3.2527,-3.2833,-3.3017,-5.0005,-5.0057,-5.0063,-5.0082,-5.0082,-5.0063,-5.0133,-5.0182,-5.0133,-4.9676,-4.8958,-4.8351,-4.7112,-4.5712,-4.4637,-4.4186,-4.4128,-4.4098,-4.3949,-4.3594,-4.2969,-4.2202,-4.1469,-4.0574,-3.9862,-3.9257,-3.9408,-3.9282,-3.9402,-3.9632,-3.9873,-3.9916,-3.9788,-3.9728,-3.941,-3.842,-3.737,-3.6412,-3.5053,-3.4473,-3.4505,-3.4398,-3.4265,-3.4195,-3.4171,-3.4171,-3.4099,-3.4208,-3.4221,-3.4269,-3.4386,-3.4476,-3.4498,-3.4586,-3.4651,-3.467,-3.467,-3.4752,-3.485,-3.4927,-3.5001,-3.502,-3.5057,-3.5038,-3.4982,-3.4927,-3.4908,-3.4945,-3.4945,-3.4945,-3.4964,-3.5001,-3.4864,-3.4632,-3.4253,-3.3743,-3.3137,-3.2184,-3.1362,-3.0905,-3.0553,-3.039,-3.0366,-3.0324,-3.0283,-3.0359,-3.0351,-3.0309,-3.0309,-3.0321,-3.034,-3.0317,-3.0317,-3.0317,-3.034,-3.0362,-3.0374,-3.0365,-3.0355,-3.0293,-3.0206,-3.0182,-3.0139,-3.0158,-3.0222,-3.0324,-3.0666,-3.1569,-3.2318,-3.1888,-3.1623,-3.1813,-3.1867,-3.2106,-3.2038,-4.9925,-4.9906,-4.9959,-4.9986,-5.0005,-5.0082,-5.0082,-4.9993,-5.0019,-4.9448,-4.8371,-4.7004,-4.5609,-4.4756,-4.4258,-4.3979,-4.4039,-4.4098,-4.3599,-4.2909,-4.2156,-4.1381,-4.0589,-3.9816,-3.9275,-3.9163,-3.9063,-3.9072,-3.9152,-3.909,-3.9205,-3.916,-3.9282,-3.9152,-3.8816,-3.8077,-3.6883,-3.587,-3.4618,-3.4191,-3.4203,-3.4154,-3.4055,-3.3928,-3.4049,-3.4099,-3.3868,-3.3998,-3.4099,-3.4099,-3.4173,-3.4221,-3.4245,-3.4298,-3.4367,-3.4386,-3.4386,-3.4435,-3.4567,-3.4772,-3.4889,-3.4908,-3.4889,-3.4851,-3.4792,-3.487,-3.4889,-3.4812,-3.4772,-3.4736,-3.4813,-3.487,-3.4396,-3.379,-3.3223,-3.2655,-3.2089,-3.152,-3.076,-3.0257,-2.9994,-2.9926,-2.9891,-2.9877,-2.9999,-3.0084,-2.9946,-2.9897,-2.9935,-2.9969,-3.0037,-3.0075,-3.0094,-3.0094,-3.0075,-3.0066,-3.0037,-2.9971,-2.9975,-2.9855,-2.9744,-2.9746,-2.9842,-2.9794,-2.981,-2.9731,-2.9734,-3.0506,-3.0873,-3.0338,-3.0222,-3.0671,-3.0715,-3.0703,-3.0536,-4.942,-4.9214,-4.9246,-4.937,-4.9636,-4.9665,-4.9539,-4.9288,-4.8807,-4.78,-4.6599,-4.5053,-4.4191,-4.3855,-4.352,-4.3369,-4.3369,-4.3334,-4.2818,-4.2139,-4.1335,-4.0579,-3.9803,-3.9118,-3.8597,-3.8658,-3.8609,-3.8597,-3.8535,-3.8628,-3.8585,-3.8609,-3.8839,-3.9008,-3.8646,-3.7646,-3.6407,-3.5446,-3.441,-3.3798,-3.3895,-3.3762,-3.3643,-3.3605,-3.3633,-3.3671,-3.3577,-3.3643,-3.3698,-3.3753,-3.3868,-3.3921,-3.3972,-3.4055,-3.4124,-3.4148,-3.4124,-3.4179,-3.4255,-3.4505,-3.471,-3.471,-3.471,-3.4649,-3.4524,-3.448,-3.448,-3.4458,-3.4423,-3.4298,-3.3789,-3.3695,-3.3395,-3.2704,-3.2125,-3.158,-3.1073,-3.0565,-3.0265,-2.9812,-2.9645,-2.9532,-2.9514,-2.9495,-2.9661,-2.9782,-2.9624,-2.9514,-2.957,-2.9607,-2.9734,-2.9769,-2.9787,-2.9751,-2.9751,-2.9715,-2.9661,-2.9625,-2.9588,-2.9514,-2.9437,-2.9495,-2.9532,-2.9476,-2.9437,-2.9399,-2.9457,-2.9607,-2.9662,-2.9681,-2.9681,-2.9829,-2.9701,-2.9494,-2.9398,-4.9071,-4.8816,-4.8816,-4.8971,-4.9188,-4.9239,-4.8936,-4.8468,-4.7917,-4.6713,-4.5119,-4.3944,-4.3406,-4.3301,-4.3087,-4.2957,-4.2904,-4.2631,-4.2032,-4.1343,-4.0562,-3.9802,-3.9114,-3.8637,-3.8322,-3.8241,-3.8259,-3.8259,-3.8274,-3.8225,-3.8241,-3.8368,-3.8554,-3.867,-3.8387,-3.7323,-3.6127,-3.5339,-3.4511,-3.3662,-3.3734,-3.352,-3.3422,-3.3422,-3.3452,-3.3433,-3.3452,-3.3462,-3.3452,-3.3481,-3.3549,-3.3615,-3.368,-3.3762,-3.385,-3.3876,-3.3876,-3.3839,-3.3949,-3.4165,-3.439,-3.4348,-3.4348,-3.4279,-3.4184,-3.4111,-3.4141,-3.4147,-3.3974,-3.3518,-3.2873,-3.2813,-3.2337,-3.1654,-3.1283,-3.08,-3.0312,-2.9846,-2.9656,-2.9395,-2.9334,-2.9355,-2.9314,-2.9295,-2.9295,-2.9456,-2.9457,-2.9339,-2.9295,-2.9357,-2.9418,-2.9475,-2.9456,-2.9436,-2.9378,-2.9399,-2.9438,-2.9319,-2.9297,-2.9256,-2.9214,-2.9217,-2.9196,-2.9148,-2.9107,-2.9111,-2.903,-2.8946,-2.9156,-2.9416,-2.9358,-2.9277,-2.9052,-2.8897,-2.8828,-4.8781,-4.8816,-4.8781,-4.8781,-4.8781,-4.8816,-4.8354,-4.7636,-4.7355,-4.6428,-4.4897,-4.3802,-4.3336,-4.3266,-4.3014,-4.2938,-4.2719,-4.2176,-4.1452,-4.0691,-4.0003,-3.9079,-3.8554,-3.8262,-3.8225,-3.8192,-3.8192,-3.8192,-3.8192,-3.8192,-3.8192,-3.8192,-3.8289,-3.8336,-3.8168,-3.741,-3.6576,-3.5797,-3.4969,-3.4184,-3.3712,-3.3513,-3.3393,-3.3393,-3.3393,-3.3393,-3.3364,-3.3364,-3.3352,-3.3304,-3.3304,-3.3316,-3.3268,-3.3268,-3.328,-3.3268,-3.3238,-3.3321,-3.3504,-3.3768,-3.3899,-3.3931,-3.3975,-3.3924,-3.3931,-3.3906,-3.3847,-3.3802,-3.3301,-3.2822,-3.2453,-3.2014,-3.1256,-3.0604,-3.0239,-2.9998,-2.9492,-2.9267,-2.9093,-2.9034,-2.9188,-2.9272,-2.9188,-2.9141,-2.9048,-2.9097,-2.9214,-2.9172,-2.9079,-2.9056,-2.9126,-2.9126,-2.9126,-2.9126,-2.9126,-2.9214,-2.9196,-2.9086,-2.8952,-2.8842,-2.8766,-2.8694,-2.8688,-2.8731,-2.8639,-2.8511,-2.8332,-2.8166,-2.846,-2.8753,-2.8808,-2.8713,-2.8478,-2.8358,-2.8332,-4.8307,-4.8053,-4.8053,-4.8053,-4.8093,-4.8364,-4.7886,-4.6779,-4.5735,-4.4693,-4.3779,-4.3178,-4.3087,-4.3014,-4.2976,-4.2882,-4.2701,-4.2085,-4.1289,-4.0456,-3.9695,-3.8971,-3.8409,-3.8192,-3.8192,-3.8192,-3.8192,-3.8192,-3.8192,-3.8192,-3.8192,-3.8192,-3.8192,-3.8192,-3.8026,-3.7449,-3.6761,-3.6363,-3.5403,-3.4425,-3.4154,-3.3719,-3.3411,-3.3411,-3.3393,-3.3364,-3.3322,-3.3322,-3.3274,-3.3183,-3.3165,-3.3135,-3.3086,-3.3104,-3.3086,-3.3086,-3.3086,-3.3135,-3.316,-3.3243,-3.3372,-3.3496,-3.3607,-3.357,-3.3429,-3.339,-3.339,-3.3219,-3.2638,-3.2083,-3.1465,-3.0711,-2.9966,-2.9305,-2.896,-2.8991,-2.8748,-2.8705,-2.8626,-2.8651,-2.8749,-2.8731,-2.8707,-2.8646,-2.859,-2.8601,-2.87,-2.8832,-2.8773,-2.8767,-2.8773,-2.8773,-2.8773,-2.8797,-2.8827,-2.8925,-2.8819,-2.8603,-2.8428,-2.8272,-2.8201,-2.8174,-2.812,-2.8156,-2.8037,-2.7897,-2.7783,-2.7707,-2.7869,-2.8065,-2.7974,-2.8102,-2.8102,-2.7992,-2.7936,-4.7929,-4.7699,-4.7699,-4.7536,-4.736,-4.7551,-4.691,-4.5602,-4.4258,-4.3353,-4.2992,-4.2938,-4.2938,-4.2938,-4.2882,-4.2629,-4.2448,-4.1651,-4.0872,-4.0093,-3.9315,-3.8681,-3.8319,-3.8192,-3.8192,-3.8192,-3.8192,-3.8192,-3.8192,-3.8192,-3.8192,-3.814,-3.8106,-3.809,-3.7928,-3.76,-3.725,-3.6816,-3.5946,-3.5173,-3.4648,-3.4075,-3.3641,-3.3394,-3.3256,-3.3274,-3.3262,-3.3232,-3.3183,-3.3104,-3.3073,-3.3073,-3.3042,-3.3024,-3.3024,-3.3024,-3.3042,-3.3011,-3.2979,-3.2961,-3.3111,-3.3243,-3.3273,-3.3202,-3.3086,-3.3117,-3.3086,-3.2816,-3.2086,-3.1422,-3.074,-2.9897,-2.9062,-2.8389,-2.83,-2.8335,-2.8264,-2.8219,-2.811,-2.8138,-2.8138,-2.8156,-2.8156,-2.8138,-2.8093,-2.812,-2.8165,-2.8317,-2.8466,-2.8466,-2.844,-2.8466,-2.8492,-2.8525,-2.8551,-2.8626,-2.8438,-2.8147,-2.7992,-2.788,-2.7794,-2.7805,-2.7678,-2.7547,-2.747,-2.7409,-2.7289,-2.7258,-2.7224,-2.7112,-2.695,-2.7189,-2.7547,-2.7547,-2.7409,-4.7717,-4.7717,-4.7717,-4.7223,-4.6595,-4.6472,-4.5508,-4.4114,-4.3281,-4.2918,-4.29,-4.29,-4.29,-4.2882,-4.2846,-4.2429,-4.1705,-4.0926,-4.0184,-3.946,-3.879,-3.8373,-3.821,-3.8174,-3.8158,-3.8158,-3.8158,-3.8124,-3.8192,-3.8158,-3.8072,-3.7967,-3.7881,-3.7846,-3.7827,-3.7648,-3.7428,-3.6996,-3.651,-3.5687,-3.4873,-3.4419,-3.382,-3.343,-3.3162,-3.3055,-3.2983,-3.2943,-3.2979,-3.2948,-3.2948,-3.2916,-3.2884,-3.2884,-3.2884,-3.2834,-3.282,-3.277,-3.2737,-3.2654,-3.2802,-3.283,-3.2798,-3.2884,-3.2884,-3.277,-3.2719,-3.2321,-3.1627,-3.1016,-3.0356,-2.9397,-2.8407,-2.8146,-2.8017,-2.7943,-2.784,-2.7707,-2.7577,-2.7547,-2.756,-2.756,-2.7607,-2.7607,-2.7678,-2.7707,-2.7783,-2.7897,-2.8055,-2.8138,-2.8138,-2.8183,-2.821,-2.8264,-2.8291,-2.8219,-2.801,-2.7689,-2.7747,-2.766,-2.7554,-2.7361,-2.7272,-2.7132,-2.7002,-2.6889,-2.6691,-2.6539,-2.6383,-2.6262,-2.616,-2.63,-2.6656,-2.674,-2.6657,-4.7657,-4.7554,-4.7572,-4.7102,-4.6254,-4.517,-4.4433,-4.4005,-4.3244,-4.29,-4.29,-4.29,-4.2864,-4.2864,-4.2321,-4.1922,-4.1234,-4.0492,-3.9804,-3.9134,-3.845,-3.8197,-3.8036,-3.7984,-3.802,-3.7969,-3.7916,-3.7881,-3.7934,-3.7969,-3.7916,-3.7916,-3.7504,-3.7431,-3.7283,-3.7152,-3.7071,-3.695,-3.6595,-3.59,-3.5082,-3.4587,-3.3917,-3.3389,-3.309,-3.2897,-3.2527,-3.2555,-3.2555,-3.2521,-3.2488,-3.2488,-3.2506,-3.2231,-3.2039,-3.2056,-3.2056,-3.2039,-3.2056,-3.2039,-3.2179,-3.2335,-3.2231,-3.2248,-3.23,-3.23,-3.2248,-3.1859,-3.1111,-3.0406,-2.9836,-2.9012,-2.8123,-2.776,-2.7624,-2.7577,-2.7457,-2.7303,-2.7147,-2.7147,-2.7147,-2.7147,-2.7178,-2.7272,-2.7317,-2.7348,-2.7378,-2.747,-2.7589,-2.7725,-2.7811,-2.7829,-2.7829,-2.7858,-2.7754,-2.7678,-2.7482,-2.7299,-2.7344,-2.7299,-2.7019,-2.6858,-2.6808,-2.6691,-2.6556,-2.635,-2.6085,-2.5905,-2.5795,-2.5594,-2.5508,-2.5582,-2.5693,-2.5875,-2.5964,-4.7572,-4.7457,-4.715,-4.6368,-4.5173,-4.3967,-4.3505,-4.34,-4.3041,-4.2824,-4.2786,-4.2824,-4.2662,-4.2244,-4.1755,-4.1232,-4.0474,-3.9788,-3.912,-3.8579,-3.815,-3.7846,-3.7667,-3.7487,-3.734,-3.7376,-3.7376,-3.7246,-3.7394,-3.7356,-3.7264,-3.7226,-3.6921,-3.6865,-3.6746,-3.6609,-3.6487,-3.6434,-3.6252,-3.5828,-3.5292,-3.4735,-3.4164,-3.3464,-3.3242,-3.2668,-3.2236,-3.2317,-3.2109,-3.2056,-3.2056,-3.2056,-3.2056,-3.1823,-3.1714,-3.1768,-3.1768,-3.1804,-3.1804,-3.1768,-3.1877,-3.1877,-3.1731,-3.164,-3.175,-3.1787,-3.1896,-3.1759,-3.0662,-2.9719,-2.9225,-2.8697,-2.7983,-2.7276,-2.7244,-2.7227,-2.7068,-2.6873,-2.6841,-2.6808,-2.6808,-2.6825,-2.6841,-2.6939,-2.6906,-2.6808,-2.6741,-2.6774,-2.6987,-2.7241,-2.7365,-2.7457,-2.7444,-2.7413,-2.7255,-2.7112,-2.7049,-2.6952,-2.7049,-2.6922,-2.6521,-2.6382,-2.6383,-2.6227,-2.6049,-2.5832,-2.5556,-2.5443,-2.5313,-2.5067,-2.4831,-2.4792,-2.4934,-2.5128,-2.5205,-4.736,-4.7252,-4.644,-4.5186,-4.3814,-4.3001,-4.2624,-4.2627,-4.2724,-4.2706,-4.2649,-4.2655,-4.2165,-4.1605,-4.1025,-4.0197,-3.9478,-3.8814,-3.8202,-3.7811,-3.7411,-3.7173,-3.702,-3.6768,-3.6768,-3.6591,-3.6551,-3.6706,-3.6568,-3.6586,-3.6586,-3.6381,-3.6256,-3.6215,-3.6172,-3.6002,-3.589,-3.5725,-3.5848,-3.5734,-3.5322,-3.5012,-3.476,-3.3894,-3.3362,-3.2848,-3.2612,-3.2221,-3.1743,-3.1743,-3.1657,-3.1657,-3.1528,-3.1528,-3.1507,-3.1507,-3.1432,-3.1432,-3.1376,-3.1376,-3.149,-3.1452,-3.1261,-3.1184,-3.1261,-3.1317,-3.1414,-3.1328,-3.0367,-2.9575,-2.9058,-2.8207,-2.7434,-2.7021,-2.6891,-2.6825,-2.6691,-2.6572,-2.6504,-2.6504,-2.6504,-2.6486,-2.6469,-2.6572,-2.659,-2.6347,-2.6189,-2.6189,-2.6279,-2.659,-2.6707,-2.6839,-2.6757,-2.6657,-2.6573,-2.6471,-2.6623,-2.6623,-2.659,-2.6386,-2.5941,-2.5868,-2.5961,-2.5779,-2.5556,-2.5291,-2.502,-2.4942,-2.4784,-2.442,-2.4214,-2.4063,-2.4173,-2.4446,-2.4527,-4.6457,-4.6227,-4.4845,-4.3936,-4.3495,-4.2826,-4.2486,-4.2369,-4.2526,-4.257,-4.2501,-4.1998,-4.1584,-4.1094,-3.9747,-3.8887,-3.851,-3.7733,-3.7115,-3.6956,-3.6711,-3.6609,-3.6568,-3.6364,-3.6281,-3.6281,-3.6281,-3.6197,-3.6155,-3.6172,-3.6215,-3.6172,-3.5933,-3.5732,-3.5688,-3.5526,-3.527,-3.5211,-3.5283,-3.5397,-3.5088,-3.4868,-3.4576,-3.4052,-3.356,-3.3218,-3.29,-3.2391,-3.2127,-3.2072,-3.1494,-3.1151,-3.0821,-3.0821,-3.0821,-3.0781,-3.0845,-3.0902,-3.0885,-3.0925,-3.1004,-3.1004,-3.0902,-3.0902,-3.0861,-3.0821,-3.0734,-3.0615,-3.0221,-2.9508,-2.8781,-2.7827,-2.7006,-2.6775,-2.6572,-2.6486,-2.6364,-2.6258,-2.6151,-2.6151,-2.6151,-2.6151,-2.6115,-2.6151,-2.6203,-2.6026,-2.5795,-2.5668,-2.5556,-2.5709,-2.573,-2.5822,-2.5875,-2.5819,-2.5766,-2.5766,-2.5859,-2.573,-2.5619,-2.5449,-2.5329,-2.5351,-2.5389,-2.5198,-2.502,-2.4744,-2.4558,-2.4492,-2.4261,-2.3952,-2.3824,-2.3739,-2.3696,-2.3921,-2.3894,-4.552,-4.5316,-4.4067,-4.331,-4.2929,-4.2583,-4.2346,-4.2346,-4.2387,-4.2213,-4.1912,-4.1292,-4.0677,-4.0046,-3.8496,-3.7662,-3.7411,-3.6754,-3.6516,-3.6364,-3.6155,-3.6088,-3.6002,-3.5873,-3.5688,-3.5644,-3.5644,-3.5599,-3.579,-3.5599,-3.5554,-3.5616,-3.5424,-3.5316,-3.527,-3.5024,-3.4899,-3.4947,-3.4899,-3.4899,-3.4899,-3.4833,-3.4767,-3.4319,-3.3922,-3.3591,-3.3205,-3.2727,-3.2269,-3.1842,-3.1189,-3.0824,-3.0551,-3.051,-3.0443,-3.0443,-3.0426,-3.0443,-3.0443,-3.0485,-3.0551,-3.0551,-3.051,-3.051,-3.051,-3.051,-3.0593,-3.0389,-2.9888,-2.9221,-2.8524,-2.7626,-2.6872,-2.6428,-2.6362,-2.6293,-2.6134,-2.601,-2.5901,-2.5811,-2.5758,-2.5647,-2.5647,-2.5738,-2.5701,-2.546,-2.5237,-2.5198,-2.5082,-2.4871,-2.4871,-2.4871,-2.4989,-2.516,-2.5237,-2.5144,-2.5051,-2.4871,-2.4728,-2.4847,-2.4926,-2.4887,-2.4808,-2.4608,-2.4405,-2.4214,-2.4078,-2.4009,-2.3882,-2.3566,-2.3523,-2.348,-2.3436,-2.3436,-2.3436,-4.4557,-4.4378,-4.3668,-4.2947,-4.2358,-4.2287,-4.2287,-4.2269,-4.2121,-4.1581,-4.077,-4.0228,-3.9241,-3.838,-3.7386,-3.6749,-3.6294,-3.6002,-3.5959,-3.589,-3.5661,-3.5571,-3.5391,-3.5195,-3.5218,-3.5288,-3.5338,-3.5471,-3.5621,-3.5471,-3.5338,-3.5079,-3.4949,-3.4899,-3.4899,-3.4899,-3.4899,-3.4899,-3.4899,-3.4899,-3.4899,-3.4899,-3.4866,-3.4618,-3.4336,-3.3972,-3.3707,-3.3226,-3.2514,-3.1918,-3.1331,-3.0733,-3.0434,-3.0359,-3.0316,-3.0274,-3.0316,-3.0359,-3.0359,-3.0375,-3.0375,-3.0333,-3.0248,-3.0189,-3.0189,-3.0231,-3.03,-3.0112,-2.9617,-2.9074,-2.8333,-2.7558,-2.6796,-2.6217,-2.6208,-2.6007,-2.5828,-2.5626,-2.5481,-2.5389,-2.5313,-2.5198,-2.5198,-2.5275,-2.516,-2.4887,-2.4728,-2.4728,-2.4648,-2.4364,-2.4241,-2.4241,-2.4282,-2.4446,-2.4583,-2.4583,-2.4405,-2.4282,-2.4199,-2.4405,-2.4471,-2.4282,-2.4116,-2.3964,-2.3767,-2.3681,-2.361,-2.3523,-2.3363,-2.3275,-2.3363,-2.3348,-2.326,-2.326,-2.3113,-4.3364,-4.2757,-4.2573,-4.243,-4.2287,-4.2287,-4.2287,-4.2121,-4.1167,-4.0352,-3.9533,-3.8243,-3.756,-3.7983,-3.6509,-3.5817,-3.5745,-3.5436,-3.5241,-3.5118,-3.5195,-3.5118,-3.5074,-3.5143,-3.5345,-3.5528,-3.5794,-3.6108,-3.6125,-3.5926,-3.5794,-3.5794,-3.5148,-3.4998,-3.4932,-3.4949,-3.4934,-3.4901,-3.4851,-3.4851,-3.4883,-3.4899,-3.4899,-3.4816,-3.4783,-3.47,-3.4485,-3.3955,-3.3607,-3.3044,-3.2029,-3.1051,-3.0537,-3.0297,-3.0189,-3.0146,-3.0146,-3.0146,-3.0103,-3.006,-2.9973,-2.9913,-2.9826,-2.987,-2.9913,-2.9957,-3.0011,-3.0031,-2.9606,-2.9239,-2.8534,-2.7532,-2.6759,-2.6292,-2.6081,-2.549,-2.5082,-2.4981,-2.4823,-2.4808,-2.4768,-2.4688,-2.4648,-2.4688,-2.4744,-2.4461,-2.4214,-2.4173,-2.4131,-2.3837,-2.3595,-2.3638,-2.3666,-2.3551,-2.3595,-2.3867,-2.3782,-2.3681,-2.3638,-2.3794,-2.3794,-2.3595,-2.3436,-2.348,-2.3436,-2.3348,-2.3231,-2.3083,-2.3098,-2.3098,-2.3216,-2.326,-2.3127,-2.2889,-2.2603]},{"header":{"parameterUnit":"m.s-1","parameterCategory":1,"la1":31.0,"la2":29.5877,"lo1":-88.7671,"lo2":-86.6584,"dy":0.0162,"dx":0.0185,"nx":115,"ny":88,"refTime":"2023-07-25T06:00:00:Z","depth":0,"parameterNumber":3,"parameterNumberName":"V-component_of_WINDS"},"data":[0.0,0.0,0.0,0.0,0.0,0.0,0.0,0.0,0.0,0.0,0.0,0.0,0.0,0.0,0.0,0.0,0.0,0.0,0.0,0.0,0.0,0.0,0.0,0.0,0.0,0.0,0.0,0.0,0.0,0.0,0.0,0.0,0.0,0.0,0.0,0.0,0.0,0.0,0.0,0.0,0.0,0.0,0.0,0.0,0.0,0.0,0.0,0.0,0.0,0.0,0.0,0.0,0.0,0.0,0.0,0.0,0.0,0.0,0.0,0.0,0.0,0.0,0.0,0.0,0.0,0.0,0.0,0.0,0.0,0.0,0.0,0.0,0.0,0.0,0.0,0.0,0.0,0.0,0.0,0.0,0.0,0.0,0.0,0.0,0.0,0.0,0.0,0.0,0.0,0.0,0.0,0.0,0.0,0.0,0.0,0.0,0.0,0.0,0.0,0.0,0.0,0.0,0.0,0.0,0.0,0.0,0.0,0.0,0.0,0.0,0.0,0.0,0.0,0.0,0.0,0.0,0.0,0.0,0.0,0.0,0.0,0.0,0.0,0.0,0.0,0.0,0.0,0.0,0.0,0.0,0.0,0.0,0.0,0.0,0.0,0.0,0.0,0.0,0.0,0.0,0.0,0.0,0.0,0.0,0.0,0.0,0.0,0.0,0.0,0.0,0.0,0.0,0.0,0.0,0.0,0.0,0.0,0.0,0.0,0.0,0.0,0.0,0.0,0.0,0.0,0.0,0.0,0.0,0.0,0.0,0.0,0.0,0.0,0.0,0.0,0.0,0.0,0.0,0.0,0.0,0.0,0.0,0.0,0.0,0.0,0.0,0.0,0.0,0.0,0.0,0.0,0.0,0.0,0.0,0.0,0.0,0.0,0.0,0.0,0.0,0.0,0.0,0.0,0.0,0.0,0.0,0.0,0.0,0.0,0.0,0.0,0.0,0.0,0.0,0.0,0.0,0.0,0.0,0.0,0.0,0.0,0.0,0.0,0.0,0.0,0.0,0.0,0.0,0.0,0.0,0.0,0.0,0.0,0.0,0.0,0.0,0.0,0.0,0.0,0.0,0.0,0.0,0.0,0.0,0.0,0.0,0.0,0.0,0.0,0.0,0.0,0.0,0.0,0.0,0.0,0.0,0.0,0.0,0.0,0.0,0.0,0.0,0.0,0.0,0.0,0.0,0.0,0.0,0.0,0.0,0.0,0.0,0.0,0.0,0.0,0.0,0.0,0.0,0.0,0.0,0.0,0.0,0.0,0.0,0.0,0.0,0.0,0.0,0.0,0.0,0.0,0.0,0.0,0.0,0.0,0.0,0.0,0.0,0.0,0.0,0.0,0.0,0.0,0.0,0.0,0.0,0.0,0.0,0.0,0.0,0.0,0.0,0.0,0.0,0.0,0.0,0.0,0.0,0.0,0.0,0.0,0.0,0.0,0.0,0.0,0.0,0.0,0.0,0.0,0.0,0.0,0.0,0.0,0.0,0.0,0.0,0.0,0.0,0.0,0.0,0.0,0.0,0.0,0.0,0.0,0.0,0.0,0.0,0.0,0.0,0.0,0.0,0.0,0.0,0.0,0.0,0.0,0.0,0.0,0.0,0.0,0.0,0.0,0.0,0.0,0.0,0.0,0.0,0.0,0.0,0.0,0.0,0.0,0.0,0.0,0.0,0.0,0.0,0.0,0.0,0.0,0.0,0.0,0.0,0.0,0.0,0.0,0.0,0.0,0.0,0.0,0.0,0.0,0.0,0.0,0.0,0.0,0.0,0.0,0.0,0.0,0.0,0.0,0.0,0.0,0.0,0.0,0.0,0.0,0.0,0.0,0.0,0.0,0.0,0.0,0.0,0.0,0.0,0.0,0.0,0.0,0.0,0.0,0.0,0.0,0.0,0.0,0.0,0.0,0.0,0.0,0.0,0.0,0.0,0.0,0.0,0.0,0.0,0.0,0.0,0.0,0.0,0.0,0.0,0.0,0.0,0.0,0.0,0.0,0.0,0.0,0.0,0.0,0.0,0.0,0.0,0.0,0.0,0.0,0.0,0.0,0.0,0.0,0.0,0.0,0.0,0.0,0.0,0.0,0.0,0.0,0.0,0.0,0.0,0.0,0.0,0.0,0.0,0.0,0.0,0.0,0.0,0.0,0.0,0.0,0.0,0.0,0.0,0.0,0.0,0.0,0.0,0.0,0.0,0.0,0.0,0.0,0.0,0.0,0.0,0.0,0.0,0.0,0.0,0.0,0.0,0.0,0.0,0.0,0.0,0.0,0.0,0.0,0.0,0.0,0.0,0.0,0.0,0.0,0.0,0.0,0.0,0.0,0.0,0.0,0.0,0.0,0.0,0.0,0.0,0.0,0.0,0.0,0.0,0.0,0.0,0.0,0.0,0.0,0.0,0.0,0.0,0.0,0.0,0.0,0.0,0.0,0.0,0.0,0.0,0.0,0.0,0.0,0.0,0.0,0.0,0.0,0.0,0.0,0.0,0.0,0.0,0.0,0.0,0.0,0.0,0.0,0.0,0.0,0.0,0.0,0.0,0.0,0.0,0.0,0.0,0.0,0.0,0.0,0.0,0.0,0.0,0.0,0.0,0.0,0.0,0.0,0.0,0.0,0.0,0.0,0.0,0.0,0.0,0.0,0.0,0.0,0.0,0.0,0.0,0.0,0.0,0.0,0.0,0.0,0.0,0.0,0.0,0.0,0.0,0.0,0.0,0.0,0.0,0.0,0.0,0.0,0.0,0.0,0.0,0.0,0.0,0.0,0.0,0.0,0.0,0.0,0.0,0.0,0.0,0.0,0.0,0.0,0.0,0.0,0.0,0.0,0.0,0.0,0.0,0.0,0.0,0.0,0.0,0.0,0.0,0.0,0.0,0.0,0.0,0.0,0.0,0.0,0.0,0.0,0.0,0.0,0.0,0.0,0.0,0.0,0.0,0.0,0.0,0.0,0.0,0.0,0.0,0.0,0.0,0.0,0.0,0.0,0.0,0.0,0.0,0.0,0.0,0.0,0.0,0.0,0.0,0.0,0.0,0.0,0.0,0.0,0.0,0.0,0.0,0.0,0.0,0.0,0.0,0.0,0.0,0.0,0.0,0.0,0.0,0.0,0.0,0.0,0.0,0.0,0.0,0.0,0.0,0.0,0.0,0.0,0.0,0.0,0.0,0.0,0.0,0.0,0.0,0.0,0.0,0.0,0.0,0.0,0.0,0.0,0.0,0.0,0.0,0.0,0.0,0.0,0.0,0.0,0.0,0.0,0.0,0.0,0.0,0.0,0.0,0.0,0.0,0.0,0.0,0.0,0.0,0.0,0.0,0.0,0.0,0.0,0.0,0.0,0.0,0.0,0.0,0.0,0.0,0.0,0.0,0.0,0.0,0.0,0.0,0.0,0.0,0.0,0.0,0.0,0.0,0.0,0.0,0.0,0.0,0.0,0.0,0.0,0.0,0.0,0.0,0.0,0.0,0.0,0.0,0.0,0.0,0.0,0.0,0.0,0.0,0.0,0.0,0.0,0.0,0.0,0.0,0.0,0.0,0.0,0.0,0.0,0.0,0.0,0.0,0.0,0.0,0.0,0.0,0.0,0.0,0.0,0.0,0.0,0.0,0.0,0.0,0.0,0.0,0.0,0.0,0.0,0.0,0.0,0.0,0.0,0.0,0.0,0.0,0.0,0.0,0.0,0.0,0.0,0.0,0.0,0.0,0.0,0.0,0.0,0.0,0.0,0.0,0.0,0.0,0.0,0.0,0.0,0.0,0.0,0.0,0.0,0.0,0.0,0.0,0.0,0.0,0.0,0.0,0.0,0.0,0.0,0.0,0.0,0.0,0.0,0.0,0.0,0.0,0.0,0.0,0.0,0.0,0.0,0.0,0.0,0.0,0.0,0.0,0.0,0.0,0.0,0.0,0.0,0.0,0.0,0.0,0.0,0.0,0.0,0.0,0.0,0.0,0.0,0.0,0.0,0.0,0.0,0.0,0.0,0.0,0.0,0.0,0.0,0.0,0.0,0.0,0.0,0.0,0.0,0.0,0.0,0.0,0.0,0.0,0.0,0.0,0.0,0.0,0.0,0.0,0.0,0.0,0.0,0.0,0.0,0.0,0.0,0.0,0.0,0.0,0.0,0.0,0.0,0.0,0.0,0.0,0.0,0.0,0.0,0.0,0.0,0.0,0.0,0.0,0.0,0.0,0.0,0.0,0.0,0.0,0.0,0.0,0.0,0.0,0.0,0.0,0.0,0.0,0.0,0.0,0.0,0.0,0.0,0.0,0.0,0.0,-1.1276,0.0,0.0,0.0,0.0,0.0,0.0,0.0,0.0,0.0,0.0,0.0,0.0,0.0,0.0,0.0,0.0,0.0,0.0,0.0,0.0,0.0,0.0,0.0,0.0,0.0,0.0,0.0,0.0,0.0,0.0,0.0,0.0,0.0,0.0,0.0,0.0,0.0,0.0,0.0,0.0,0.0,0.0,0.0,0.0,0.0,0.0,0.0,0.0,0.0,0.0,0.0,0.0,0.0,0.0,0.0,0.0,0.0,0.0,0.0,0.0,0.0,0.0,0.0,0.0,0.0,0.0,0.0,0.0,0.0,0.0,0.0,0.0,0.0,0.0,0.0,0.0,0.0,0.0,0.0,0.0,0.0,0.0,0.0,0.0,0.0,0.0,0.0,0.0,0.0,0.0,0.0,0.0,0.0,0.0,0.0,0.0,0.0,0.0,0.0,0.0,0.0,0.0,0.0,0.0,0.0,0.0,0.0,0.0,0.0,0.0,-1.1276,-1.1276,-1.1276,-1.1276,-1.1276,0.0,0.0,0.0,0.0,0.0,0.0,0.0,0.0,0.0,0.0,0.0,0.0,0.0,0.0,0.0,0.0,0.0,0.0,0.0,0.0,0.0,0.0,0.0,0.0,0.0,0.0,0.0,0.0,0.0,0.0,0.0,0.0,0.0,0.0,0.0,0.0,0.0,0.0,0.0,0.0,0.0,0.0,0.0,0.0,0.0,0.0,0.0,0.0,0.0,0.0,0.0,0.0,0.0,0.0,0.0,0.0,0.0,0.0,0.0,0.0,0.0,0.0,0.0,0.0,0.0,0.0,0.0,0.0,0.0,0.0,0.0,0.0,0.0,0.0,0.0,0.0,0.0,0.0,0.0,0.0,0.0,0.0,0.0,0.0,0.0,0.0,0.0,0.0,0.0,0.0,0.0,0.0,0.0,0.0,0.0,0.0,0.0,0.0,0.0,0.0,0.0,0.0,0.0,0.0,0.0,0.0,0.0,0.0,0.0,0.0,0.0,0.0,-1.1319,-1.1276,-1.1276,0.0,0.0,0.0,0.0,0.0,0.0,0.0,0.0,0.0,0.0,0.0,0.0,0.0,0.0,0.0,0.0,0.0,0.0,0.0,0.0,0.0,0.0,0.0,0.0,0.0,0.0,0.0,0.0,0.0,0.0,0.0,0.0,0.0,0.0,0.0,0.0,0.0,0.0,0.0,0.0,0.0,0.0,0.0,0.0,0.0,0.0,0.0,0.0,0.0,0.0,0.0,0.0,0.0,0.0,0.0,0.0,0.0,0.0,0.0,0.0,0.0,0.0,0.0,0.0,0.0,0.0,0.0,0.0,0.0,0.0,0.0,0.0,0.0,0.0,0.0,0.0,0.0,0.0,0.0,0.0,0.0,0.0,0.0,0.0,0.0,0.0,0.0,0.0,0.0,0.0,0.0,0.0,0.0,0.0,0.0,0.0,0.0,0.0,0.0,0.0,0.0,0.0,0.0,0.0,0.0,0.0,0.0,0.0,0.0,0.0,-1.1439,-1.172,-1.1456,0.0,-1.1276,0.0,0.0,0.0,0.0,0.0,0.0,0.0,0.0,0.0,0.0,0.0,0.0,0.0,0.0,0.0,0.0,0.0,0.0,0.0,0.0,0.0,0.0,0.0,0.0,0.0,0.0,0.0,0.0,0.0,0.0,0.0,0.0,0.0,0.0,0.0,0.0,0.0,0.0,0.0,0.0,0.0,0.0,0.0,0.0,0.0,0.0,0.0,0.0,0.0,0.0,0.0,0.0,0.0,0.0,0.0,0.0,0.0,0.0,0.0,0.0,0.0,0.0,0.0,0.0,0.0,0.0,0.0,0.0,0.0,0.0,0.0,0.0,0.0,0.0,0.0,0.0,0.0,0.0,0.0,0.0,0.0,0.0,0.0,0.0,0.0,0.0,0.0,0.0,0.0,0.0,0.0,0.0,0.0,0.0,0.0,0.0,0.0,0.0,0.0,0.0,0.0,0.0,0.0,0.0,0.0,0.0,0.0,0.0,0.0,0.0,-1.1192,-1.0982,-1.0834,-1.0972,0.0,0.0,0.0,0.0,0.0,0.0,0.0,0.0,0.0,0.0,0.0,0.0,0.0,0.0,0.0,0.0,0.0,0.0,0.0,0.0,0.0,0.0,0.0,0.0,0.0,0.0,0.0,0.0,0.0,0.0,0.0,0.0,0.0,0.0,0.0,0.0,0.0,0.0,0.0,0.0,0.0,0.0,0.0,0.0,0.0,0.0,0.0,0.0,0.0,0.0,0.0,0.0,0.0,0.0,0.0,0.0,0.0,0.0,0.0,0.0,0.0,0.0,0.0,0.0,0.0,0.0,0.0,0.0,0.0,0.0,0.0,0.0,0.0,0.0,0.0,0.0,0.0,0.0,0.0,0.0,0.0,0.0,0.0,0.0,0.0,0.0,0.0,0.0,0.0,0.0,0.0,0.0,0.0,0.0,0.0,0.0,0.0,0.0,0.0,0.0,0.0,0.0,0.0,0.0,0.0,0.0,0.0,0.0,0.0,0.0,-1.1482,-1.1165,-1.0589,-1.0451,-1.06,-1.1065,0.0,0.0,0.0,0.0,0.0,0.0,0.0,0.0,0.0,0.0,0.0,0.0,0.0,0.0,0.0,0.0,0.0,0.0,0.0,0.0,0.0,0.0,0.0,0.0,0.0,0.0,0.0,0.0,0.0,0.0,0.0,0.0,0.0,0.0,0.0,0.0,0.0,0.0,0.0,0.0,0.0,0.0,0.0,0.0,0.0,0.0,0.0,0.0,0.0,0.0,0.0,0.0,0.0,0.0,0.0,0.0,0.0,0.0,0.0,0.0,0.0,0.0,0.0,0.0,0.0,0.0,0.0,0.0,0.0,0.0,0.0,0.0,0.0,0.0,0.0,0.0,0.0,0.0,0.0,0.0,0.0,0.0,0.0,0.0,0.0,0.0,0.0,0.0,0.0,0.0,0.0,0.0,0.0,0.0,0.0,0.0,0.0,0.0,0.0,0.0,0.0,0.0,0.0,0.0,0.0,0.0,0.0,0.0,-1.2278,-1.1925,-1.1534,-1.0969,-1.0577,-1.0403,0.0,0.0,0.0,0.0,0.0,0.0,0.0,0.0,0.0,0.0,0.0,0.0,0.0,0.0,0.0,0.0,0.0,0.0,0.0,0.0,0.0,0.0,0.0,0.0,0.0,0.0,0.0,0.0,0.0,0.0,0.0,0.0,0.0,0.0,0.0,0.0,0.0,0.0,0.0,0.0,0.0,0.0,0.0,0.0,0.0,0.0,0.0,0.0,0.0,0.0,0.0,0.0,0.0,0.0,0.0,0.0,0.0,0.0,0.0,0.0,0.0,0.0,0.0,0.0,0.0,0.0,0.0,0.0,0.0,0.0,0.0,0.0,0.0,0.0,0.0,0.0,0.0,0.0,0.0,0.0,0.0,0.0,0.0,0.0,0.0,0.0,0.0,0.0,0.0,0.0,0.0,0.0,0.0,0.0,0.0,0.0,0.0,0.0,0.0,0.0,0.0,0.0,0.0,0.0,0.0,0.0,0.0,0.0,0.0,-1.1661,-1.1394,-1.1072,-1.0653,-1.0724,-1.0677,0.0,0.0,0.0,0.0,0.0,0.0,0.0,0.0,0.0,0.0,0.0,0.0,0.0,0.0,0.0,0.0,0.0,0.0,0.0,0.0,0.0,0.0,0.0,0.0,0.0,0.0,0.0,0.0,0.0,0.0,0.0,0.0,0.0,0.0,0.0,0.0,0.0,0.0,0.0,0.0,0.0,0.0,0.0,0.0,0.0,0.0,0.0,0.0,0.0,0.0,0.0,0.0,0.0,0.0,0.0,0.0,0.0,0.0,0.0,0.0,0.0,0.0,0.0,0.0,0.0,0.0,0.0,0.0,0.0,0.0,0.0,0.0,0.0,0.0,0.0,0.0,0.0,0.0,0.0,0.0,0.0,0.0,0.0,0.0,0.0,0.0,0.0,0.0,0.0,0.0,0.0,0.0,0.0,0.0,0.0,0.0,0.0,0.0,0.0,0.0,0.0,0.0,0.0,0.0,0.0,0.0,0.0,0.0,0.0,-1.1636,0.0,-1.113,-1.064,-1.0678,-1.0577,0.0,0.0,0.0,0.0,0.0,0.0,0.0,0.0,0.0,0.0,0.0,0.0,0.0,0.0,0.0,0.0,0.0,0.0,0.0,0.0,0.0,0.0,0.0,0.0,0.0,0.0,0.0,0.0,0.0,0.0,0.0,0.0,0.0,0.0,0.0,0.0,0.0,0.0,0.0,0.0,0.0,0.0,0.0,0.0,0.0,0.0,0.0,0.0,0.0,0.0,0.0,0.0,0.0,0.0,0.0,0.0,0.0,0.0,0.0,0.0,0.0,0.0,0.0,0.0,0.0,0.0,0.0,0.0,0.0,0.0,0.0,0.0,0.0,0.0,0.0,0.0,0.0,0.0,0.0,0.0,0.0,0.0,0.0,0.0,0.0,0.0,0.0,0.0,0.0,0.0,0.0,0.0,0.0,0.0,0.0,0.0,0.0,0.0,0.0,0.0,0.0,0.0,0.0,0.0,0.0,0.0,0.0,0.0,-1.1636,-1.2346,-1.22,-1.1748,-1.1123,-1.0572,-1.0191,0.0,0.0,0.0,0.0,0.0,0.0,0.0,0.0,0.0,0.0,0.0,0.0,0.0,0.0,0.0,0.0,0.0,0.0,0.0,0.0,0.0,0.0,0.0,0.0,0.0,0.0,0.0,0.0,0.0,0.0,0.0,0.0,0.0,0.0,0.0,0.0,0.0,0.0,0.0,0.0,0.0,0.0,0.0,0.0,0.0,0.0,0.0,0.0,0.0,0.0,0.0,0.0,0.0,0.0,0.0,0.0,0.0,0.0,0.0,0.0,0.0,0.0,0.0,0.0,0.0,0.0,0.0,0.0,0.0,0.0,0.0,0.0,0.0,0.0,0.0,0.0,0.0,0.0,0.0,0.0,0.0,0.0,0.0,0.0,0.0,0.0,0.0,0.0,0.0,0.0,0.0,0.0,0.0,0.0,0.0,0.0,0.0,0.0,0.0,0.0,0.0,0.0,0.0,0.0,0.0,0.0,0.0,0.0,0.0,-1.1967,-1.2459,-1.2184,-1.109,-1.1146,-1.0716,0.0,0.0,0.0,0.0,0.0,0.0,0.0,0.0,0.0,0.0,0.0,0.0,0.0,0.0,0.0,0.0,0.0,0.0,0.0,0.0,0.0,0.0,0.0,0.0,0.0,0.0,0.0,0.0,0.0,0.0,0.0,0.0,0.0,0.0,0.0,0.0,0.0,0.0,0.0,0.0,0.0,0.0,0.0,0.0,0.0,0.0,0.0,0.0,0.0,0.0,0.0,0.0,0.0,0.0,0.0,0.0,0.0,0.0,0.0,0.0,0.0,0.0,0.0,0.0,0.0,0.0,0.0,0.0,0.0,0.0,0.0,0.0,0.0,0.0,0.0,0.0,0.0,0.0,0.0,0.0,0.0,0.0,0.0,0.0,0.0,0.0,0.0,0.0,0.0,0.0,0.0,0.0,0.0,0.0,0.0,0.0,0.0,0.0,0.0,0.0,0.0,0.0,0.0,0.0,0.0,0.0,0.0,0.0,0.0,-1.1688,-1.2293,-1.2012,-1.081,-1.0942,-1.0568,-0.9514,0.0,0.0,0.0,0.0,0.0,0.0,0.0,0.0,0.0,0.0,0.0,0.0,0.0,0.0,0.0,0.0,0.0,0.0,0.0,0.0,0.0,0.0,0.0,0.0,0.0,0.0,0.0,0.0,0.0,0.0,0.0,0.0,0.0,0.0,0.0,0.0,0.0,0.0,0.0,0.0,0.0,0.0,0.0,0.0,0.0,0.0,0.0,0.0,0.0,0.0,0.0,0.0,0.0,0.0,0.0,0.0,0.0,0.0,0.0,0.0,0.0,0.0,0.0,0.0,0.0,0.0,0.0,0.0,0.0,0.0,0.0,0.0,0.0,0.0,0.0,0.0,0.0,0.0,0.0,0.0,0.0,0.0,0.0,0.0,0.0,0.0,0.0,0.0,0.0,0.0,0.0,0.0,0.0,0.0,0.0,0.0,0.0,0.0,0.0,0.0,0.0,0.0,0.0,0.0,0.0,0.0,0.0,0.0,-1.1365,-1.1704,-1.1446,-1.0604,-1.0295,-0.982,0.0,0.0,0.0,0.0,0.0,0.0,0.0,0.0,0.0,0.0,0.0,0.0,0.0,0.0,0.0,0.0,0.0,0.0,0.0,0.0,0.0,0.0,0.0,0.0,0.0,0.0,0.0,0.0,0.0,0.0,0.0,0.0,0.0,0.0,0.0,0.0,0.0,0.0,0.0,0.0,0.0,0.0,0.0,0.0,0.0,0.0,0.0,0.0,0.0,0.0,0.0,0.0,0.0,0.0,0.0,0.0,0.0,0.0,0.0,0.0,0.0,0.0,0.0,0.0,0.0,0.0,0.0,0.0,0.0,0.0,0.0,0.0,0.0,0.0,0.0,0.0,0.0,0.0,0.0,0.0,0.0,0.0,0.0,0.0,0.0,0.0,0.0,0.0,0.0,0.0,0.0,0.0,0.0,0.0,0.0,0.0,0.0,0.0,0.0,0.0,0.0,0.0,0.0,0.0,0.0,0.0,0.0,0.0,0.0,-1.0972,-1.1015,-1.1073,-1.1129,-1.0493,-0.9813,0.0,0.0,0.0,0.0,0.0,0.0,0.0,0.0,0.0,0.0,0.0,0.0,0.0,0.0,0.0,0.0,0.0,0.0,0.0,0.0,0.0,0.0,0.0,0.0,0.0,0.0,0.0,0.0,0.0,0.0,0.0,0.0,0.0,0.0,0.0,0.0,0.0,0.0,0.0,0.0,0.0,0.0,0.0,0.0,0.0,0.0,0.0,0.0,0.0,0.0,0.0,0.0,0.0,0.0,0.0,0.0,0.0,0.0,0.0,0.0,0.0,0.0,0.0,0.0,0.0,0.0,0.0,0.0,0.0,0.0,0.0,0.0,0.0,0.0,0.0,0.0,0.0,0.0,0.0,0.0,0.0,0.0,0.0,0.0,0.0,0.0,0.0,0.0,0.0,0.0,0.0,0.0,0.0,0.0,0.0,0.0,0.0,0.0,0.0,0.0,0.0,0.0,0.0,0.0,0.0,0.0,0.0,0.0,-1.0821,-1.0619,-1.0753,-1.096,-1.1102,-1.0314,-0.9586,0.0,0.0,0.0,0.0,0.0,0.0,0.0,0.0,0.0,0.0,0.0,0.0,0.0,0.0,0.0,0.0,0.0,0.0,0.0,0.0,0.0,0.0,0.0,0.0,0.0,0.0,0.0,0.0,0.0,0.0,0.0,0.0,0.0,0.0,0.0,0.0,0.0,0.0,0.0,0.0,0.0,0.0,0.0,0.0,0.0,0.0,0.0,0.0,0.0,0.0,0.0,0.0,0.0,0.0,0.0,0.0,0.0,0.0,0.0,0.0,0.0,0.0,0.0,0.0,0.0,0.0,0.0,0.0,0.0,0.0,0.0,0.0,0.0,0.0,0.0,0.0,0.0,0.0,0.0,0.0,0.0,0.0,0.0,0.0,0.0,0.0,0.0,0.0,0.0,0.0,0.0,0.0,0.0,0.0,0.0,0.0,0.0,0.0,0.0,0.0,0.0,0.0,0.0,0.0,0.0,0.0,0.0,0.0,-1.0907,-1.0363,-1.0858,-1.1003,-1.0749,-0.9904,-0.9244,0.0,0.0,0.0,0.0,0.0,0.0,0.0,0.0,0.0,0.0,0.0,0.0,0.0,0.0,0.0,0.0,0.0,0.0,0.0,0.0,0.0,0.0,0.0,0.0,0.0,0.0,0.0,0.0,0.0,0.0,0.0,0.0,0.0,0.0,0.0,0.0,0.0,0.0,0.0,0.0,0.0,0.0,0.0,0.0,0.0,0.0,0.0,0.0,0.0,0.0,0.0,0.0,0.0,0.0,0.0,0.0,0.0,0.0,0.0,0.0,0.0,0.0,0.0,0.0,0.0,0.0,0.0,0.0,0.0,0.0,0.0,0.0,0.0,0.0,0.0,0.0,0.0,0.0,0.0,0.0,0.0,0.0,0.0,0.0,0.0,0.0,0.0,0.0,0.0,0.0,0.0,0.0,0.0,0.0,0.0,0.0,0.0,0.0,0.0,0.0,0.0,0.0,0.0,0.0,0.0,0.0,0.0,0.0,-1.0613,-1.0616,-1.0942,-1.1081,-1.1027,-0.9994,-0.9328,0.0,0.0,0.0,0.0,0.0,0.0,0.0,0.0,0.0,0.0,0.0,0.0,0.0,0.0,0.0,0.0,0.0,0.0,0.0,0.0,0.0,0.0,0.0,0.0,0.0,0.0,0.0,0.0,0.0,0.0,0.0,0.0,0.0,0.0,0.0,0.0,0.0,0.0,0.0,0.0,0.0,0.0,0.0,0.0,0.0,0.0,0.0,0.0,-1.8795,0.0,0.0,0.0,0.0,0.0,0.0,0.0,0.0,0.0,0.0,0.0,0.0,0.0,0.0,0.0,0.0,0.0,0.0,0.0,0.0,0.0,0.0,0.0,0.0,0.0,0.0,0.0,0.0,0.0,0.0,0.0,0.0,0.0,0.0,0.0,0.0,0.0,0.0,0.0,0.0,0.0,0.0,0.0,0.0,0.0,0.0,0.0,0.0,0.0,0.0,0.0,0.0,0.0,0.0,0.0,0.0,0.0,0.0,0.0,-1.0635,-1.0695,-1.0979,-1.1117,-1.1081,-1.0143,-0.9538,0.0,0.0,0.0,0.0,0.0,0.0,0.0,0.0,0.0,0.0,0.0,0.0,0.0,0.0,0.0,0.0,0.0,0.0,0.0,0.0,0.0,0.0,0.0,0.0,0.0,0.0,0.0,0.0,0.0,0.0,0.0,0.0,0.0,0.0,0.0,0.0,0.0,0.0,0.0,0.0,0.0,0.0,0.0,0.0,0.0,0.0,0.0,0.0,0.0,0.0,0.0,0.0,0.0,0.0,0.0,0.0,0.0,0.0,0.0,0.0,0.0,0.0,0.0,0.0,0.0,0.0,0.0,0.0,0.0,0.0,0.0,0.0,0.0,0.0,0.0,0.0,0.0,0.0,0.0,0.0,0.0,0.0,0.0,0.0,0.0,0.0,0.0,0.0,0.0,0.0,0.0,0.0,0.0,0.0,0.0,0.0,0.0,0.0,0.0,0.0,0.0,0.0,0.0,0.0,0.0,0.0,0.0,-1.0719,-1.0763,-1.0755,-1.0997,-1.1117,-1.1099,-1.0345,-0.9748,-0.9484,0.0,0.0,0.0,0.0,0.0,0.0,0.0,0.0,0.0,0.0,0.0,0.0,0.0,0.0,0.0,0.0,0.0,0.0,0.0,0.0,0.0,0.0,0.0,0.0,0.0,0.0,0.0,0.0,0.0,0.0,0.0,0.0,0.0,0.0,0.0,0.0,0.0,0.0,-1.595,-1.6619,0.0,0.0,0.0,0.0,0.0,0.0,0.0,0.0,-1.9046,0.0,0.0,0.0,0.0,0.0,0.0,0.0,0.0,0.0,0.0,0.0,0.0,0.0,0.0,0.0,0.0,0.0,0.0,0.0,0.0,0.0,0.0,0.0,0.0,0.0,0.0,0.0,0.0,0.0,0.0,0.0,0.0,0.0,0.0,0.0,0.0,0.0,0.0,0.0,0.0,0.0,0.0,0.0,0.0,0.0,0.0,0.0,0.0,0.0,0.0,0.0,0.0,0.0,0.0,0.0,0.0,-0.9717,-1.0187,-1.0667,-1.1015,-1.1087,-1.1117,-1.1093,-1.0351,-0.9748,-0.9472,0.0,0.0,0.0,0.0,0.0,0.0,0.0,0.0,0.0,0.0,0.0,0.0,0.0,0.0,0.0,0.0,0.0,0.0,0.0,0.0,0.0,0.0,0.0,0.0,0.0,0.0,0.0,0.0,0.0,0.0,0.0,0.0,0.0,0.0,0.0,0.0,0.0,0.0,0.0,-1.7019,-1.7424,0.0,0.0,0.0,0.0,0.0,0.0,0.0,0.0,-1.9973,0.0,0.0,0.0,0.0,0.0,0.0,0.0,0.0,0.0,0.0,0.0,0.0,0.0,0.0,0.0,0.0,0.0,0.0,0.0,0.0,0.0,0.0,0.0,0.0,0.0,0.0,0.0,0.0,0.0,0.0,0.0,0.0,0.0,0.0,0.0,0.0,0.0,0.0,0.0,0.0,0.0,0.0,0.0,0.0,0.0,0.0,0.0,0.0,0.0,0.0,0.0,0.0,0.0,0.0,0.0,-1.0021,-1.0334,-1.0734,-1.1087,-1.1117,-1.1117,-1.1099,-1.0351,-0.9754,0.0,0.0,0.0,0.0,0.0,0.0,0.0,0.0,0.0,0.0,0.0,0.0,0.0,0.0,0.0,0.0,0.0,0.0,0.0,0.0,0.0,0.0,0.0,0.0,0.0,0.0,0.0,0.0,0.0,0.0,0.0,0.0,0.0,0.0,0.0,0.0,0.0,0.0,0.0,0.0,-1.688,-1.7116,-1.8608,0.0,0.0,0.0,0.0,0.0,0.0,-1.9857,-2.004,0.0,0.0,0.0,0.0,0.0,0.0,0.0,0.0,0.0,0.0,0.0,0.0,0.0,0.0,0.0,0.0,0.0,0.0,0.0,0.0,0.0,0.0,0.0,0.0,0.0,0.0,0.0,0.0,0.0,0.0,0.0,0.0,0.0,0.0,0.0,0.0,0.0,0.0,0.0,0.0,0.0,0.0,0.0,0.0,0.0,0.0,0.0,0.0,0.0,0.0,0.0,0.0,0.0,0.0,0.0,-1.0244,-1.0604,-1.087,-1.1093,-1.1117,-1.1117,-1.1099,-1.0303,-0.9694,0.0,0.0,0.0,0.0,0.0,0.0,0.0,0.0,0.0,0.0,0.0,0.0,0.0,0.0,0.0,0.0,0.0,0.0,0.0,0.0,0.0,0.0,0.0,0.0,0.0,0.0,0.0,0.0,0.0,0.0,0.0,0.0,0.0,0.0,0.0,0.0,0.0,0.0,0.0,0.0,0.0,-1.7102,-1.8546,-1.8406,0.0,0.0,0.0,0.0,-1.8913,-1.9517,0.0,0.0,0.0,0.0,0.0,0.0,0.0,0.0,0.0,0.0,0.0,0.0,0.0,0.0,0.0,0.0,0.0,0.0,0.0,0.0,0.0,0.0,0.0,0.0,0.0,0.0,0.0,0.0,0.0,0.0,0.0,0.0,0.0,0.0,0.0,0.0,0.0,0.0,0.0,0.0,0.0,0.0,0.0,0.0,0.0,0.0,0.0,0.0,0.0,0.0,0.0,0.0,0.0,0.0,0.0,0.0,-0.967,-1.0638,-1.1114,-1.1087,-1.1117,-1.1117,-1.1099,-1.006,-0.9514,0.0,0.0,0.0,0.0,0.0,0.0,0.0,0.0,0.0,0.0,0.0,0.0,0.0,0.0,0.0,0.0,0.0,0.0,0.0,0.0,0.0,0.0,0.0,0.0,0.0,0.0,0.0,0.0,0.0,0.0,0.0,0.0,0.0,0.0,0.0,0.0,0.0,0.0,0.0,0.0,0.0,-1.8017,-1.8321,-1.8241,-1.8053,0.0,0.0,-1.9493,-1.9284,-2.0079,0.0,0.0,0.0,0.0,0.0,0.0,0.0,0.0,0.0,0.0,0.0,0.0,0.0,0.0,0.0,0.0,0.0,0.0,0.0,0.0,0.0,0.0,0.0,0.0,0.0,0.0,0.0,0.0,0.0,0.0,0.0,0.0,0.0,0.0,0.0,0.0,0.0,0.0,0.0,0.0,0.0,0.0,0.0,0.0,0.0,0.0,0.0,0.0,0.0,0.0,0.0,0.0,0.0,0.0,0.0,-0.9737,-0.9566,-1.0559,-1.1107,-1.1105,-1.1117,-1.1117,-1.1111,-1.0024,-0.9478,0.0,0.0,0.0,0.0,0.0,0.0,0.0,0.0,0.0,0.0,0.0,0.0,0.0,0.0,0.0,0.0,0.0,0.0,0.0,0.0,0.0,0.0,0.0,0.0,0.0,0.0,0.0,0.0,0.0,0.0,0.0,0.0,0.0,0.0,0.0,0.0,0.0,0.0,0.0,0.0,0.0,0.0,-1.7877,-1.7928,0.0,0.0,0.0,-1.9091,-1.8684,0.0,0.0,0.0,0.0,0.0,0.0,0.0,0.0,0.0,0.0,0.0,0.0,0.0,0.0,0.0,0.0,0.0,0.0,0.0,0.0,0.0,0.0,0.0,0.0,0.0,0.0,0.0,0.0,0.0,0.0,0.0,0.0,0.0,0.0,0.0,0.0,0.0,0.0,0.0,0.0,0.0,0.0,0.0,0.0,0.0,0.0,0.0,0.0,0.0,0.0,0.0,0.0,0.0,0.0,0.0,0.0,0.0,-0.9598,-1.061,-1.1117,-1.1117,-1.1117,-1.1117,-1.1099,-1.0158,0.0,0.0,0.0,0.0,0.0,0.0,0.0,0.0,0.0,0.0,0.0,0.0,0.0,0.0,0.0,0.0,0.0,0.0,0.0,0.0,0.0,0.0,0.0,0.0,0.0,0.0,0.0,-1.3286,0.0,0.0,0.0,0.0,0.0,0.0,0.0,0.0,0.0,0.0,0.0,0.0,0.0,0.0,-1.7272,-1.7533,-1.7593,-1.7642,0.0,0.0,-1.8544,-1.8241,-1.9469,-2.0153,0.0,0.0,0.0,0.0,0.0,0.0,0.0,0.0,0.0,0.0,0.0,0.0,0.0,0.0,0.0,0.0,0.0,0.0,0.0,0.0,0.0,0.0,0.0,0.0,0.0,0.0,0.0,0.0,0.0,0.0,0.0,0.0,0.0,0.0,0.0,0.0,0.0,0.0,0.0,0.0,0.0,0.0,0.0,0.0,0.0,0.0,0.0,0.0,0.0,0.0,0.0,0.0,0.0,0.0,0.0,-0.9862,-1.0707,-1.1111,-1.1117,-1.1117,-1.1117,-1.1099,-1.0333,-0.973,0.0,0.0,0.0,0.0,0.0,0.0,0.0,0.0,0.0,0.0,0.0,0.0,0.0,0.0,0.0,0.0,0.0,0.0,0.0,0.0,0.0,0.0,0.0,0.0,0.0,0.0,0.0,0.0,0.0,0.0,0.0,0.0,0.0,0.0,0.0,0.0,0.0,0.0,0.0,0.0,0.0,-1.7984,-1.7314,-1.724,-1.7395,0.0,0.0,-1.8006,-1.8388,-1.9547,-2.008,-1.9153,0.0,0.0,0.0,0.0,0.0,0.0,0.0,0.0,0.0,0.0,0.0,0.0,0.0,0.0,0.0,0.0,0.0,0.0,0.0,0.0,0.0,0.0,0.0,0.0,0.0,0.0,0.0,0.0,0.0,0.0,0.0,0.0,0.0,0.0,0.0,0.0,0.0,0.0,0.0,0.0,0.0,0.0,0.0,0.0,0.0,0.0,0.0,0.0,0.0,0.0,0.0,0.0,0.0,-0.9567,-0.9198,-1.0419,-1.0887,-1.0443,-1.0893,-1.0887,-1.0363,-0.9572,-0.8804,0.0,0.0,0.0,0.0,0.0,0.0,0.0,0.0,0.0,0.0,0.0,0.0,0.0,0.0,0.0,0.0,0.0,0.0,0.0,0.0,0.0,0.0,0.0,0.0,0.0,0.0,0.0,0.0,-1.5084,-1.5262,-1.4639,0.0,0.0,0.0,0.0,0.0,0.0,0.0,0.0,0.0,0.0,-1.7618,-1.7594,-1.7654,0.0,0.0,-1.8075,-1.8191,-1.8069,-1.9239,-1.9695,-1.8526,-1.9046,0.0,0.0,0.0,0.0,0.0,0.0,0.0,0.0,0.0,0.0,0.0,0.0,0.0,0.0,0.0,0.0,0.0,0.0,0.0,0.0,0.0,0.0,0.0,0.0,0.0,0.0,0.0,0.0,0.0,0.0,0.0,0.0,0.0,0.0,0.0,0.0,0.0,0.0,0.0,0.0,0.0,0.0,0.0,0.0,0.0,0.0,0.0,0.0,0.0,0.0,0.0,0.0,-0.9293,-0.8822,-0.9874,-1.0137,-0.9544,-1.0062,-1.0137,-0.9518,-0.8786,-0.802,0.0,0.0,0.0,0.0,0.0,0.0,0.0,0.0,0.0,0.0,0.0,0.0,0.0,0.0,0.0,0.0,0.0,0.0,0.0,0.0,0.0,0.0,0.0,0.0,0.0,0.0,0.0,0.0,-1.5064,-1.5265,-1.4792,0.0,0.0,0.0,0.0,0.0,0.0,0.0,0.0,0.0,0.0,-1.7326,-1.7475,-1.7549,-1.7549,-1.7662,-1.7858,-1.7983,-1.7774,-1.8624,-1.893,-1.8067,0.0,0.0,0.0,0.0,0.0,0.0,0.0,0.0,0.0,0.0,0.0,0.0,0.0,0.0,0.0,0.0,0.0,0.0,0.0,0.0,0.0,0.0,0.0,0.0,0.0,0.0,0.0,0.0,0.0,0.0,-0.7257,0.0,0.0,0.0,0.0,0.0,0.0,0.0,0.0,0.0,0.0,0.0,0.0,0.0,0.0,0.0,0.0,0.0,0.0,0.0,0.0,0.0,0.0,-0.8827,-0.9055,-0.8852,-0.878,-0.8703,-0.8775,-0.878,-0.8689,-0.8138,-0.7683,-0.7337,0.0,0.0,0.0,0.0,0.0,0.0,0.0,0.0,0.0,0.0,0.0,0.0,0.0,0.0,0.0,0.0,0.0,0.0,0.0,0.0,0.0,0.0,0.0,0.0,0.0,0.0,-1.2704,-1.3271,-1.4011,0.0,0.0,0.0,0.0,0.0,0.0,0.0,0.0,0.0,0.0,-1.7053,-1.7277,-1.6715,-1.6685,-1.6819,-1.7128,-1.7062,-1.7103,-1.7604,-1.775,-1.7894,0.0,0.0,0.0,0.0,0.0,0.0,0.0,0.0,0.0,0.0,0.0,0.0,0.0,0.0,0.0,0.0,0.0,0.0,0.0,0.0,0.0,0.0,0.0,0.0,0.0,0.0,0.0,-0.489,-0.494,0.0,0.0,0.0,0.0,0.0,0.0,0.0,0.0,0.0,0.0,0.0,-0.5884,-0.5578,0.0,0.0,0.0,0.0,0.0,0.0,0.0,0.0,0.0,0.0,0.0,0.0,-0.8568,-0.816,-0.8259,-0.8012,-0.7553,-0.8008,-0.8008,-0.7476,-0.7084,-0.6624,-0.6097,0.0,0.0,0.0,0.0,0.0,0.0,0.0,0.0,0.0,0.0,0.0,0.0,0.0,0.0,0.0,0.0,0.0,0.0,0.0,0.0,0.0,0.0,0.0,0.0,0.0,-1.3596,0.0,0.0,0.0,0.0,0.0,0.0,0.0,0.0,0.0,0.0,0.0,-1.6209,-1.6619,-1.6211,-1.587,-1.576,-1.572,-1.584,0.0,0.0,0.0,0.0,0.0,0.0,0.0,0.0,0.0,0.0,0.0,0.0,0.0,0.0,-1.7741,-1.8481,-1.9332,-2.0065,-2.0302,0.0,0.0,0.0,0.0,0.0,0.0,0.0,0.0,0.0,0.0,0.0,0.0,0.0,0.0,-0.4706,0.0,-0.49,0.0,0.0,0.0,0.0,0.0,0.0,0.0,0.0,-0.4774,-0.4893,-0.5408,-0.5081,-0.5193,0.0,-0.5359,-0.5408,0.0,0.0,0.0,0.0,0.0,0.0,0.0,0.0,-0.7712,-0.7166,-0.7218,-0.6938,-0.6479,-0.6942,-0.7015,-0.6475,-0.6095,-0.5682,-0.5103,-0.4996,-0.5294,0.0,0.0,0.0,0.0,0.0,0.0,0.0,0.0,0.0,0.0,0.0,0.0,0.0,0.0,0.0,0.0,0.0,0.0,0.0,0.0,0.0,0.0,0.0,-1.3867,0.0,0.0,0.0,0.0,0.0,0.0,0.0,0.0,0.0,-1.5816,-1.5667,-1.562,-1.593,-1.5397,-1.4954,-1.4871,0.0,0.0,0.0,0.0,0.0,0.0,0.0,-1.5939,-1.5893,-1.6335,-1.6876,-1.7429,-1.7328,-1.7253,-1.7448,0.0,0.0,-1.8138,-1.8959,-1.9625,-1.9858,-2.0117,-2.0373,-2.0696,-2.071,-2.0683,0.0,0.0,0.0,0.0,0.0,0.0,0.0,0.0,-0.516,-0.5401,0.0,-0.5769,0.0,0.0,0.0,0.0,0.0,-0.4935,0.0,0.0,-0.4593,-0.4586,-0.4555,-0.4552,-0.4552,-0.4485,-0.4563,-0.4633,-0.476,-0.5319,0.0,0.0,0.0,0.0,0.0,0.0,-0.644,-0.632,-0.5878,-0.5559,-0.5559,-0.5637,-0.5559,-0.5556,-0.5272,-0.4938,-0.4563,-0.4901,-0.516,-0.5011,-0.5986,0.0,0.0,0.0,0.0,0.0,0.0,0.0,0.0,0.0,0.0,0.0,0.0,0.0,0.0,0.0,0.0,0.0,0.0,0.0,0.0,-1.2725,0.0,0.0,0.0,0.0,0.0,0.0,0.0,0.0,0.0,0.0,-1.4658,-1.4584,-1.4453,-1.4495,0.0,0.0,0.0,0.0,-1.4297,-1.3772,-1.3971,-1.4215,-1.4398,-1.4505,-1.4956,-1.6115,0.0,0.0,-1.7942,-1.7322,-1.6892,-1.7411,-1.7615,-1.7627,-1.7556,-1.7907,-1.8358,-1.8963,-1.8897,-1.8937,-1.9748,-1.9973,-1.9884,-0.3889,0.0,0.0,0.0,0.0,-0.3982,-0.418,-0.4494,-0.4626,-0.4807,-0.4904,-0.4904,0.0,0.0,0.0,0.0,0.0,0.0,-0.4509,-0.442,-0.449,-0.4597,-0.4727,-0.473,-0.4773,-0.4857,-0.486,-0.4863,-0.4936,-0.5049,-0.5469,-0.612,0.0,0.0,0.0,0.0,-0.6129,-0.6106,-0.5545,-0.5174,-0.5174,-0.5174,-0.5174,-0.5174,-0.4971,-0.48,-0.473,-0.4669,-0.4839,-0.5163,-0.5409,0.0,0.0,0.0,0.0,0.0,0.0,0.0,0.0,0.0,0.0,0.0,0.0,0.0,0.0,0.0,0.0,0.0,0.0,0.0,-1.2909,-1.3006,-1.302,0.0,0.0,0.0,0.0,0.0,0.0,0.0,0.0,0.0,-1.3768,-1.3831,-1.4022,0.0,0.0,-1.315,-1.3135,-1.3106,-1.3029,-1.2927,-1.3294,0.0,0.0,-1.4508,-1.4749,-1.5174,-1.5965,-1.662,-1.6927,-1.733,-1.7702,-1.7914,-1.7924,-1.7982,-1.7961,-1.8506,-1.9044,-1.9258,-1.9496,-1.9806,-2.0184,-2.0233,-2.0233,-0.4032,-0.4047,-0.3996,-0.3966,-0.3876,-0.4019,-0.4222,-0.4398,-0.4541,-0.4587,-0.4616,-0.4616,-0.4523,-0.4363,-0.4322,0.0,0.0,0.0,-0.4529,-0.4686,-0.4686,-0.4765,-0.4901,-0.4906,-0.4944,-0.5015,-0.5018,-0.5018,-0.5018,-0.4969,-0.5133,-0.5616,0.0,0.0,-0.6216,-0.5878,-0.5632,-0.5576,-0.5183,-0.5018,-0.5018,-0.5018,-0.5018,-0.5015,-0.4944,-0.4885,-0.4833,-0.4648,-0.4694,-0.4907,-0.5042,-0.5223,0.0,0.0,0.0,0.0,0.0,0.0,0.0,0.0,0.0,0.0,0.0,-0.9585,0.0,0.0,0.0,0.0,-1.1688,-1.2323,-1.2917,-1.2868,0.0,0.0,0.0,0.0,0.0,0.0,0.0,-1.3319,-1.3125,-1.2995,-1.2995,-1.3048,-1.3327,-1.384,-1.3203,-1.2684,-1.2646,0.0,-1.2633,-1.2546,-1.2831,-1.3241,-1.3645,-1.4005,-1.4478,-1.529,-1.593,-1.6503,-1.6743,-1.7312,-1.7722,-1.7799,-1.7909,-1.8084,-1.8084,-1.8548,-1.891,-1.8963,-1.9226,-1.9579,-1.9978,-2.0105,-2.0194,-0.4097,-0.4212,-0.402,-0.4033,-0.4194,-0.4187,-0.4385,-0.4621,-0.4698,-0.4722,-0.4774,-0.4774,-0.4722,-0.458,-0.4406,0.0,-0.4753,-0.4756,-0.4803,-0.5018,-0.5018,-0.5018,-0.5018,-0.5018,-0.5018,-0.5018,-0.5018,-0.5018,-0.5012,-0.4906,-0.4841,-0.4833,-0.4977,-0.499,-0.4884,-0.4981,-0.4972,-0.4761,-0.4944,-0.5007,-0.5018,-0.5018,-0.5018,-0.5018,-0.5018,-0.4963,-0.4852,-0.4732,-0.4684,-0.4555,-0.4791,-0.5021,-0.5111,0.0,0.0,0.0,0.0,0.0,0.0,0.0,0.0,0.0,0.0,0.0,0.0,0.0,0.0,0.0,-1.1888,0.0,-1.2385,-1.2377,0.0,0.0,0.0,-1.3474,-1.3849,-1.3558,-1.3368,-1.3332,0.0,0.0,-1.244,-1.2432,-1.2577,-1.2971,-1.2971,-1.2857,-1.2496,-1.2811,-1.2851,-1.2509,-1.2586,-1.2715,-1.2932,-1.3387,-1.4316,-1.5703,-1.6187,-1.6394,-1.6946,-1.7069,-1.7146,-1.7202,-1.7678,-1.8018,-1.8018,-1.8073,-1.815,-1.8356,-1.8422,-1.8625,-1.9303,-1.95,-1.9656,-0.4169,-0.4059,-0.4035,-0.4001,-0.4097,-0.4188,-0.4207,-0.4235,-0.4387,-0.4528,-0.4737,-0.4737,-0.4783,-0.4885,-0.4857,-0.4879,-0.4931,-0.4931,-0.4961,-0.5015,-0.5018,-0.5018,-0.5018,-0.5018,-0.5018,-0.5018,-0.5018,-0.5018,-0.5018,-0.4985,-0.4925,-0.4838,-0.4833,-0.4847,-0.4731,-0.4753,-0.4814,-0.4758,-0.4787,-0.4923,-0.5015,-0.5018,-0.5018,-0.5018,-0.5018,-0.5004,-0.4974,-0.4857,-0.4735,-0.4684,-0.4605,-0.4567,-0.4377,-0.5315,0.0,0.0,0.0,0.0,0.0,0.0,0.0,0.0,0.0,-0.9799,-0.9896,0.0,-1.0725,0.0,-1.1039,-1.1577,-1.2067,-1.2102,0.0,0.0,-1.2578,-1.267,-1.2767,-1.2937,-1.295,-1.2645,-1.2768,-1.2843,-1.2843,-1.2843,-1.2971,-1.3314,-1.2886,-1.2659,-1.3077,-1.3063,-1.2946,-1.2943,-1.3241,-1.349,-1.3532,-1.3874,-1.4319,-1.4834,-1.5303,-1.5806,-1.6415,-1.6528,-1.6631,-1.709,-1.7313,-1.7435,-1.7435,-1.7788,-1.8084,-1.815,-1.815,-1.8247,-1.8625,-1.8786,-1.8934,-0.4459,-0.4332,-0.4291,-0.4228,-0.4144,-0.4145,-0.4266,-0.4334,-0.4454,-0.4596,-0.4757,-0.4738,-0.4828,-0.5018,-0.5018,-0.5018,-0.5018,-0.5018,-0.5018,-0.5018,-0.5018,-0.5018,-0.5018,-0.5018,-0.5018,-0.5018,-0.5018,-0.5018,-0.5018,-0.5018,-0.4982,-0.4917,-0.4915,-0.4855,-0.4738,-0.4751,-0.4686,-0.4754,-0.4806,-0.4917,-0.5083,-0.5091,-0.5069,-0.5021,-0.5018,-0.4966,-0.486,-0.4738,-0.464,-0.4575,-0.4458,-0.4311,-0.4126,-0.4677,-0.5016,0.0,0.0,0.0,0.0,0.0,0.0,0.0,0.0,0.0,0.0,0.0,-1.0064,-1.0127,-1.0632,-1.1049,-1.1259,-1.1302,-1.1403,-1.1717,-1.2012,-1.2307,-1.2398,-1.2898,-1.3134,-1.2911,-1.3083,-1.322,-1.3211,-1.322,-1.328,-1.3485,-1.316,-1.3001,-1.3363,-1.3316,-1.3211,-1.3228,-1.357,-1.383,-1.389,-1.401,-1.4318,-1.4734,-1.4911,-1.5186,-1.5748,-1.5911,-1.6026,-1.6358,-1.6585,-1.681,-1.681,-1.7045,-1.7335,-1.7623,-1.7733,-1.7854,-1.8313,-1.8476,-1.8572,-0.4804,-0.4718,-0.464,-0.4508,-0.4346,-0.4283,-0.4351,-0.4528,-0.4446,-0.4588,-0.4762,-0.4831,-0.4937,-0.5007,-0.5069,-0.5061,-0.5061,-0.5061,-0.5061,-0.5061,-0.5061,-0.5053,-0.504,-0.5037,-0.5031,-0.5018,-0.5018,-0.5018,-0.5018,-0.5018,-0.5007,-0.4996,-0.4993,-0.4931,-0.4811,-0.4722,-0.4675,-0.4678,-0.4795,-0.4958,-0.5156,-0.5135,-0.5069,-0.4977,-0.4969,-0.4871,-0.4734,-0.4621,-0.4485,-0.4466,-0.436,-0.4251,-0.4143,-0.4072,-0.4197,0.0,-0.4659,0.0,0.0,0.0,0.0,0.0,0.0,0.0,0.0,-0.8955,-0.9253,-0.9983,-1.0297,-1.0418,-1.0356,-1.0335,-1.0507,-1.1025,-1.16,-1.2142,-1.2472,-1.307,-1.3511,-1.3511,-1.3511,-1.3511,-1.3494,-1.3511,-1.3511,-1.3511,-1.3476,-1.3434,-1.3485,-1.3476,-1.3485,-1.3511,-1.3631,-1.3769,-1.395,-1.4001,-1.4181,-1.4824,-1.4725,-1.4675,-1.5294,-1.5294,-1.5303,-1.5468,-1.5853,-1.6197,-1.6197,-1.6244,-1.6539,-1.6989,-1.709,-1.7379,-1.8127,-1.8367,-1.8422,-0.4894,-0.481,-0.4794,-0.4726,-0.4636,-0.4687,-0.4471,-0.4085,-0.4067,-0.427,-0.4595,-0.4898,-0.5039,-0.5099,-0.5261,-0.5301,-0.5303,-0.5303,-0.5301,-0.5301,-0.5303,-0.5252,-0.5156,-0.5154,-0.5105,-0.5021,-0.5018,-0.5018,-0.5018,-0.5018,-0.4966,-0.4871,-0.4868,-0.4809,-0.4697,0.0,0.0,0.0,-0.4923,-0.5004,-0.504,-0.4855,-0.4743,-0.4722,-0.4795,0.0,-0.4729,-0.4704,-0.464,-0.4474,-0.4363,0.0,0.0,0.0,0.0,0.0,0.0,0.0,0.0,0.0,0.0,0.0,-0.7742,-0.827,-0.8381,-0.8392,-0.8711,-0.9519,-0.9224,-0.9254,-0.9968,-1.005,-1.0374,-1.1181,-1.1867,-1.2318,-1.2504,-1.307,-1.3511,-1.3511,-1.3511,-1.3511,-1.345,-1.3511,-1.3511,-1.3511,-1.3511,-1.3511,-1.3511,-1.3511,-1.3511,-1.3511,-1.3571,-1.37,-1.395,-1.3899,-1.395,-1.4189,-1.4318,-1.4556,-1.5059,-1.4902,-1.4911,-1.5245,-1.5459,-1.5584,-1.5575,-1.5979,-1.6244,-1.6415,-1.6482,-1.6821,-1.7909,-1.8302,-1.8433,-0.4776,0.0,-0.4038,-0.367,0.0,-0.3011,-0.291,-0.2727,-0.3912,-0.4158,-0.3848,-0.4022,-0.4176,-0.4218,-0.4387,-0.4772,-0.5283,-0.5312,-0.5371,-0.5371,-0.5371,-0.5336,-0.5276,-0.5276,-0.5214,-0.5102,-0.5102,-0.5072,-0.5021,-0.5018,-0.4985,-0.4849,-0.4925,-0.4893,-0.4841,-0.501,-0.5069,-0.501,-0.5069,-0.5156,-0.5265,-0.5102,-0.4977,-0.4917,-0.486,0.0,0.0,0.0,0.0,0.0,0.0,0.0,0.0,0.0,0.0,-0.4463,-0.47,-0.4992,-0.5439,-0.5883,-0.6418,-0.7068,-0.783,-0.822,-0.8226,-0.827,-0.8573,-0.9068,-0.8834,-0.8943,-0.9436,-0.9582,-0.9837,-1.0275,-1.0968,-1.1476,-1.1593,-1.2081,-1.2512,-1.2573,-1.2818,-1.3009,-1.3009,-1.3312,-1.3511,-1.3511,-1.3511,-1.3511,-1.3511,-1.3511,-1.3511,-1.3511,-1.3511,-1.3571,-1.37,-1.383,-1.383,-1.389,-1.401,-1.4249,-1.4529,-1.4497,-1.4497,-1.4784,-1.4902,-1.4961,-1.4961,-1.5245,-1.5536,-1.5768,-1.6035,-1.6574,-1.7687,-1.769,-1.7335,-0.4079,-0.3007,-0.3007,-0.242,-0.1323,-0.1328,-0.1316,-0.149,0.0,0.0,0.0,-0.2889,-0.2955,-0.3086,-0.3203,-0.3701,-0.4575,-0.4825,-0.4864,-0.4862,-0.4932,-0.4912,-0.4895,-0.4893,-0.4836,-0.473,-0.4708,-0.4656,-0.4575,-0.4553,-0.4545,-0.4543,-0.4543,-0.4565,-0.4612,-0.4777,-0.4914,-0.4841,-0.5065,-0.5221,-0.5219,-0.5264,-0.5135,-0.4933,-0.4924,-0.4857,-0.4734,-0.4726,-0.4726,-0.4726,-0.4704,-0.4613,-0.4376,-0.4322,-0.4219,-0.4047,-0.4009,-0.4293,-0.4974,-0.5169,-0.58,-0.7181,-0.7917,-0.8297,-0.8226,-0.8398,-0.8582,-0.877,-0.877,-0.8765,-0.8888,-0.9081,-0.9215,-0.921,-0.9913,-1.0421,-1.0478,-1.1024,-1.1516,-1.1516,-1.2012,-1.2328,-1.2328,-1.2757,-1.3199,-1.326,-1.326,-1.3381,-1.345,-1.3511,-1.3511,-1.3511,-1.3511,-1.3511,-1.3511,-1.364,-1.3761,-1.3761,-1.3881,-1.3941,-1.401,-1.4139,-1.4294,-1.4463,-1.4496,-1.4662,-1.4717,-1.4832,-1.4888,-1.5348,-1.5727,-1.6274,-1.7207,-1.6829,-1.6427,-0.2232,-0.2001,-0.2001,-0.1853,-0.1479,-0.1609,-0.1603,-0.1467,-0.1802,-0.1856,-0.175,-0.1941,-0.2034,-0.2027,-0.2177,-0.2346,-0.2528,-0.2755,-0.2912,-0.2909,-0.313,-0.3164,-0.3109,-0.3108,-0.2986,-0.292,-0.2865,-0.2831,-0.2819,-0.2846,-0.2817,-0.2895,-0.2817,-0.2954,-0.2984,-0.3095,-0.3129,-0.3264,-0.4639,-0.4976,-0.417,-0.4628,-0.4473,-0.3698,-0.435,-0.4692,-0.4729,-0.4656,-0.4726,-0.4723,-0.4624,-0.4526,-0.4594,-0.4414,-0.4327,-0.4382,-0.4303,-0.432,-0.4403,-0.4992,-0.565,-0.6527,-0.7256,-0.7837,-0.8404,-0.8495,-0.8517,-0.8582,-0.8576,-0.8582,-0.8576,-0.8641,-0.8705,-0.8899,-0.946,-0.9958,-1.0028,-1.0766,-1.1267,-1.1205,-1.1516,-1.164,-1.164,-1.1757,-1.2135,-1.2512,-1.2696,-1.2879,-1.3321,-1.3511,-1.3511,-1.3511,-1.3511,-1.3511,-1.3511,-1.3511,-1.358,-1.3502,-1.3718,-1.3882,-1.3873,-1.4159,-1.4466,-1.478,-1.4949,-1.5139,-1.5395,-1.5524,-1.5514,-1.5622,-1.5778,-1.598,-1.6287,-1.6103,-1.6369,-0.1456,-0.0896,-0.0784,-0.0444,0.0328,0.0219,0.0217,0.0323,0.0208,-0.0102,-0.0707,-0.0799,-0.0795,-0.0794,-0.0974,-0.1352,-0.1928,-0.2175,-0.2329,-0.2303,-0.2558,-0.2609,-0.2382,-0.2556,-0.2529,-0.2391,-0.2368,-0.2409,-0.2516,-0.2404,-0.2376,-0.2506,-0.2425,-0.2468,-0.2712,-0.2636,-0.2665,-0.2896,-0.367,-0.3802,-0.3388,-0.3597,-0.3437,-0.3013,-0.3355,-0.3481,-0.3481,-0.3481,-0.3707,-0.4162,-0.4192,-0.4311,-0.4749,-0.4648,-0.4553,-0.4474,-0.442,-0.4365,-0.4306,-0.4954,-0.5474,-0.5804,-0.6465,-0.7195,-0.7922,-0.8317,-0.8517,-0.8517,-0.8517,-0.8517,-0.8517,-0.8582,-0.8711,-0.877,-0.9145,-0.9396,-0.9454,-0.9767,-1.0021,-1.0085,-1.0521,-1.0829,-1.0829,-1.1267,-1.1571,-1.195,-1.2258,-1.2626,-1.2948,-1.3252,-1.345,-1.3511,-1.3511,-1.3511,-1.3511,-1.3511,-1.3511,-1.3511,-1.3752,-1.3942,-1.3977,-1.4409,-1.4827,-1.4997,-1.5233,-1.5487,-1.5689,-1.5689,-1.5689,-1.5716,-1.59,-1.6122,-1.6486,-1.6759,-1.7021,-0.0448,0.0448,0.0448,0.0897,0.1793,0.177,0.176,0.1757,0.1727,0.1276,0.0419,0.041,0.0405,0.0403,0.0298,-0.0197,-0.0983,-0.1255,-0.1325,-0.1394,-0.1663,-0.1642,-0.1522,-0.1698,-0.1684,-0.1661,-0.1652,-0.1705,-0.1734,-0.1631,-0.1602,-0.1726,-0.1643,-0.1663,-0.1945,-0.1784,-0.1882,-0.2083,-0.2119,-0.229,-0.2583,-0.2619,-0.2589,-0.241,-0.245,-0.2503,-0.2503,-0.2503,-0.2815,-0.3441,-0.3519,-0.3799,-0.4422,-0.4468,-0.4441,-0.4469,-0.4415,-0.4354,-0.4247,-0.4691,-0.5014,-0.4945,-0.5672,-0.6264,-0.6929,-0.7591,-0.8122,-0.8447,-0.8517,-0.8517,-0.8517,-0.8641,-0.8705,-0.877,-0.8829,-0.8888,-0.8888,-0.8958,-0.8952,-0.9017,-0.9588,-1.0021,-1.0148,-1.0584,-1.1017,-1.1267,-1.1826,-1.2258,-1.232,-1.2757,-1.3009,-1.313,-1.326,-1.3511,-1.3511,-1.3511,-1.3554,-1.3605,-1.3879,-1.4084,-1.4276,-1.4737,-1.5142,-1.5269,-1.551,-1.5695,-1.5805,-1.5719,-1.5671,-1.5659,-1.5856,-1.6355,-1.6978,-1.7369,-1.7369,0.1458,0.1683,0.157,0.1683,0.1794,0.1791,0.179,0.1786,0.1759,0.1744,0.1624,0.1577,0.1437,0.1417,0.1411,0.1308,0.1206,0.0988,0.0872,0.076,0.0653,0.0457,0.0359,0.0359,0.0448,0.0357,0.0351,0.0261,0.0172,0.0332,0.0322,0.0315,0.0314,0.0238,0.0243,0.0244,0.0244,0.0245,0.0245,-0.0327,-0.1548,-0.2274,-0.2329,-0.1494,-0.2116,-0.2503,-0.2347,-0.2503,-0.2503,-0.2582,-0.2581,-0.2893,-0.3428,-0.3442,-0.3732,-0.4287,-0.4257,-0.4148,-0.4043,-0.4095,-0.4092,-0.3959,-0.4616,-0.508,-0.5418,-0.5947,-0.6933,-0.8052,-0.8447,-0.8447,-0.8517,-0.8511,-0.8582,-0.8582,-0.8582,-0.8576,-0.8576,-0.8705,-0.8835,-0.8835,-0.9081,-0.9139,-0.9268,-0.9454,-0.9843,-1.0471,-1.1149,-1.1578,-1.1578,-1.1757,-1.1888,-1.2012,-1.2634,-1.3321,-1.339,-1.3511,-1.3481,-1.3822,-1.4013,-1.4089,-1.4351,-1.4609,-1.5016,-1.5044,-1.5425,-1.5648,-1.5816,-1.5861,-1.5452,-1.5341,-1.5566,-1.6044,-1.6706,-1.6862,-1.6651,0.1795,0.1795,0.1795,0.1795,0.1795,0.1795,0.1795,0.1793,0.1782,0.1767,0.1748,0.1724,0.1688,0.1643,0.1625,0.1617,0.1615,0.1504,0.1483,0.1454,0.1141,0.1025,0.1188,0.0992,0.0897,0.0897,0.0978,0.088,0.0692,0.0666,0.0729,0.0802,0.0791,0.0711,0.0637,0.0717,0.0717,0.0638,0.0638,0.0319,-0.0159,-0.0557,-0.0554,-0.0236,-0.047,-0.0705,-0.0706,-0.0627,-0.0862,-0.1331,-0.1331,-0.1721,-0.2503,-0.2947,-0.328,-0.3497,-0.3866,-0.4008,-0.3902,-0.3894,-0.3828,-0.3825,-0.4023,-0.442,-0.4882,-0.5213,-0.5807,-0.6798,-0.7521,-0.7922,-0.7917,-0.8247,-0.8517,-0.8517,-0.8517,-0.8517,-0.8517,-0.8576,-0.8641,-0.8641,-0.877,-0.8894,-0.8894,-0.9017,-0.9274,-0.9652,-1.0275,-1.0766,-1.0766,-1.1205,-1.1454,-1.1578,-1.2012,-1.2258,-1.2343,-1.2461,-1.2632,-1.2819,-1.3162,-1.3497,-1.3643,-1.3947,-1.4252,-1.4449,-1.4644,-1.4817,-1.4806,-1.4799,-1.4585,-1.4657,-1.4665,-1.4958,-1.5762,-1.5534,-1.5455,0.1795,0.1795,0.1795,0.1795,0.1795,0.1795,0.1795,0.1795,0.1795,0.1782,0.1762,0.1754,0.1722,0.1674,0.1642,0.1626,0.1618,0.1617,0.16,0.1572,0.1452,0.1328,0.1481,0.1276,0.1173,0.1167,0.1166,0.1065,0.0956,0.0928,0.0989,0.1058,0.104,0.0948,0.0786,0.0943,0.0943,0.0786,0.0786,0.0786,0.0786,0.0786,0.0707,0.0629,0.0629,0.0629,0.0629,0.0629,0.0314,-0.0235,-0.0314,-0.0783,-0.1721,-0.2348,-0.2866,-0.3244,-0.3672,-0.3885,-0.3736,-0.3708,-0.3692,-0.3625,-0.3625,-0.3825,-0.4289,-0.4422,-0.4686,-0.5279,-0.6199,-0.6859,-0.7456,-0.7852,-0.8247,-0.8447,-0.8517,-0.8517,-0.8517,-0.8517,-0.8517,-0.8517,-0.8641,-0.877,-0.8835,-0.8894,-0.9022,-0.9145,-0.9582,-0.9958,-1.0021,-1.0395,-1.0766,-1.0836,-1.0884,-1.115,-1.1481,-1.1831,-1.1906,-1.221,-1.2723,-1.3035,-1.3019,-1.3482,-1.3658,-1.3935,-1.3852,-1.3875,-1.4019,-1.3947,-1.365,-1.3723,-1.3723,-1.3939,-1.4744,-1.4307,-1.4371,0.1795,0.1795,0.1795,0.1795,0.1795,0.1795,0.1795,0.1795,0.1795,0.1793,0.1787,0.1763,0.1733,0.1701,0.1673,0.1644,0.1619,0.1617,0.1602,0.1575,0.1569,0.1537,0.1483,0.1478,0.1463,0.1347,0.1346,0.1332,0.1306,0.1386,0.1357,0.1307,0.1301,0.1286,0.1264,0.1259,0.1258,0.1258,0.1258,0.1258,0.1258,0.1258,0.1022,0.0707,0.0629,0.0629,0.0629,0.0629,0.055,0.055,0.055,-0.0078,-0.1411,-0.1645,-0.2325,-0.3549,-0.3824,-0.3781,-0.3622,-0.3553,-0.3437,-0.3299,-0.3295,-0.3362,-0.3629,-0.3696,-0.3761,-0.3892,-0.4616,-0.5536,-0.6785,-0.7181,-0.7647,-0.8252,-0.8447,-0.8447,-0.8452,-0.8452,-0.8517,-0.8447,-0.8382,-0.8511,-0.8705,-0.877,-0.8765,-0.8829,-0.9017,-0.9075,-0.9069,-0.9139,-0.9268,-0.9309,-0.9569,-1.0091,-1.1472,-1.1612,-1.1984,-1.2246,-1.2333,-1.2813,-1.3222,-1.3528,-1.3462,-1.339,-1.3237,-1.3237,-1.3317,-1.3164,-1.2872,-1.2792,-1.2792,-1.315,-1.381,-1.3939,-1.4011,0.1907,0.1795,0.1795,0.1795,0.1795,0.1795,0.1795,0.1795,0.1795,0.1795,0.1793,0.1783,0.1761,0.1732,0.1702,0.1662,0.162,0.1617,0.1611,0.1598,0.1581,0.1549,0.1511,0.1491,0.1466,0.144,0.1436,0.143,0.1418,0.14,0.138,0.1355,0.132,0.1296,0.1284,0.1346,0.1336,0.1336,0.1336,0.1336,0.1336,0.1336,0.1179,0.11,0.1022,0.1022,0.1022,0.1022,0.1022,0.1022,0.1022,0.0785,0.0235,-0.0784,-0.1861,-0.2802,-0.3417,-0.3651,-0.352,-0.3504,-0.3384,-0.3309,-0.3258,-0.3228,-0.3295,-0.3295,-0.3362,-0.3493,-0.3625,-0.4284,-0.5335,-0.6264,-0.6999,-0.7326,-0.7857,-0.7922,-0.7717,-0.8047,-0.8182,-0.7521,-0.7521,-0.7922,-0.7982,-0.7982,-0.7982,-0.8042,-0.8102,-0.8161,-0.8231,-0.8619,-0.8818,-0.8592,-0.8953,-0.9647,-1.0312,-1.0754,-1.1083,-1.1378,-1.1552,-1.1674,-1.1977,-1.2137,-1.207,-1.2137,-1.2211,-1.2218,-1.2218,-1.2144,-1.1922,-1.1848,-1.1916,-1.2285,-1.2799,-1.2785,-1.2858,0.2019,0.1795,0.1907,0.1907,0.1795,0.1907,0.1907,0.1795,0.1795,0.1795,0.1795,0.1795,0.1778,0.1748,0.1718,0.1679,0.1633,0.1622,0.1617,0.1615,0.1596,0.157,0.154,0.1509,0.148,0.1452,0.144,0.1436,0.1433,0.1415,0.1399,0.1386,0.134,0.1311,0.13,0.1352,0.1336,0.1336,0.1336,0.1336,0.1336,0.1336,0.1336,0.1336,0.1336,0.1336,0.1336,0.1336,0.1336,0.1336,0.1336,0.1178,0.0785,-0.047,-0.1556,-0.2069,-0.2808,-0.3153,-0.3174,-0.3315,-0.3395,-0.3365,-0.3309,-0.3262,-0.3234,-0.3226,-0.3226,-0.3226,-0.3226,-0.3489,-0.4084,-0.515,-0.6013,-0.6342,-0.6999,-0.7125,-0.6724,-0.719,-0.7195,-0.6666,-0.6793,-0.7125,-0.7129,-0.7125,-0.7125,-0.712,-0.7256,-0.7251,-0.7381,-0.7707,-0.8032,-0.7666,-0.8033,-0.8511,-0.891,-0.9235,-1.0225,-1.0668,-1.0845,-1.0828,-1.0887,-1.0962,-1.1037,-1.1037,-1.1037,-1.1111,-1.1117,-1.1117,-1.1117,-1.1117,-1.126,-1.162,-1.17,-1.1552,-1.1545,0.2019,0.1907,0.2131,0.2131,0.1907,0.2132,0.2019,0.1907,0.1795,0.1795,0.1795,0.1795,0.178,0.175,0.1719,0.1688,0.1661,0.1631,0.1617,0.1616,0.1614,0.1597,0.1566,0.1539,0.1507,0.1475,0.1448,0.1436,0.1435,0.1431,0.1418,0.1391,0.1361,0.1331,0.1304,0.1275,0.1336,0.1336,0.1336,0.1336,0.1336,0.1336,0.1336,0.1336,0.1336,0.1336,0.1336,0.1336,0.1336,0.1336,0.1336,0.0863,0.0235,-0.0705,-0.1253,-0.1325,-0.1993,-0.2348,-0.2491,-0.3032,-0.3319,-0.3337,-0.3371,-0.3334,-0.3279,-0.3258,-0.3256,-0.326,-0.3256,-0.3311,-0.3385,-0.3859,-0.4648,-0.5609,-0.5935,-0.6001,-0.587,-0.5873,-0.5939,-0.6075,-0.6272,-0.6334,-0.64,-0.64,-0.64,-0.6396,-0.6396,-0.6396,-0.6465,-0.6658,-0.6531,-0.6539,-0.701,-0.7588,-0.7546,-0.7638,-0.8981,-1.0034,-1.0243,-1.0351,-1.0432,-1.0513,-1.0663,-1.0732,-1.0962,-1.0962,-1.1037,-1.1037,-1.0887,-1.0887,-1.1037,-1.0807,-1.0582,-1.0432,-1.0357,0.2468,0.2468,0.2468,0.2468,0.2468,0.2468,0.2356,0.2131,0.2131,0.2019,0.1795,0.1795,0.1789,0.177,0.1729,0.1699,0.1687,0.1641,0.1617,0.1617,0.1617,0.1601,0.1575,0.1562,0.153,0.1483,0.145,0.1436,0.1436,0.1436,0.1429,0.1414,0.1372,0.1345,0.1331,0.1285,0.1336,0.1336,0.1336,0.1336,0.1336,0.1336,0.1336,0.1336,0.1336,0.1336,0.1336,0.1336,0.1336,0.1336,0.1336,0.1178,0.0785,0.0078,-0.0392,-0.0469,-0.1168,-0.1627,-0.1699,-0.2274,-0.2756,-0.2801,-0.3127,-0.345,-0.3422,-0.3409,-0.3407,-0.3409,-0.3416,-0.3416,-0.3416,-0.3557,-0.3985,-0.4576,-0.508,-0.5226,-0.4906,-0.4631,-0.4948,-0.5675,-0.5606,-0.5411,-0.5484,-0.5484,-0.5543,-0.5606,-0.5672,-0.5606,-0.5675,-0.6005,-0.6195,-0.5898,-0.6379,-0.675,-0.6791,-0.6927,-0.769,-0.8675,-0.8983,-0.9518,-0.9674,-0.9906,-1.0056,-1.0282,-1.0507,-1.0663,-1.0732,-1.0732,-1.0507,-1.0363,-1.0212,-0.9906,-0.9528,-0.9453,-0.9377,0.2805,0.2693,0.2805,0.3027,0.3362,0.3474,0.3583,0.3694,0.3694,0.3582,0.3469,0.3358,0.3246,0.3224,0.3025,0.298,0.2967,0.287,0.2822,0.2622,0.1818,0.1605,0.1585,0.1563,0.153,0.1484,0.145,0.1436,0.1436,0.1436,0.1436,0.1426,0.1386,0.1357,0.1346,0.1301,0.135,0.1338,0.1336,0.1336,0.1336,0.1336,0.1336,0.1336,0.1336,0.1336,0.1336,0.1336,0.1336,0.1336,0.1336,0.1336,0.1335,0.0863,0.0627,0.0549,-0.0078,-0.0548,-0.0625,-0.1236,-0.1753,-0.1888,-0.2533,-0.2792,-0.2775,-0.2987,-0.3427,-0.306,-0.3276,-0.3499,-0.3497,-0.3497,-0.3583,-0.3832,-0.4296,-0.4423,-0.401,-0.3873,-0.4082,-0.4766,-0.473,-0.4566,-0.4628,-0.464,-0.4625,-0.4749,-0.4815,-0.4818,-0.4951,-0.5282,-0.5222,-0.5248,-0.5527,-0.5793,-0.6058,-0.6279,-0.6521,-0.708,-0.7613,-0.8223,-0.868,-0.8836,-0.9069,-0.9145,-0.9367,-0.9367,-0.9442,-0.9518,-0.9442,-0.9377,-0.9306,-0.8998,-0.8689,-0.8694,-0.8542,0.3138,0.3027,0.325,0.3916,0.4695,0.492,0.5363,0.6026,0.6026,0.5915,0.5917,0.5586,0.5586,0.5545,0.496,0.4884,0.5063,0.4704,0.4624,0.4124,0.3024,0.2016,0.1606,0.1562,0.1522,0.1487,0.1456,0.1439,0.1436,0.1436,0.1436,0.1521,0.1665,0.1461,0.1514,0.1399,0.1525,0.1419,0.1492,0.1492,0.1415,0.1492,0.1415,0.1415,0.1415,0.1415,0.1415,0.1415,0.1336,0.1336,0.1336,0.1415,0.1573,0.1573,0.1571,0.165,0.1098,0.0705,0.047,-0.0156,-0.062,-0.0761,-0.1441,-0.1725,-0.1476,-0.2289,-0.2734,-0.2212,-0.2726,-0.3237,-0.3312,-0.3389,-0.3453,-0.3516,-0.37,-0.3689,-0.3564,-0.37,-0.3891,-0.3887,-0.3843,-0.3925,-0.399,-0.3908,-0.3926,-0.3976,-0.4038,-0.4092,-0.4161,-0.4428,-0.437,-0.454,-0.4894,-0.5087,-0.5421,-0.5648,-0.5854,-0.6012,-0.6468,-0.7003,-0.7689,-0.7923,-0.8156,-0.8304,-0.8228,-0.8152,-0.8304,-0.8609,-0.8533,-0.8237,-0.8161,-0.8084,-0.7855,-0.7625,-0.7472,0.5256,0.5919,0.6028,0.6251,0.6359,0.6473,0.6581,0.6579,0.6579,0.6581,0.6248,0.6139,0.6142,0.5788,0.5817,0.562,0.5572,0.5516,0.5425,0.5325,0.4728,0.3124,0.1912,0.1578,0.1639,0.1606,0.1665,0.1548,0.1707,0.1884,0.1884,0.2062,0.2633,0.2575,0.2017,0.2546,0.2408,0.1971,0.2353,0.2275,0.1963,0.2353,0.2276,0.1808,0.1729,0.1729,0.173,0.173,0.1573,0.1336,0.1336,0.1415,0.1572,0.165,0.173,0.1807,0.1728,0.1571,0.1412,0.0784,0.0312,0.0155,-0.0542,-0.0928,-0.0769,-0.1075,-0.123,-0.1076,-0.1383,-0.1919,-0.2378,-0.2686,-0.2996,-0.3601,-0.3438,-0.3441,-0.3511,-0.3572,-0.3572,-0.3568,-0.3625,-0.368,-0.3654,-0.3727,-0.3662,-0.3785,-0.3808,-0.3828,-0.3894,-0.3897,-0.4036,-0.4224,-0.449,-0.46,-0.4792,-0.4925,-0.5085,-0.5171,-0.5476,-0.5702,-0.6468,-0.7157,-0.7464,-0.7693,-0.754,-0.7387,-0.777,-0.8075,-0.7698,-0.7088,-0.7011,-0.6853,-0.6398,-0.6096,-0.6012,0.6475,0.7141,0.7141,0.7362,0.7805,0.7808,0.8026,0.8352,0.8352,0.8244,0.8134,0.7916,0.7805,0.7668,0.7425,0.7206,0.7066,0.694,0.6927,0.6825,0.6326,0.4926,0.3409,0.3064,0.3007,0.2854,0.2891,0.3014,0.3054,0.3044,0.3223,0.3484,0.3884,0.3802,0.3271,0.3559,0.3634,0.3153,0.3443,0.3365,0.3054,0.3365,0.3365,0.2899,0.2666,0.2277,0.1965,0.1887,0.1808,0.1573,0.1573,0.165,0.1806,0.1885,0.1963,0.212,0.212,0.212,0.2119,0.1647,0.141,0.1175,0.047,0.0313,0.0235,-0.0078,-0.0548,-0.0156,-0.0548,-0.1018,-0.1409,-0.1723,-0.2116,-0.2495,-0.2674,-0.2856,-0.346,-0.362,-0.3614,-0.3603,-0.3579,-0.3405,-0.3321,-0.3367,-0.3375,-0.3271,-0.3479,-0.3581,-0.3694,-0.3694,-0.3708,-0.3792,-0.3939,-0.4089,-0.4174,-0.436,-0.4153,-0.4248,-0.4148,-0.4457,-0.5234,-0.6002,-0.6237,-0.6388,-0.6546,-0.6619,-0.6692,-0.6615,-0.6157,-0.5696,-0.5696,-0.5386,-0.4846,-0.4774,-0.4693,0.736,0.7473,0.7473,0.814,0.9034,0.9144,0.9585,1.0468,1.0468,1.0468,1.0359,1.0366,0.9919,1.0233,0.9257,0.9324,0.9201,0.8776,0.8755,0.8421,0.7822,0.6625,0.5413,0.4858,0.4661,0.4468,0.4842,0.4658,0.4495,0.4734,0.5001,0.4999,0.508,0.505,0.4722,0.4843,0.4735,0.4411,0.4528,0.445,0.4297,0.445,0.453,0.4142,0.3677,0.3134,0.2668,0.2434,0.2356,0.2277,0.2121,0.2198,0.2353,0.2352,0.2353,0.2433,0.2433,0.2431,0.251,0.2353,0.2352,0.2037,0.141,0.1333,0.1491,0.0705,0.0313,0.0861,0.0157,-0.0157,-0.0548,-0.0705,-0.1096,-0.1409,-0.1328,-0.2035,-0.3056,-0.3526,-0.3526,-0.3524,-0.3375,-0.2966,-0.2699,-0.2698,-0.2884,-0.2332,-0.2554,-0.2631,-0.2753,-0.2753,-0.2885,-0.3102,-0.3301,-0.35,-0.3648,-0.3728,-0.336,-0.3186,-0.2871,-0.3049,-0.391,-0.4453,-0.4616,-0.4771,-0.4838,-0.4838,-0.4766,-0.4613,-0.4455,-0.4297,-0.4217,-0.3593,-0.2971,-0.3285,-0.3363,0.9027,0.9915,0.9915,1.0025,1.0249,1.0359,1.0468,1.0692,1.0692,1.0692,1.0692,1.0692,1.0472,1.0339,1.0012,0.9851,0.9588,0.9493,0.9327,0.913,0.9225,0.8726,0.7617,0.6479,0.5479,0.5341,0.5193,0.5264,0.5315,0.5447,0.545,0.5716,0.6322,0.6204,0.5471,0.6007,0.5807,0.5199,0.5461,0.5464,0.5157,0.5541,0.5541,0.5002,0.4691,0.4535,0.438,0.4382,0.4304,0.4068,0.3444,0.3054,0.3132,0.3212,0.3057,0.2744,0.2588,0.2588,0.251,0.2588,0.251,0.2353,0.2195,0.2198,0.2275,0.2038,0.1803,0.2038,0.1803,0.1096,0.047,-0.0235,-0.047,-0.0548,-0.0705,-0.094,-0.1332,-0.1644,-0.1958,-0.1955,-0.1948,-0.1709,-0.1549,-0.1631,-0.1661,-0.1435,-0.1536,-0.1623,-0.1746,-0.188,-0.208,-0.2348,-0.2379,-0.2493,-0.2588,-0.2576,-0.2269,-0.2011,-0.1675,-0.1552,-0.2329,-0.2882,-0.2955,-0.3041,-0.3051,-0.313,-0.3443,-0.3207,-0.3205,-0.2893,-0.2737,-0.2347,-0.2112,-0.219,-0.2035,1.0135,1.0692,1.0692,1.0692,1.0692,1.0692,1.0692,1.0692,1.0692,1.0692,1.0692,1.0692,1.0538,1.0337,1.0294,1.002,0.978,0.9662,0.9529,0.943,0.9529,0.943,0.9099,0.8034,0.7205,0.6838,0.6907,0.685,0.6754,0.6779,0.7051,0.7051,0.7588,0.7408,0.6729,0.7098,0.6932,0.6457,0.6553,0.6553,0.6321,0.6549,0.6395,0.5777,0.5544,0.5467,0.5002,0.4927,0.516,0.5312,0.4921,0.4375,0.4146,0.4148,0.3992,0.3759,0.3679,0.3446,0.3288,0.3054,0.2978,0.251,0.251,0.251,0.251,0.251,0.251,0.251,0.2352,0.2037,0.141,0.1096,0.0705,0.0549,0.047,0.0471,0.0392,-0.0392,-0.1096,-0.1018,-0.1096,-0.0931,-0.0764,-0.0741,-0.0796,-0.071,-0.1108,-0.1276,-0.1344,-0.1478,-0.1411,-0.1482,-0.1426,-0.1439,-0.1446,-0.1332,-0.1079,-0.0804,-0.052,-0.0303,-0.0534,-0.0998,-0.1312,-0.1632,-0.2034,-0.2268,-0.2503,-0.2189,-0.1956,-0.1643,-0.1487,-0.1409,-0.1175,-0.0862,-0.0706,1.0692,1.0692,1.0692,1.0692,1.0692,1.0692,1.0692,1.0692,1.0692,1.0692,1.0692,1.0692,1.0607,1.0428,1.0253,1.0054,0.9851,0.9721,0.9628,0.9628,0.9628,0.9628,0.9391,0.9158,0.8802,0.8449,0.8381,0.8288,0.8186,0.8476,0.8212,0.8476,0.8568,0.8189,0.801,0.7914,0.7676,0.7301,0.7326,0.7326,0.7326,0.7403,0.7019,0.6553,0.6395,0.624,0.5854,0.5702,0.5854,0.6398,0.6475,0.6086,0.5622,0.5234,0.5079,0.5004,0.4771,0.4535,0.4066,0.3908,0.3677,0.2901,0.2743,0.2743,0.2743,0.2588,0.251,0.251,0.2431,0.2431,0.2273,0.2037,0.1961,0.1963,0.1885,0.1963,0.1728,0.0471,0.0,-0.0157,0.0,0.0154,0.0151,0.0147,0.0072,-0.007,-0.0479,-0.0806,-0.0806,-0.0739,-0.0605,-0.047,-0.0338,-0.0339,-0.034,-0.0346,-0.0071,0.0,0.0363,0.0517,0.0675,0.0376,-0.0227,-0.0854,-0.1253,-0.1407,-0.1329,-0.1174,-0.0861,-0.0548,-0.0392,-0.047,0.0,0.055,0.055,1.0692,1.0692,1.0692,1.0692,1.0692,1.0692,1.0692,1.0692,1.0692,1.0692,1.0692,1.0688,1.0595,1.0416,1.0245,0.9989,0.9746,0.964,0.9624,0.9624,0.9624,0.9624,0.9563,0.9405,0.9147,0.8999,0.8854,0.8657,0.8524,0.8572,0.8572,0.8572,0.8572,0.8377,0.8126,0.7992,0.7845,0.7565,0.7492,0.748,0.748,0.748,0.7484,0.7173,0.7169,0.7173,0.7253,0.7257,0.7492,0.7718,0.7795,0.7638,0.7249,0.6475,0.5854,0.5389,0.5315,0.5234,0.4921,0.4768,0.4768,0.4457,0.391,0.3597,0.3443,0.3054,0.2899,0.2743,0.2743,0.2586,0.251,0.2665,0.251,0.2433,0.2431,0.2431,0.2353,0.2033,0.164,0.1558,0.1463,0.1212,0.1037,0.0943,0.0851,0.0834,0.0614,0.0404,0.0403,0.047,0.0605,0.0739,0.0807,0.0808,0.0808,0.0757,0.0772,0.0704,0.0855,0.0939,0.1023,0.1099,0.0668,0.0076,-0.0078,-0.0078,0.0,0.0,0.0157,0.047,0.0471,0.0471,0.102,0.149,0.1177,1.0692,1.0692,1.0692,1.0692,1.0692,1.0692,1.0692,1.0692,1.0692,1.0692,1.0692,1.068,1.0538,1.0331,1.0217,0.9965,0.9705,0.9624,0.9624,0.9624,0.9624,0.9567,0.9482,0.9307,0.9129,0.895,0.8775,0.8662,0.8576,0.8572,0.8568,0.8572,0.8568,0.8426,0.8191,0.8057,0.7878,0.7655,0.7614,0.748,0.748,0.748,0.748,0.7561,0.7638,0.7718,0.7799,0.7953,0.7953,0.8025,0.8102,0.8102,0.7944,0.7557,0.7015,0.663,0.6553,0.6318,0.5928,0.5774,0.5541,0.5004,0.4611,0.453,0.4453,0.4219,0.391,0.3984,0.4062,0.4062,0.4064,0.391,0.391,0.3834,0.3754,0.3677,0.3744,0.3633,0.3461,0.3074,0.2436,0.194,0.1739,0.1634,0.1676,0.1581,0.156,0.1551,0.1613,0.1612,0.1612,0.1545,0.1545,0.1544,0.1544,0.1631,0.1587,0.1524,0.1461,0.1553,0.1495,0.1569,0.1453,0.1116,0.106,0.1148,0.0928,0.0696,0.109,0.1488,0.1562,0.1715,0.2111,0.2271,0.2025,1.0802,1.0802,1.0802,1.0802,1.0802,1.0692,1.0692,1.0692,1.0692,1.0692,1.0688,1.0635,1.0456,1.0209,1.0054,0.9884,0.9628,0.9624,0.9624,0.9616,0.9567,0.9482,0.9344,0.9141,0.897,0.8852,0.8674,0.8572,0.8572,0.8572,0.8656,0.8656,0.8652,0.8645,0.845,0.8346,0.8093,0.7915,0.7737,0.7642,0.7638,0.7638,0.771,0.7787,0.7868,0.7949,0.8327,0.8178,0.8174,0.825,0.825,0.825,0.8178,0.8178,0.8178,0.8178,0.8178,0.7633,0.7088,0.6853,0.6549,0.6009,0.5547,0.5544,0.5461,0.5381,0.5303,0.5529,0.5529,0.5375,0.5146,0.5229,0.5151,0.4999,0.5074,0.5214,0.486,0.4725,0.4566,0.4033,0.3211,0.2935,0.2844,0.2785,0.2805,0.2795,0.2691,0.2622,0.2616,0.2415,0.2348,0.2214,0.2214,0.2146,0.2213,0.228,0.2301,0.2307,0.2313,0.2332,0.2208,0.2081,0.2052,0.2156,0.2118,0.2143,0.1802,0.1748,0.2199,0.2585,0.2691,0.2846,0.2969,0.3114,0.3032,1.1017,1.1017,1.1017,1.1017,1.1017,1.0802,1.0692,1.0692,1.0692,1.0692,1.066,1.053,1.0465,1.0331,1.0025,0.9784,0.9731,1.0015,1.0109,1.0092,0.9964,0.9769,0.9486,0.8995,0.9228,0.9208,0.8987,0.858,0.8828,0.8828,0.8744,0.8828,0.8899,0.8827,0.8832,0.8617,0.8504,0.8317,0.8203,0.8102,0.8102,0.8102,0.8475,0.8699,0.8627,0.8551,0.915,0.8927,0.8703,0.878,0.8703,0.8627,0.8627,0.8627,0.8627,0.8551,0.8327,0.8025,0.7868,0.7791,0.7714,0.7246,0.6938,0.6784,0.6549,0.6153,0.5915,0.5529,0.5684,0.5838,0.5918,0.5535,0.5384,0.5452,0.5674,0.5539,0.5324,0.5728,0.5554,0.5247,0.4512,0.4336,0.425,0.4104,0.4033,0.3959,0.3818,0.3685,0.3485,0.3282,0.3149,0.3082,0.3015,0.2948,0.2947,0.3013,0.3013,0.308,0.3084,0.3155,0.2975,0.2925,0.3179,0.3231,0.3291,0.3205,0.3033,0.306,0.3439,0.3546,0.3661,0.3634,0.3659,0.3812,0.4137,1.1564,1.135,1.135,1.135,1.1345,1.124,1.1131,1.1021,1.1126,1.1071,1.0874,1.0902,1.1011,1.1207,1.1594,1.1853,1.1848,1.1653,1.175,1.1599,1.1426,1.1263,1.1194,1.0839,1.0741,1.0328,1.0507,1.0717,1.0279,0.934,0.8823,0.8999,0.9082,0.9148,0.9334,0.8906,0.8991,0.9199,0.9354,0.9241,0.9003,0.9221,0.9593,0.9965,0.9744,0.9895,1.0045,1.0132,0.9986,0.9981,0.9679,0.9387,0.9236,0.9008,0.8703,0.8703,0.8551,0.8403,0.8255,0.825,0.8174,0.8102,0.7791,0.7638,0.7633,0.7468,0.7306,0.7383,0.7383,0.723,0.7153,0.7084,0.7007,0.6915,0.6551,0.6532,0.6415,0.6456,0.6534,0.6211,0.5913,0.5627,0.5342,0.5014,0.4755,0.4486,0.4483,0.4414,0.4148,0.3951,0.3882,0.3882,0.3882,0.3816,0.3749,0.3749,0.368,0.3747,0.3747,0.3751,0.3749,0.3818,0.4273,0.4475,0.4417,0.434,0.4242,0.4038,0.4037,0.4272,0.4501,0.4753,0.5006,0.52,0.5525,1.2005,1.1787,1.1673,1.1678,1.1678,1.1673,1.1459,1.124,1.1459,1.1354,1.1078,1.1274,1.1746,1.2248,1.2905,1.3193,1.3386,1.3482,1.3437,1.3328,1.3034,1.2601,1.2185,1.2115,1.1902,1.1815,1.158,1.1729,1.1391,1.0712,0.9941,0.9767,1.0197,1.0274,1.01,1.0026,1.0101,1.0269,1.0466,1.0293,0.9976,1.0271,1.064,1.0864,1.0938,1.0938,1.1162,1.095,1.1037,1.0887,1.0513,1.0212,1.0137,0.9836,0.9528,0.9533,0.9533,0.9231,0.8932,0.8708,0.8403,0.8327,0.8255,0.825,0.8399,0.8627,0.8703,0.847,0.847,0.847,0.8475,0.8322,0.8049,0.7836,0.7829,0.7868,0.7803,0.7504,0.7241,0.6781,0.6564,0.6668,0.6316,0.5826,0.5408,0.508,0.5011,0.514,0.514,0.5074,0.5077,0.5209,0.5209,0.5209,0.5077,0.4945,0.4743,0.4674,0.474,0.5001,0.5394,0.5526,0.5858,0.5862,0.5738,0.6032,0.6309,0.5424,0.4686,0.5408,0.6004,0.6256,0.6483,0.6678,0.681,1.2332,1.2327,1.211,1.2001,1.2005,1.1678,1.1678,1.1887,1.1778,1.1644,1.1613,1.1937,1.2328,1.2412,1.3426,1.3866,1.3674,1.3482,1.3642,1.3426,1.2888,1.2948,1.2798,1.265,1.2289,1.2254,1.2504,1.2413,1.2157,1.2419,1.1986,1.2066,1.1729,1.2157,1.2053,1.1732,1.1364,1.1396,1.1332,1.1192,1.1031,1.118,1.1477,1.1848,1.1558,1.1409,1.2077,1.1706,1.1409,1.1409,1.1186,1.1037,1.0962,1.0732,1.0507,1.0513,1.0513,1.0282,0.983,0.9155,0.878,0.8703,0.8699,0.8851,0.9079,0.8856,0.878,0.9003,0.9155,0.8983,0.8761,0.8533,0.8656,0.8582,0.8592,0.8369,0.8299,0.8078,0.7741,0.7334,0.7339,0.7531,0.7591,0.7242,0.6719,0.6326,0.6776,0.6902,0.6911,0.685,0.6728,0.6736,0.6741,0.6741,0.6736,0.6597,0.6453,0.6576,0.6645,0.7167,0.7692,0.7762,0.7302,0.7497,0.7432,0.7897,0.8037,0.7043,0.6562,0.7074,0.7395,0.7364,0.7516,0.7726,0.7826,1.3938,1.4578,1.4471,1.404,1.33,1.3192,1.3506,1.3901,1.388,1.3706,1.3362,1.4097,1.4358,1.4567,1.5305,1.5785,1.5785,1.588,1.5585,1.5337,1.5147,1.477,1.4389,1.4045,1.4048,1.388,1.3957,1.4048,1.4216,1.3964,1.4139,1.3957,1.3184,1.2674,1.265,1.2871,1.2447,1.2119,1.2185,1.2385,1.2003,1.2372,1.2746,1.29,1.2826,1.2673,1.2973,1.2746,1.2599,1.2452,1.2077,1.1929,1.1781,1.1477,1.1335,1.126,1.1335,1.1105,1.0801,0.9976,0.9463,0.9463,0.9463,0.9609,0.9981,1.0132,1.0132,1.0207,1.0115,0.9916,0.9849,0.9821,0.9734,0.9455,0.9136,0.8907,0.8763,0.862,0.8536,0.8268,0.8431,0.8748,0.8742,0.8737,0.8156,0.7702,0.8215,0.8603,0.8479,0.835,0.8037,0.7907,0.7912,0.7972,0.7972,0.8032,0.8156,0.8285,0.8415,0.8672,0.893,0.8737,0.8468,0.8801,0.893,0.8988,0.8796,0.835,0.8226,0.8231,0.8231,0.8132,0.8376,0.8807,0.9058,1.512,1.5861,1.5861,1.5441,1.4804,1.4702,1.4961,1.5282,1.5338,1.5065,1.466,1.5454,1.5798,1.6082,1.6756,1.7138,1.7008,1.7008,1.6875,1.6494,1.608,1.598,1.5704,1.5317,1.4999,1.5257,1.5264,1.5264,1.5173,1.5347,1.5257,1.4824,1.4223,1.3789,1.3593,1.3492,1.3239,1.295,1.2989,1.3345,1.2781,1.3119,1.3419,1.3419,1.3346,1.3339,1.3346,1.3266,1.3346,1.3273,1.3046,1.282,1.2592,1.2372,1.207,1.1996,1.1996,1.1983,1.1607,1.1019,1.0432,1.0501,1.0501,1.0726,1.1025,1.1248,1.1093,1.1013,1.1039,1.1052,1.0761,1.0504,1.0196,0.9829,0.9639,0.9416,0.934,0.9196,0.9279,0.9198,0.939,0.9326,0.9454,0.9448,0.9448,0.8865,0.8796,0.918,0.9448,0.9256,0.8994,0.8871,0.8935,0.9,0.9122,0.8988,0.886,0.9244,0.9378,0.9506,0.9633,0.9564,0.9627,0.9894,0.9952,0.9882,0.9996,1.0179,0.9685,0.9064,0.9186,0.9442,0.9933,1.0375,1.0564,1.5968,1.5861,1.5968,1.5968,1.5968,1.5861,1.5828,1.5823,1.5615,1.531,1.5022,1.5619,1.5988,1.6177,1.6943,1.7239,1.726,1.704,1.6748,1.644,1.6162,1.5789,1.5577,1.5362,1.5347,1.5431,1.5431,1.5431,1.5431,1.5431,1.5431,1.5431,1.5082,1.4908,1.5228,1.502,1.4685,1.4372,1.4128,1.3724,1.3535,1.3455,1.3492,1.3492,1.3492,1.3492,1.3564,1.3564,1.3645,1.371,1.371,1.363,1.3695,1.3695,1.3615,1.3695,1.3768,1.3462,1.2945,1.2124,1.1755,1.1601,1.1533,1.1681,1.1601,1.1675,1.1903,1.197,1.1629,1.1462,1.1095,1.0867,1.061,1.0463,1.0265,1.0183,1.0155,1.0149,1.0231,1.0281,0.9837,0.9582,0.9837,1.0034,1.0358,1.0161,0.9633,0.9761,1.0155,1.0218,0.9958,0.9958,0.9958,0.9958,0.9958,0.9633,0.9627,1.0015,1.0395,1.064,1.0899,1.1087,1.1156,1.1101,1.1281,1.1447,1.1881,1.232,1.1571,1.0822,1.0843,1.1094,1.1578,1.1819,1.1881,1.7463,1.8206,1.8206,1.8206,1.8101,1.7364,1.7193,1.749,1.7213,1.671,1.6477,1.6683,1.6756,1.6943,1.7037,1.7326,1.7252,1.7004,1.6682,1.6345,1.6038,1.5745,1.5518,1.5431,1.5431,1.5431,1.5431,1.5431,1.5431,1.5431,1.5431,1.5431,1.5431,1.5431,1.5267,1.5131,1.4853,1.4692,1.4304,1.3909,1.3799,1.3623,1.3499,1.3499,1.3492,1.3564,1.3717,1.3717,1.3783,1.4,1.3992,1.4065,1.4129,1.4137,1.4129,1.4129,1.4129,1.4065,1.3905,1.36,1.323,1.2858,1.2565,1.2718,1.3084,1.3237,1.3237,1.3085,1.2692,1.2557,1.2474,1.2097,1.1804,1.1617,1.1481,1.1347,1.1324,1.138,1.1421,1.1358,1.1108,1.1101,1.1163,1.1212,1.1406,1.1483,1.1017,1.078,1.1045,1.1115,1.1045,1.1045,1.1045,1.0982,1.085,1.0528,1.0703,1.1267,1.1703,1.2074,1.2336,1.2397,1.252,1.2389,1.2704,1.3009,1.3252,1.3364,1.307,1.2642,1.2749,1.2512,1.2512,1.2757,1.2879,1.8639,1.9272,1.9272,1.9206,1.9015,1.8372,1.8242,1.8309,1.7882,1.7516,1.7261,1.7239,1.7239,1.7239,1.7326,1.7223,1.715,1.6828,1.6513,1.6199,1.5884,1.5628,1.5482,1.5431,1.5431,1.5431,1.5431,1.5431,1.5431,1.5431,1.5431,1.5506,1.559,1.568,1.5613,1.5383,1.505,1.4874,1.4523,1.43,1.4087,1.394,1.3763,1.3747,1.3775,1.3783,1.3863,1.3935,1.4,1.4137,1.4209,1.4209,1.4281,1.4274,1.4274,1.4274,1.4281,1.4353,1.4425,1.4418,1.397,1.36,1.3528,1.3753,1.4129,1.4057,1.4129,1.4014,1.3785,1.35,1.3207,1.2845,1.2411,1.2197,1.2305,1.2174,1.229,1.2343,1.2589,1.2528,1.2528,1.2536,1.2536,1.2528,1.2581,1.252,1.2466,1.2166,1.1864,1.1864,1.1926,1.1864,1.1802,1.167,1.1608,1.1421,1.1779,1.2458,1.2757,1.3,1.3183,1.3114,1.3425,1.3734,1.3846,1.3965,1.4282,1.4341,1.4323,1.4492,1.4709,1.4305,1.3734,1.3734,1.3965,1.9279,1.9279,1.9279,1.9199,1.8825,1.8658,1.8386,1.7823,1.7486,1.734,1.7333,1.7333,1.7333,1.7326,1.7311,1.7143,1.685,1.6535,1.6235,1.5943,1.5672,1.5504,1.5438,1.5423,1.5514,1.5514,1.5514,1.5597,1.5431,1.5514,1.5673,1.5824,1.6079,1.6162,1.6057,1.6078,1.5695,1.5514,1.531,1.5148,1.5163,1.4787,1.4793,1.471,1.4592,1.4544,1.4513,1.441,1.4425,1.4497,1.4497,1.4569,1.4641,1.4641,1.4641,1.4705,1.4784,1.4848,1.4919,1.5054,1.4776,1.4617,1.4689,1.4641,1.4641,1.4848,1.4911,1.456,1.4247,1.389,1.3595,1.3012,1.2499,1.2605,1.2842,1.2956,1.313,1.3364,1.3674,1.3734,1.3666,1.3666,1.3614,1.3614,1.3425,1.3364,1.3252,1.3009,1.2712,1.2528,1.2528,1.2474,1.2413,1.229,1.2228,1.2343,1.2765,1.3356,1.3235,1.3416,1.3588,1.4016,1.4273,1.4579,1.4737,1.4982,1.5332,1.5633,1.5931,1.6093,1.611,1.5881,1.5235,1.5129,1.5313,1.9376,1.9576,1.9583,1.939,1.9041,1.8595,1.8178,1.7779,1.7472,1.7333,1.7333,1.7333,1.7318,1.7318,1.7099,1.7044,1.6764,1.636,1.6082,1.5811,1.573,1.5627,1.5658,1.5733,1.5748,1.5922,1.5997,1.6079,1.6004,1.5922,1.5997,1.5997,1.6796,1.696,1.7188,1.7423,1.709,1.6742,1.6485,1.6455,1.6639,1.6497,1.636,1.6105,1.5961,1.5867,1.5689,1.5267,1.5267,1.5338,1.5409,1.5409,1.5417,1.5895,1.6237,1.6245,1.6245,1.6237,1.6245,1.6237,1.5956,1.5683,1.5895,1.5816,1.5754,1.5754,1.5816,1.5367,1.4756,1.4421,1.4072,1.3529,1.3264,1.339,1.3623,1.3674,1.3914,1.4213,1.451,1.451,1.451,1.451,1.4451,1.4273,1.4145,1.4085,1.4025,1.3846,1.3606,1.3373,1.3191,1.3199,1.3199,1.3139,1.3312,1.3425,1.3777,1.4136,1.4007,1.4136,1.4746,1.5118,1.5245,1.541,1.5565,1.5911,1.6379,1.6662,1.6832,1.7101,1.7124,1.7013,1.6845,1.6564,1.6461,1.9583,1.9657,1.953,1.9325,1.8943,1.8437,1.802,1.7866,1.7609,1.752,1.7613,1.752,1.7453,1.739,1.7295,1.7079,1.6765,1.6481,1.6204,1.598,1.6095,1.626,1.6378,1.669,1.7017,1.7033,1.7033,1.7269,1.7041,1.7123,1.7277,1.7359,1.7908,1.798,1.8221,1.8452,1.8691,1.8364,1.8074,1.7961,1.7982,1.8082,1.7784,1.7606,1.7397,1.7188,1.696,1.6378,1.6184,1.6245,1.6245,1.6245,1.6245,1.6655,1.6862,1.6802,1.6802,1.6733,1.6733,1.6802,1.6594,1.6594,1.6872,1.7001,1.6793,1.6724,1.6515,1.6182,1.5539,1.498,1.4571,1.423,1.4258,1.435,1.441,1.4401,1.4697,1.505,1.5108,1.5167,1.5167,1.5177,1.5108,1.4932,1.4991,1.5167,1.5284,1.5225,1.4805,1.4332,1.4094,1.3914,1.3983,1.4043,1.4264,1.4492,1.461,1.4787,1.461,1.4923,1.5778,1.6009,1.5931,1.6151,1.6436,1.6775,1.7157,1.7324,1.7479,1.7797,1.8124,1.8178,1.795,1.7677,1.7567,1.9738,1.9693,1.9355,1.9064,1.8598,1.8364,1.8202,1.8094,1.7916,1.7908,1.7994,1.7777,1.7681,1.7553,1.752,1.727,1.7063,1.6877,1.6909,1.6343,1.7049,1.7334,1.7658,1.8132,1.8132,1.8443,1.8523,1.8301,1.8532,1.8541,1.8541,1.8939,1.9177,1.9256,1.9335,1.965,1.9894,2.011,1.9565,1.9201,1.8979,1.8813,1.858,1.8499,1.8209,1.7928,1.7707,1.7404,1.7056,1.7056,1.701,1.701,1.7207,1.7207,1.7285,1.7285,1.7423,1.7423,1.7482,1.7482,1.7276,1.7345,1.7687,1.7823,1.7687,1.7628,1.7413,1.6921,1.6317,1.5891,1.545,1.4762,1.451,1.4824,1.5059,1.5177,1.541,1.5652,1.5768,1.5768,1.5768,1.5836,1.5826,1.5652,1.5584,1.6066,1.6285,1.6285,1.6104,1.5507,1.5264,1.5031,1.5138,1.5313,1.5419,1.5593,1.5371,1.5371,1.5429,1.5776,1.6606,1.6719,1.6539,1.6821,1.7157,1.7545,1.7929,1.8038,1.8255,1.8738,1.9004,1.9226,1.9056,1.8673,1.8566,1.972,1.9861,1.9267,1.9104,1.9138,1.8621,1.8473,1.8643,1.8381,1.8179,1.8041,1.7827,1.7652,1.7655,1.7905,1.7722,1.7652,1.7796,1.8002,1.7925,1.8204,1.8452,1.8532,1.893,1.9088,1.9088,1.9088,1.9246,1.9325,1.9335,1.9256,1.9335,1.9816,2.0216,2.0294,2.0615,2.1088,2.1262,2.0991,2.0643,2.0668,2.0847,2.0878,2.0461,2.0066,1.9763,1.938,1.8701,1.8455,1.8238,1.7909,1.8076,1.8519,1.8519,1.8519,1.8586,1.8442,1.8385,1.8375,1.8307,1.8172,1.8172,1.8385,1.8385,1.8452,1.8519,1.8285,1.7676,1.7185,1.678,1.6201,1.5425,1.4893,1.5303,1.5652,1.5836,1.6077,1.6249,1.642,1.642,1.642,1.642,1.6477,1.642,1.6374,1.6581,1.6832,1.6989,1.7157,1.6856,1.6789,1.661,1.6564,1.6687,1.6733,1.6733,1.6553,1.6789,1.6957,1.7246,1.749,1.7424,1.7368,1.7644,1.7929,1.8309,1.859,1.8709,1.904,1.9396,1.9552,1.9656,1.9708,1.9371,1.9436,1.9675,1.9704,1.939,1.917,1.9113,1.8737,1.8743,1.8743,1.8651,1.8464,1.8224,1.8277,1.8217,1.8145,1.8465,1.8573,1.8551,1.8727,1.8807,1.893,1.9325,1.9492,1.965,1.9885,2.0294,2.0372,2.0372,2.045,2.0352,2.045,2.0527,2.0459,2.0867,2.1011,2.1088,2.1568,2.1807,2.1731,2.1807,2.1807,2.1807,2.1766,2.1725,2.1445,2.1197,2.099,2.0648,1.9859,1.9485,1.9133,1.8741,1.8704,1.8998,1.9065,1.9208,1.9208,1.9198,1.9208,1.9208,1.9142,1.8998,1.8998,1.9065,1.9065,1.9065,1.9065,1.8931,1.8441,1.8137,1.7731,1.7223,1.6518,1.6066,1.6195,1.6155,1.6192,1.641,1.657,1.674,1.6842,1.6888,1.7056,1.7056,1.6955,1.7011,1.7335,1.7589,1.7644,1.7809,1.807,1.807,1.807,1.7907,1.7699,1.7589,1.7688,1.7786,1.807,1.8298,1.8135,1.8027,1.8081,1.819,1.8459,1.8727,1.9004,1.9239,1.9356,1.9512,1.9862,1.9914,1.9965,2.0016,2.0016,2.0016,1.9489,1.9411,1.9328,1.9121,1.8859,1.8827,1.8827,1.8819,1.8864,1.8731,1.858,1.9188,1.9033,1.8927,1.9462,1.954,1.9604,1.9854,1.9728,1.9894,2.0382,2.0537,2.0847,2.1252,2.1476,2.1624,2.1655,2.1737,2.1829,2.1737,2.1655,2.1814,2.1838,2.1807,2.1807,2.1807,2.1807,2.1807,2.1807,2.1807,2.1807,2.1807,2.1787,2.1631,2.1455,2.1228,2.1062,2.0762,2.0317,1.9944,1.9483,1.9297,1.9295,1.9341,1.9407,1.9473,1.9407,1.9341,1.9341,1.9351,1.9351,1.9417,1.955,1.9605,1.9605,1.9539,1.9396,1.9183,1.8868,1.8522,1.805,1.7557,1.7153,1.6863,1.6696,1.6648,1.6853,1.7123,1.7268,1.7368,1.7479,1.7644,1.7644,1.7534,1.7699,1.8081,1.8298,1.8298,1.8405,1.878,1.8939,1.8939,1.8886,1.8673,1.8525,1.8525,1.8727,1.8886,1.8992,1.8727,1.8608,1.8886,1.9097,1.9319,1.9592,1.9695,1.9811,1.9914,2.0131,2.0233,2.0131,2.0118,2.022,2.022,2.0359,1.9194,1.8925,1.8955,1.8891,1.8827,1.8827,1.8827,1.8864,1.9306,1.9247,1.9281,2.0014,1.9971,1.8628,1.9823,2.0264,2.043,2.0769,2.1175,2.1415,2.1252,2.1415,2.1599,2.1747,2.1979,2.2201,2.2366,2.2563,2.2573,2.2449,2.2366,2.2366,2.1963,2.1869,2.1828,2.1838,2.1935,2.1915,2.1883,2.1883,2.1797,2.1807,2.1807,2.1756,2.1735,2.1683,2.1549,2.1217,2.1,2.0648,2.0209,1.9781,1.9642,1.9581,1.9605,1.9671,1.9671,1.9671,1.9736,1.9802,1.9933,1.9987,2.0118,2.0053,1.9987,1.9922,1.977,1.9596,1.9318,1.8988,1.853,1.8137,1.7712,1.7568,1.7427,1.7601,1.7809,1.7984,1.8201,1.819,1.8244,1.8352,1.8405,1.8352,1.8309,1.8685,1.9004,1.9056,1.9109,1.9475,1.9798,1.9747,1.9683,1.985,1.9798,1.95,1.9604,1.9695,1.9747,1.9527,1.9527,1.9798,2.0016,1.9965,2.0016,2.0118,2.0283,2.0422,2.0435,2.0435,2.0271,2.022,2.0372,2.061,2.0894]}]]